Kopte, Robert; Nitsche, Frank (2026): Shipboard ADCP current measurements (75 kHz) during RV MARIA S. MERIAN MSM141/2 [dataset]. PANGAEA, https://doi.org/10.1594/PANGAEA.992810
Always quote citation above when using data! You can download the citation in several formats below.
Published: 2026-03-09 • DOI registered: 2026-04-07
Abstract:
Current velocities of the upper water column along the cruise track of R/V Maria S. Merian cruise MSM141/2 were collected by a vessel-mounted 75 kHz RDI Ocean Surveyor ADCP. The ADCP transducer was located at 6.0 m below the water line. The instrument was operated in narrowband mode (WM10) with a bin size of 8.00 m, a blanking distance of 8.00 m, and a total of 100 bins, covering the depth range between 22.0 m and 814.0 m. Attitude data from the ship's motion reference unit were used by the data acquisition software VmDAS internally to convert ADCP beam velocities to geographic coordinates. The Python toolbox OSADCP (version 2.2.0) was used for data post-processing. Acoustic Interferences were identified based on outliers in the ADCP echo intensity data. Echo intensity data were cleaned accordingly and affected velocity cells were flagged to be removed prior ensemble-averaging. Upper-bin single-ping ADCP velocities affected by low echo-intensity were identified using a robust covariance-based outlier detection in velocity-backscatter space and removed when exceeding a chi-square confidence threshold. The ship's velocity was calculated from position fixes obtained by the Global Navigation Satellite System (GNSS), taking into account lever arms of ADCP transducer and GNSS antenna. Accuracy of the derived water velocities mainly depends on the quality of the position fixes and the ship's heading data. Further errors stem from a misalignment of the transducer with the ship's centerline. Data processing included water track calibration of the misalignment angle (-47.1845° +/- 0.4338°) and scale factor (1.0059 +/- 0.0105) of the measured velocities. The velocity data were averaged in time using an average interval of 60 s. Depth cells with ensemble-averaged percent-good values below 25% are marked as 'bad data'.
Related to:
Kopte, Robert; Nitsche, Frank (2026): Shipboard ADCP current measurements (38 kHz) during RV MARIA S. MERIAN cruise MSM141/2 [dataset]. PANGAEA, https://doi.org/10.1594/PANGAEA.992811
Other version:
nc file: ADCP current measurements (75 kHz) during RV MARIA S. MERIAN cruise MSM141_2 (2026). msm_141_2_vmadcp_75khz.nc
Data processing report:
Kopte, Robert (2026): Upper-ocean acoustic Doppler current profiler (75kHz-ADCP) underway measurements during MARIA S. MERIAN cruise MSM141_2. Institute of Geosciences, Kiel University, msm_141_2_vmadcp_75khz_proc_report.pdf
Standard operating procedure:
Anselm, Norbert; Kopte, Robert (2024): SOP 75kHz ADCP aboard of RV Maria S. Merian (vessel:maria_s_merian:adcp_75khz_671911). Zenodo, https://doi.org/10.5281/zenodo.14532654
Project(s):
DAM Underway Research Data (DAM_Underway)
Coverage:
Median Latitude: -2.806594 * Median Longitude: -28.003929 * South-bound Latitude: -17.126200 * West-bound Longitude: -34.977300 * North-bound Latitude: 11.609000 * East-bound Longitude: -22.675900
Date/Time Start: 2025-12-11T04:03:00 * Date/Time End: 2025-12-17T17:59:00
Minimum DEPTH, water: 22.0 m * Maximum DEPTH, water: 814.0 m
Event(s):
MSM141/2_0_Underway-3 * Latitude Start: -17.126200 * Longitude Start: -34.977300 * Latitude End: 11.609000 * Longitude End: -22.675900 * Date/Time Start: 2025-12-11T04:03:00 * Date/Time End: 2025-12-17T17:59:00 * O2A Registry URI: https://registry.o2a-data.de/items/12256 * Campaign: MSM141/2 (CARD-UP) * Basis: Maria S. Merian * Method/Device: Vessel mounted Acoustic Doppler Current Profiler [75 kHz] (VMADCP-75)
Parameter(s):
License:
Creative Commons Attribution 4.0 International (CC-BY-4.0)
Status:
Curation Level: Enhanced curation (CurationLevelC) * Processing Level: PANGAEA data processing level 2 (ProcLevel2)
Size:
5793308 data points
Data
| 1 Date/Time | 2 Latitude | 3 Longitude | 4 Depth water [m] | 5 Cur vel U [cm/s] | 6 Cur vel V [cm/s] | 7 QF cur vel | 8 Echo int [cts] | 9 Echo int clean [cts] | 10 Backsc rel [dB] | 11 Pings per ens [#] | 12 good ping [%] |
|---|---|---|---|---|---|---|---|---|---|---|---|
| 2025-12-11T04:03:00 | -17.1262 | -34.9773 | 22.0 | -2.20 | -26.61 | 1 | 152.4 | 152.2 | -82.9 | 26 | 83.9 |
| 2025-12-11T04:03:00 | -17.1262 | -34.9773 | 30.0 | 5.46 | -38.43 | 1 | 146.9 | 146.6 | -80.9 | 29 | 96.8 |
| 2025-12-11T04:03:00 | -17.1262 | -34.9773 | 38.0 | 20.22 | -27.17 | 1 | 143.5 | 143.3 | -79.2 | 29 | 96.8 |
| 2025-12-11T04:03:00 | -17.1262 | -34.9773 | 46.0 | -2.73 | -20.42 | 1 | 138.6 | 136.8 | -79.5 | 22 | 74.2 |
| 2025-12-11T04:03:00 | -17.1262 | -34.9773 | 54.0 | -14.13 | -24.41 | 1 | 126.9 | 125.2 | -82.4 | 22 | 74.2 |
| 2025-12-11T04:03:00 | -17.1262 | -34.9773 | 62.0 | 0.84 | -32.77 | 1 | 115.9 | 114.3 | -85.2 | 26 | 83.9 |
| 2025-12-11T04:03:00 | -17.1262 | -34.9773 | 70.0 | 5.52 | -22.84 | 1 | 105.3 | 105.2 | -87.4 | 27 | 90.3 |
| 2025-12-11T04:03:00 | -17.1262 | -34.9773 | 78.0 | 1.04 | -21.84 | 1 | 101.4 | 100.8 | -87.8 | 25 | 83.9 |
| 2025-12-11T04:03:00 | -17.1262 | -34.9773 | 86.0 | -5.28 | -30.69 | 1 | 96.4 | 96.0 | -88.4 | 26 | 87.1 |
| 2025-12-11T04:03:00 | -17.1262 | -34.9773 | 94.0 | -2.71 | -38.49 | 1 | 92.0 | 92.0 | -88.8 | 26 | 87.1 |
| 2025-12-11T04:03:00 | -17.1262 | -34.9773 | 102.0 | -4.35 | -17.16 | 1 | 86.9 | 86.6 | -89.9 | 24 | 80.6 |
| 2025-12-11T04:03:00 | -17.1262 | -34.9773 | 110.0 | 3.61 | -25.72 | 1 | 87.0 | 85.6 | -89.2 | 22 | 74.2 |
| 2025-12-11T04:03:00 | -17.1262 | -34.9773 | 118.0 | -16.44 | -24.87 | 1 | 84.5 | 82.9 | -89.2 | 23 | 74.2 |
| 2025-12-11T04:03:00 | -17.1262 | -34.9773 | 126.0 | 7.53 | -19.16 | 1 | 82.0 | 80.6 | -89.1 | 23 | 77.4 |
| 2025-12-11T04:03:00 | -17.1262 | -34.9773 | 134.0 | -7.71 | -31.50 | 1 | 79.1 | 77.8 | -89.3 | 23 | 77.4 |
| 2025-12-11T04:03:00 | -17.1262 | -34.9773 | 142.0 | -7.42 | -21.22 | 1 | 78.2 | 75.3 | -89.4 | 19 | 64.5 |
| 2025-12-11T04:03:00 | -17.1262 | -34.9773 | 150.0 | -1.74 | -28.17 | 1 | 77.0 | 75.4 | -88.4 | 23 | 77.4 |
| 2025-12-11T04:03:00 | -17.1262 | -34.9773 | 158.0 | 14.99 | -17.15 | 1 | 72.4 | 70.4 | -89.5 | 19 | 61.3 |
| 2025-12-11T04:03:00 | -17.1262 | -34.9773 | 166.0 | -7.06 | -26.12 | 1 | 67.0 | 66.0 | -90.5 | 25 | 83.9 |
| 2025-12-11T04:03:00 | -17.1262 | -34.9773 | 174.0 | -6.99 | -29.85 | 1 | 65.9 | 64.6 | -90.2 | 24 | 80.6 |
| 2025-12-11T04:03:00 | -17.1262 | -34.9773 | 182.0 | -8.98 | -28.66 | 1 | 64.0 | 62.7 | -90.2 | 25 | 83.9 |
| 2025-12-11T04:03:00 | -17.1262 | -34.9773 | 190.0 | -11.94 | -29.10 | 1 | 56.7 | 56.6 | -91.9 | 28 | 93.5 |
| 2025-12-11T04:03:00 | -17.1262 | -34.9773 | 198.0 | -5.27 | -29.47 | 1 | 51.2 | 50.1 | -93.9 | 27 | 87.1 |
| 2025-12-11T04:03:00 | -17.1262 | -34.9773 | 206.0 | -0.45 | -32.82 | 1 | 51.5 | 50.2 | -93.0 | 27 | 87.1 |
| 2025-12-11T04:03:00 | -17.1262 | -34.9773 | 214.0 | 8.70 | -23.36 | 1 | 47.8 | 47.8 | -93.2 | 26 | 83.9 |
| 2025-12-11T04:03:00 | -17.1262 | -34.9773 | 222.0 | 0.36 | -15.53 | 1 | 49.7 | 49.7 | -91.6 | 27 | 90.3 |
| 2025-12-11T04:03:00 | -17.1262 | -34.9773 | 230.0 | -2.59 | -25.94 | 1 | 50.9 | 50.6 | -90.4 | 27 | 90.3 |
| 2025-12-11T04:03:00 | -17.1262 | -34.9773 | 238.0 | 6.13 | -18.24 | 1 | 45.9 | 45.5 | -91.8 | 29 | 96.8 |
| 2025-12-11T04:03:00 | -17.1262 | -34.9773 | 246.0 | -3.42 | -2.76 | 1 | 44.3 | 44.3 | -91.6 | 29 | 96.8 |
| 2025-12-11T04:03:00 | -17.1262 | -34.9773 | 254.0 | -1.53 | -8.45 | 1 | 43.6 | 43.9 | -91.0 | 29 | 96.8 |
| 2025-12-11T04:03:00 | -17.1262 | -34.9773 | 262.0 | 1.66 | -6.29 | 1 | 43.3 | 43.3 | -90.5 | 28 | 93.5 |
| 2025-12-11T04:03:00 | -17.1262 | -34.9773 | 270.0 | -4.97 | -0.04 | 1 | 44.6 | 44.4 | -89.3 | 29 | 96.8 |
| 2025-12-11T04:03:00 | -17.1262 | -34.9773 | 278.0 | 7.53 | -2.88 | 1 | 48.8 | 46.7 | -87.6 | 21 | 71.0 |
| 2025-12-11T04:03:00 | -17.1262 | -34.9773 | 286.0 | -11.25 | -10.08 | 1 | 48.0 | 46.2 | -87.1 | 21 | 71.0 |
| 2025-12-11T04:03:00 | -17.1262 | -34.9773 | 294.0 | -12.59 | -20.66 | 1 | 37.5 | 37.2 | -90.3 | 27 | 90.3 |
| 2025-12-11T04:03:00 | -17.1262 | -34.9773 | 302.0 | 0.68 | -17.82 | 1 | 30.7 | 29.0 | -93.2 | 24 | 80.6 |
| 2025-12-11T04:03:00 | -17.1262 | -34.9773 | 310.0 | -4.22 | -2.81 | 1 | 27.2 | 25.0 | -94.4 | 23 | 74.2 |
| 2025-12-11T04:03:00 | -17.1262 | -34.9773 | 318.0 | 5.65 | -13.38 | 1 | 26.0 | 24.3 | -94.0 | 22 | 74.2 |
| 2025-12-11T04:03:00 | -17.1262 | -34.9773 | 326.0 | 7.95 | -15.34 | 1 | 24.4 | 22.4 | -94.2 | 17 | 58.1 |
| 2025-12-11T04:03:00 | -17.1262 | -34.9773 | 334.0 | -8.28 | -4.57 | 1 | 22.9 | 21.9 | -93.8 | 17 | 58.1 |
| 2025-12-11T04:03:00 | -17.1262 | -34.9773 | 342.0 | -6.36 | -27.92 | 1 | 22.8 | 20.9 | -93.6 | 20 | 64.5 |
| 2025-12-11T04:03:00 | -17.1262 | -34.9773 | 350.0 | 8.59 | -24.32 | 1 | 23.2 | 22.2 | -92.4 | 15 | 48.4 |
| 2025-12-11T04:03:00 | -17.1262 | -34.9773 | 358.0 | -5.51 | -19.55 | 1 | 23.0 | 22.0 | -91.8 | 20 | 67.7 |
| 2025-12-11T04:03:00 | -17.1262 | -34.9773 | 366.0 | 0.26 | -12.27 | 1 | 21.6 | 20.3 | -92.0 | 17 | 58.1 |
| 2025-12-11T04:03:00 | -17.1262 | -34.9773 | 374.0 | 0.82 | -61.04 | 1 | 20.2 | 18.6 | -92.2 | 12 | 41.9 |
| 2025-12-11T04:03:00 | -17.1262 | -34.9773 | 382.0 | 0.65 | -45.03 | 4 | 19.3 | 15.4 | -93.3 | 6 | 19.4 |
| 2025-12-11T04:03:00 | -17.1262 | -34.9773 | 390.0 | -3.43 | -1.82 | 4 | 19.2 | 16.0 | -92.3 | 3 | 9.7 |
| 2025-12-11T04:03:00 | -17.1262 | -34.9773 | 398.0 | -15.62 | -36.98 | 4 | 19.4 | 14.9 | -92.3 | 3 | 9.7 |
| 2025-12-11T04:03:00 | -17.1262 | -34.9773 | 406.0 | -14.05 | -56.68 | 4 | 21.1 | 14.4 | -92.0 | 4 | 12.9 |
| 2025-12-11T04:03:00 | -17.1262 | -34.9773 | 414.0 | 0.23 | -1.58 | 4 | 21.4 | 24.2 | -86.4 | 1 | 3.2 |
| 2025-12-11T04:03:00 | -17.1262 | -34.9773 | 422.0 | -51.21 | 18.31 | 4 | 21.7 | 16.1 | -89.8 | 1 | 6.5 |
| 2025-12-11T04:03:00 | -17.1262 | -34.9773 | 430.0 | 14.61 | 25.23 | 4 | 20.8 | 19.6 | -87.5 | 2 | 6.5 |
| 2025-12-11T04:03:00 | -17.1262 | -34.9773 | 438.0 | 15.74 | -12.48 | 4 | 19.0 | 15.7 | -88.9 | 5 | 16.1 |
| 2025-12-11T04:03:00 | -17.1262 | -34.9773 | 446.0 | 10.89 | -26.20 | 1 | 18.3 | 16.5 | -87.9 | 8 | 25.8 |
| 2025-12-11T04:03:00 | -17.1262 | -34.9773 | 454.0 | -11.39 | 4.38 | 1 | 18.6 | 18.1 | -86.5 | 8 | 29.0 |
| 2025-12-11T04:03:00 | -17.1262 | -34.9773 | 462.0 | 34.55 | -38.25 | 1 | 18.3 | 17.8 | -86.1 | 8 | 29.0 |
| 2025-12-11T04:03:00 | -17.1262 | -34.9773 | 470.0 | -26.57 | -28.81 | 4 | 18.1 | 19.0 | -84.9 | 3 | 9.7 |
| 2025-12-11T04:03:00 | -17.1262 | -34.9773 | 478.0 | -6.59 | -9.80 | 4 | 19.0 | 18.7 | -84.5 | 3 | 9.7 |
| 2025-12-11T04:03:00 | -17.1262 | -34.9773 | 486.0 | 2.94 | -44.71 | 1 | 22.0 | 19.0 | -83.7 | 10 | 35.5 |
| 2025-12-11T04:03:00 | -17.1262 | -34.9773 | 494.0 | 11.07 | -14.48 | 1 | 24.9 | 21.9 | -81.7 | 17 | 54.8 |
| 2025-12-11T04:03:00 | -17.1262 | -34.9773 | 502.0 | -0.88 | -26.91 | 1 | 24.2 | 21.6 | -81.3 | 17 | 58.1 |
| 2025-12-11T04:03:00 | -17.1262 | -34.9773 | 510.0 | 10.99 | -28.55 | 1 | 24.0 | 21.3 | -81.0 | 19 | 64.5 |
| 2025-12-11T04:03:00 | -17.1262 | -34.9773 | 518.0 | -1.89 | -22.83 | 1 | 24.9 | 23.1 | -79.5 | 17 | 58.1 |
| 2025-12-11T04:03:00 | -17.1262 | -34.9773 | 526.0 | -0.80 | -28.15 | 1 | 25.9 | 23.7 | -78.7 | 19 | 64.5 |
| 2025-12-11T04:03:00 | -17.1262 | -34.9773 | 534.0 | -1.62 | -11.66 | 1 | 25.2 | 23.4 | -78.3 | 22 | 74.2 |
| 2025-12-11T04:03:00 | -17.1262 | -34.9773 | 542.0 | -8.87 | -32.69 | 1 | 24.1 | 21.6 | -78.7 | 14 | 48.4 |
| 2025-12-11T04:03:00 | -17.1262 | -34.9773 | 550.0 | 4.00 | -9.04 | 1 | 21.8 | 18.9 | -79.5 | 14 | 48.4 |
| 2025-12-11T04:03:00 | -17.1262 | -34.9773 | 558.0 | 4.07 | -28.00 | 1 | 19.8 | 16.7 | -80.1 | 8 | 25.8 |
| 2025-12-11T04:03:00 | -17.1262 | -34.9773 | 566.0 | 13.67 | -10.07 | 1 | 20.8 | 17.7 | -79.1 | 8 | 29.0 |
| 2025-12-11T04:03:00 | -17.1262 | -34.9773 | 574.0 | 8.70 | -21.23 | 1 | 20.6 | 18.1 | -78.3 | 10 | 32.3 |
| 2025-12-11T04:03:00 | -17.1262 | -34.9773 | 582.0 | 14.24 | -55.30 | 4 | 20.1 | 15.3 | -79.3 | 7 | 22.6 |
| 2025-12-11T04:03:00 | -17.1262 | -34.9773 | 590.0 | 23.99 | -27.49 | 4 | 20.6 | 17.1 | -77.8 | 4 | 12.9 |
| 2025-12-11T04:03:00 | -17.1262 | -34.9773 | 598.0 | -23.46 | -81.51 | 4 | 20.1 | 16.6 | -77.6 | 2 | 6.5 |
| 2025-12-11T04:03:00 | -17.1262 | -34.9773 | 614.0 | 29.05 | 60.65 | 4 | 18.3 | 20.5 | -74.6 | 1 | 3.2 |
| 2025-12-11T04:03:00 | -17.1262 | -34.9773 | 630.0 | 17.71 | -49.29 | 4 | 18.3 | 13.5 | -77.3 | 1 | 3.2 |
| 2025-12-11T04:03:00 | -17.1262 | -34.9773 | 662.0 | -22.42 | -18.95 | 4 | 22.0 | 19.5 | -72.2 | 1 | 3.2 |
| 2025-12-11T04:03:00 | -17.1262 | -34.9773 | 670.0 | 16.53 | -34.90 | 4 | 20.5 | 18.5 | -72.2 | 1 | 3.2 |
| 2025-12-11T04:03:00 | -17.1262 | -34.9773 | 694.0 | 128.96 | 24.51 | 4 | 19.5 | 23.2 | -68.5 | 1 | 3.2 |
| 2025-12-11T04:03:00 | -17.1262 | -34.9773 | 702.0 | 80.10 | -55.56 | 4 | 19.7 | 23.0 | -68.2 | 1 | 3.2 |
| 2025-12-11T04:04:00 | -17.1224 | -34.9753 | 22.0 | 0.77 | -29.81 | 1 | 151.4 | 151.5 | -83.2 | 17 | 77.3 |
| 2025-12-11T04:04:00 | -17.1224 | -34.9753 | 30.0 | -5.24 | -16.50 | 1 | 145.6 | 145.2 | -81.5 | 20 | 90.9 |
| 2025-12-11T04:04:00 | -17.1224 | -34.9753 | 38.0 | 3.11 | -14.72 | 1 | 143.1 | 143.2 | -79.3 | 19 | 86.4 |
| 2025-12-11T04:04:00 | -17.1224 | -34.9753 | 46.0 | -8.63 | -24.76 | 1 | 141.6 | 137.2 | -79.3 | 9 | 40.9 |
| 2025-12-11T04:04:00 | -17.1224 | -34.9753 | 54.0 | -18.03 | -28.03 | 1 | 130.6 | 128.1 | -81.1 | 13 | 59.1 |
| 2025-12-11T04:04:00 | -17.1224 | -34.9753 | 62.0 | -2.11 | -22.63 | 1 | 119.1 | 117.1 | -84.0 | 16 | 72.7 |
| 2025-12-11T04:04:00 | -17.1224 | -34.9753 | 70.0 | -4.44 | -17.41 | 1 | 106.3 | 105.5 | -87.3 | 19 | 86.4 |
| 2025-12-11T04:04:00 | -17.1224 | -34.9753 | 78.0 | -17.11 | -28.93 | 1 | 100.5 | 100.5 | -87.9 | 22 | 100.0 |
| 2025-12-11T04:04:00 | -17.1224 | -34.9753 | 86.0 | -13.79 | -28.41 | 1 | 97.8 | 97.8 | -87.6 | 22 | 100.0 |
| 2025-12-11T04:04:00 | -17.1224 | -34.9753 | 94.0 | -6.63 | -28.88 | 1 | 94.6 | 94.3 | -87.9 | 19 | 86.4 |
| 2025-12-11T04:04:00 | -17.1224 | -34.9753 | 102.0 | -10.14 | -24.96 | 1 | 89.2 | 89.2 | -88.8 | 20 | 90.9 |
| 2025-12-11T04:04:00 | -17.1224 | -34.9753 | 110.0 | 5.43 | -31.65 | 1 | 86.4 | 86.0 | -89.0 | 18 | 81.8 |
| 2025-12-11T04:04:00 | -17.1224 | -34.9753 | 118.0 | -0.50 | -29.05 | 1 | 84.5 | 84.5 | -88.5 | 22 | 100.0 |
| 2025-12-11T04:04:00 | -17.1224 | -34.9753 | 126.0 | -11.96 | -23.60 | 1 | 80.7 | 80.4 | -89.2 | 19 | 86.4 |
| 2025-12-11T04:04:00 | -17.1224 | -34.9753 | 134.0 | -9.62 | -22.98 | 1 | 77.6 | 77.6 | -89.4 | 22 | 100.0 |
| 2025-12-11T04:04:00 | -17.1224 | -34.9753 | 142.0 | -5.44 | -8.58 | 1 | 75.9 | 75.9 | -89.1 | 22 | 100.0 |
| 2025-12-11T04:04:00 | -17.1224 | -34.9753 | 150.0 | -10.13 | -29.61 | 1 | 75.7 | 74.3 | -88.8 | 19 | 86.4 |
| 2025-12-11T04:04:00 | -17.1224 | -34.9753 | 158.0 | 7.63 | -27.30 | 1 | 72.8 | 70.6 | -89.5 | 17 | 77.3 |
| 2025-12-11T04:04:00 | -17.1224 | -34.9753 | 166.0 | 8.61 | -26.90 | 1 | 69.4 | 68.2 | -89.6 | 20 | 90.9 |
| 2025-12-11T04:04:00 | -17.1224 | -34.9753 | 174.0 | 17.76 | -35.10 | 1 | 66.6 | 64.2 | -90.4 | 16 | 72.7 |
| 2025-12-11T04:04:00 | -17.1224 | -34.9753 | 182.0 | -2.22 | -21.42 | 1 | 63.4 | 61.5 | -90.6 | 18 | 81.8 |
| 2025-12-11T04:04:00 | -17.1224 | -34.9753 | 190.0 | 3.71 | -32.09 | 1 | 54.1 | 54.1 | -92.9 | 20 | 90.9 |
| 2025-12-11T04:04:00 | -17.1224 | -34.9753 | 198.0 | -11.40 | -31.38 | 1 | 52.5 | 51.7 | -93.1 | 20 | 90.9 |
| 2025-12-11T04:04:00 | -17.1224 | -34.9753 | 206.0 | -2.25 | -24.71 | 1 | 52.1 | 51.8 | -92.3 | 20 | 90.9 |
| 2025-12-11T04:04:00 | -17.1224 | -34.9753 | 214.0 | -10.22 | -17.57 | 1 | 48.9 | 48.9 | -92.7 | 21 | 95.5 |
| 2025-12-11T04:04:00 | -17.1224 | -34.9753 | 222.0 | -0.22 | -22.93 | 1 | 49.3 | 49.5 | -91.7 | 21 | 95.5 |
| 2025-12-11T04:04:00 | -17.1224 | -34.9753 | 230.0 | -8.95 | -22.78 | 1 | 50.4 | 50.4 | -90.5 | 21 | 95.5 |
| 2025-12-11T04:04:00 | -17.1224 | -34.9753 | 238.0 | -4.25 | -19.67 | 1 | 43.8 | 44.0 | -92.5 | 20 | 90.9 |
| 2025-12-11T04:04:00 | -17.1224 | -34.9753 | 246.0 | -3.45 | -5.11 | 1 | 43.3 | 43.3 | -92.0 | 22 | 100.0 |
| 2025-12-11T04:04:00 | -17.1224 | -34.9753 | 254.0 | -5.32 | -10.21 | 1 | 42.5 | 42.2 | -91.7 | 19 | 86.4 |
| 2025-12-11T04:04:00 | -17.1224 | -34.9753 | 262.0 | 8.98 | -17.40 | 1 | 46.0 | 46.0 | -89.4 | 21 | 95.5 |
| 2025-12-11T04:04:00 | -17.1224 | -34.9753 | 270.0 | -4.72 | -9.49 | 1 | 47.9 | 48.1 | -87.7 | 19 | 86.4 |
| 2025-12-11T04:04:00 | -17.1224 | -34.9753 | 278.0 | -5.19 | -4.22 | 1 | 47.1 | 45.9 | -88.0 | 16 | 72.7 |
| 2025-12-11T04:04:00 | -17.1224 | -34.9753 | 286.0 | -8.51 | -18.87 | 1 | 46.4 | 45.8 | -87.3 | 21 | 95.5 |
| 2025-12-11T04:04:00 | -17.1224 | -34.9753 | 294.0 | 2.58 | -42.29 | 1 | 37.5 | 37.0 | -90.4 | 21 | 95.5 |
| 2025-12-11T04:04:00 | -17.1224 | -34.9753 | 302.0 | -9.09 | -20.34 | 1 | 29.6 | 28.8 | -93.3 | 17 | 77.3 |
| 2025-12-11T04:04:00 | -17.1224 | -34.9753 | 310.0 | -9.38 | -17.56 | 1 | 27.0 | 26.0 | -93.9 | 20 | 90.9 |
| 2025-12-11T04:04:00 | -17.1224 | -34.9753 | 318.0 | 7.79 | -16.26 | 1 | 24.7 | 23.2 | -94.5 | 17 | 77.3 |
| 2025-12-11T04:04:00 | -17.1224 | -34.9753 | 326.0 | 11.96 | -22.08 | 1 | 24.9 | 22.8 | -94.0 | 15 | 68.2 |
| 2025-12-11T04:04:00 | -17.1224 | -34.9753 | 334.0 | -11.31 | -18.98 | 1 | 24.5 | 21.7 | -93.9 | 17 | 77.3 |
| 2025-12-11T04:04:00 | -17.1224 | -34.9753 | 342.0 | 4.99 | -39.04 | 1 | 24.5 | 22.0 | -93.1 | 12 | 54.5 |
| 2025-12-11T04:04:00 | -17.1224 | -34.9753 | 350.0 | -13.29 | -30.35 | 1 | 23.8 | 20.4 | -93.2 | 15 | 68.2 |
| 2025-12-11T04:04:00 | -17.1224 | -34.9753 | 358.0 | -3.44 | -15.90 | 1 | 24.8 | 20.5 | -92.6 | 13 | 59.1 |
| 2025-12-11T04:04:00 | -17.1224 | -34.9753 | 366.0 | 7.06 | -11.44 | 1 | 24.2 | 21.8 | -91.3 | 13 | 59.1 |
| 2025-12-11T04:04:00 | -17.1224 | -34.9753 | 374.0 | -5.87 | -24.02 | 1 | 21.2 | 18.1 | -92.5 | 10 | 45.5 |
| 2025-12-11T04:04:00 | -17.1224 | -34.9753 | 382.0 | -8.06 | -12.13 | 4 | 19.6 | 19.7 | -91.1 | 3 | 13.6 |
| 2025-12-11T04:04:00 | -17.1224 | -34.9753 | 390.0 | 21.53 | -75.98 | 4 | 18.8 | 18.6 | -91.0 | 2 | 9.1 |
| 2025-12-11T04:04:00 | -17.1224 | -34.9753 | 398.0 | 5.62 | -74.63 | 4 | 17.9 | 17.0 | -91.2 | 1 | 4.5 |
| 2025-12-11T04:04:00 | -17.1224 | -34.9753 | 406.0 | 15.08 | -7.58 | 4 | 16.8 | 19.6 | -89.2 | 2 | 9.1 |
| 2025-12-11T04:04:00 | -17.1224 | -34.9753 | 414.0 | -2.99 | -21.19 | 4 | 16.9 | 16.5 | -90.2 | 2 | 9.1 |
| 2025-12-11T04:04:00 | -17.1224 | -34.9753 | 430.0 | 34.56 | 0.14 | 4 | 20.3 | 16.5 | -89.0 | 2 | 9.1 |
| 2025-12-11T04:04:00 | -17.1224 | -34.9753 | 438.0 | 10.54 | 27.73 | 4 | 19.4 | 16.1 | -88.7 | 3 | 13.6 |
| 2025-12-11T04:04:00 | -17.1224 | -34.9753 | 446.0 | 11.22 | -33.00 | 4 | 19.4 | 17.6 | -87.3 | 2 | 9.1 |
| 2025-12-11T04:04:00 | -17.1224 | -34.9753 | 454.0 | -2.62 | -13.53 | 1 | 21.8 | 16.4 | -87.3 | 6 | 27.3 |
| 2025-12-11T04:04:00 | -17.1224 | -34.9753 | 462.0 | -8.86 | -18.71 | 4 | 21.9 | 18.0 | -85.9 | 3 | 13.6 |
| 2025-12-11T04:04:00 | -17.1224 | -34.9753 | 470.0 | 15.04 | -28.23 | 4 | 21.0 | 14.2 | -87.4 | 3 | 13.6 |
| 2025-12-11T04:04:00 | -17.1224 | -34.9753 | 478.0 | 9.94 | -10.24 | 4 | 21.0 | 14.5 | -86.7 | 2 | 9.1 |
| 2025-12-11T04:04:00 | -17.1224 | -34.9753 | 486.0 | 42.33 | -38.17 | 4 | 22.2 | 18.2 | -84.1 | 4 | 18.2 |
| 2025-12-11T04:04:00 | -17.1224 | -34.9753 | 494.0 | 5.55 | 8.04 | 1 | 24.8 | 20.4 | -82.5 | 10 | 45.5 |
| 2025-12-11T04:04:00 | -17.1224 | -34.9753 | 502.0 | 1.98 | -4.44 | 1 | 25.8 | 21.5 | -81.4 | 13 | 59.1 |
| 2025-12-11T04:04:00 | -17.1224 | -34.9753 | 510.0 | -6.84 | -0.51 | 1 | 26.8 | 22.3 | -80.5 | 12 | 54.5 |
| 2025-12-11T04:04:00 | -17.1224 | -34.9753 | 518.0 | 18.71 | -18.74 | 1 | 27.5 | 23.7 | -79.3 | 9 | 40.9 |
| 2025-12-11T04:04:00 | -17.1224 | -34.9753 | 526.0 | -1.52 | -7.34 | 1 | 27.0 | 23.1 | -79.0 | 13 | 59.1 |
| 2025-12-11T04:04:00 | -17.1224 | -34.9753 | 534.0 | 12.66 | -32.31 | 1 | 26.5 | 23.0 | -78.5 | 12 | 54.5 |
| 2025-12-11T04:04:00 | -17.1224 | -34.9753 | 542.0 | -0.59 | -10.30 | 1 | 25.4 | 21.9 | -78.5 | 14 | 63.6 |
| 2025-12-11T04:04:00 | -17.1224 | -34.9753 | 550.0 | 0.74 | -34.05 | 1 | 23.8 | 19.9 | -79.0 | 10 | 45.5 |
| 2025-12-11T04:04:00 | -17.1224 | -34.9753 | 558.0 | -6.81 | -25.51 | 1 | 22.0 | 18.6 | -79.1 | 9 | 40.9 |
| 2025-12-11T04:04:00 | -17.1224 | -34.9753 | 566.0 | -2.06 | -27.75 | 1 | 19.7 | 17.6 | -79.1 | 7 | 31.8 |
| 2025-12-11T04:04:00 | -17.1224 | -34.9753 | 574.0 | 14.33 | -10.38 | 4 | 18.7 | 16.6 | -79.1 | 4 | 18.2 |
| 2025-12-11T04:04:00 | -17.1224 | -34.9753 | 582.0 | 30.08 | -46.36 | 1 | 18.6 | 17.1 | -78.4 | 6 | 27.3 |
| 2025-12-11T04:04:00 | -17.1224 | -34.9753 | 590.0 | 18.93 | -42.22 | 4 | 17.1 | 15.3 | -78.8 | 4 | 18.2 |
| 2025-12-11T04:04:00 | -17.1224 | -34.9753 | 598.0 | 6.20 | 13.60 | 4 | 16.8 | 16.9 | -77.5 | 2 | 9.1 |
| 2025-12-11T04:04:00 | -17.1224 | -34.9753 | 614.0 | 25.34 | -23.99 | 4 | 19.3 | 15.2 | -77.3 | 1 | 4.5 |
| 2025-12-11T04:05:00 | -17.1193 | -34.9736 | 22.0 | 3.88 | -28.23 | 1 | 150.5 | 150.5 | -83.6 | 22 | 95.6 |
| 2025-12-11T04:05:00 | -17.1193 | -34.9736 | 30.0 | 3.67 | -31.76 | 1 | 144.9 | 144.5 | -81.8 | 19 | 82.6 |
| 2025-12-11T04:05:00 | -17.1193 | -34.9736 | 38.0 | -0.54 | -28.91 | 1 | 143.2 | 143.2 | -79.3 | 22 | 95.6 |
| 2025-12-11T04:05:00 | -17.1193 | -34.9736 | 46.0 | -11.85 | -19.22 | 1 | 137.2 | 135.7 | -80.0 | 19 | 82.6 |
| 2025-12-11T04:05:00 | -17.1193 | -34.9736 | 54.0 | -4.78 | -32.65 | 1 | 124.9 | 123.5 | -83.1 | 20 | 87.0 |
| 2025-12-11T04:05:00 | -17.1193 | -34.9736 | 62.0 | -17.32 | -15.19 | 1 | 115.1 | 114.7 | -85.0 | 21 | 91.3 |
| 2025-12-11T04:05:00 | -17.1193 | -34.9736 | 70.0 | -12.29 | -14.94 | 1 | 107.5 | 107.5 | -86.4 | 23 | 100.0 |
| 2025-12-11T04:05:00 | -17.1193 | -34.9736 | 78.0 | -12.92 | -21.98 | 1 | 101.2 | 101.2 | -87.6 | 23 | 100.0 |
| 2025-12-11T04:05:00 | -17.1193 | -34.9736 | 86.0 | -0.96 | -31.86 | 1 | 97.5 | 97.5 | -87.8 | 21 | 91.3 |
| 2025-12-11T04:05:00 | -17.1193 | -34.9736 | 94.0 | 4.17 | -24.66 | 1 | 93.9 | 93.6 | -88.2 | 20 | 87.0 |
| 2025-12-11T04:05:00 | -17.1193 | -34.9736 | 102.0 | -5.37 | -31.79 | 1 | 91.7 | 91.4 | -87.9 | 20 | 87.0 |
| 2025-12-11T04:05:00 | -17.1193 | -34.9736 | 110.0 | 0.95 | -24.10 | 1 | 88.8 | 88.4 | -88.0 | 21 | 91.3 |
| 2025-12-11T04:05:00 | -17.1193 | -34.9736 | 118.0 | -4.93 | -21.53 | 1 | 83.3 | 83.3 | -89.0 | 21 | 91.3 |
| 2025-12-11T04:05:00 | -17.1193 | -34.9736 | 126.0 | -8.03 | -32.21 | 1 | 80.9 | 80.5 | -89.2 | 22 | 95.6 |
| 2025-12-11T04:05:00 | -17.1193 | -34.9736 | 134.0 | -13.93 | -22.74 | 1 | 79.3 | 78.3 | -89.1 | 21 | 91.3 |
| 2025-12-11T04:05:00 | -17.1193 | -34.9736 | 142.0 | 2.42 | -18.59 | 1 | 76.7 | 76.2 | -89.0 | 22 | 95.6 |
| 2025-12-11T04:05:00 | -17.1193 | -34.9736 | 150.0 | -3.00 | -30.00 | 1 | 74.5 | 73.9 | -89.0 | 21 | 91.3 |
| 2025-12-11T04:05:00 | -17.1193 | -34.9736 | 158.0 | -4.70 | -39.64 | 1 | 74.1 | 72.5 | -88.6 | 20 | 87.0 |
| 2025-12-11T04:05:00 | -17.1193 | -34.9736 | 166.0 | 2.09 | -16.14 | 1 | 70.9 | 70.4 | -88.7 | 16 | 69.6 |
| 2025-12-11T04:05:00 | -17.1193 | -34.9736 | 174.0 | -8.56 | -18.94 | 1 | 66.1 | 65.0 | -90.0 | 20 | 87.0 |
| 2025-12-11T04:05:00 | -17.1193 | -34.9736 | 182.0 | -5.37 | -27.26 | 1 | 64.0 | 62.5 | -90.2 | 17 | 73.9 |
| 2025-12-11T04:05:00 | -17.1193 | -34.9736 | 190.0 | 8.68 | -20.54 | 1 | 58.4 | 57.8 | -91.4 | 21 | 91.3 |
| 2025-12-11T04:05:00 | -17.1193 | -34.9736 | 198.0 | 2.71 | -18.93 | 1 | 51.3 | 51.3 | -93.3 | 21 | 91.3 |
| 2025-12-11T04:05:00 | -17.1193 | -34.9736 | 206.0 | -3.22 | -23.57 | 1 | 51.4 | 51.0 | -92.6 | 22 | 95.6 |
| 2025-12-11T04:05:00 | -17.1193 | -34.9736 | 214.0 | 1.53 | -12.33 | 1 | 51.3 | 50.9 | -91.8 | 22 | 95.6 |
| 2025-12-11T04:05:00 | -17.1193 | -34.9736 | 222.0 | 9.45 | -12.99 | 1 | 52.5 | 52.5 | -90.4 | 22 | 95.6 |
| 2025-12-11T04:05:00 | -17.1193 | -34.9736 | 230.0 | 4.43 | -11.97 | 1 | 51.4 | 50.9 | -90.3 | 19 | 82.6 |
| 2025-12-11T04:05:00 | -17.1193 | -34.9736 | 238.0 | 0.80 | -28.29 | 1 | 48.4 | 47.7 | -90.9 | 21 | 91.3 |
| 2025-12-11T04:05:00 | -17.1193 | -34.9736 | 246.0 | -16.21 | -10.64 | 1 | 44.6 | 42.9 | -92.2 | 20 | 87.0 |
| 2025-12-11T04:05:00 | -17.1193 | -34.9736 | 254.0 | 6.85 | -2.87 | 1 | 44.7 | 44.0 | -90.9 | 19 | 82.6 |
| 2025-12-11T04:05:00 | -17.1193 | -34.9736 | 262.0 | 14.12 | 5.90 | 1 | 47.3 | 46.3 | -89.2 | 20 | 87.0 |
| 2025-12-11T04:05:00 | -17.1193 | -34.9736 | 270.0 | -3.94 | -14.40 | 1 | 47.9 | 47.5 | -88.0 | 20 | 87.0 |
| 2025-12-11T04:05:00 | -17.1193 | -34.9736 | 278.0 | 2.31 | -13.46 | 1 | 46.0 | 45.2 | -88.2 | 21 | 91.3 |
| 2025-12-11T04:05:00 | -17.1193 | -34.9736 | 286.0 | -4.96 | -15.08 | 1 | 46.0 | 45.6 | -87.4 | 22 | 95.6 |
| 2025-12-11T04:05:00 | -17.1193 | -34.9736 | 294.0 | 6.24 | -23.29 | 1 | 40.1 | 39.9 | -89.1 | 20 | 87.0 |
| 2025-12-11T04:05:00 | -17.1193 | -34.9736 | 302.0 | 5.69 | 1.06 | 1 | 30.1 | 30.1 | -92.7 | 22 | 95.6 |
| 2025-12-11T04:05:00 | -17.1193 | -34.9736 | 310.0 | 6.40 | -2.78 | 1 | 24.5 | 24.3 | -94.7 | 20 | 87.0 |
| 2025-12-11T04:05:00 | -17.1193 | -34.9736 | 318.0 | -11.00 | -10.48 | 1 | 23.7 | 23.6 | -94.3 | 19 | 82.6 |
| 2025-12-11T04:05:00 | -17.1193 | -34.9736 | 326.0 | -2.33 | -10.13 | 1 | 22.8 | 22.1 | -94.4 | 17 | 73.9 |
| 2025-12-11T04:05:00 | -17.1193 | -34.9736 | 334.0 | -8.92 | -19.60 | 1 | 22.6 | 21.5 | -94.0 | 20 | 87.0 |
| 2025-12-11T04:05:00 | -17.1193 | -34.9736 | 342.0 | -1.40 | -11.01 | 1 | 24.2 | 22.4 | -93.0 | 17 | 73.9 |
| 2025-12-11T04:05:00 | -17.1193 | -34.9736 | 350.0 | 5.64 | -25.34 | 1 | 22.9 | 21.5 | -92.7 | 16 | 69.6 |
| 2025-12-11T04:05:00 | -17.1193 | -34.9736 | 358.0 | 26.17 | -27.15 | 1 | 22.9 | 21.6 | -92.0 | 13 | 56.5 |
| 2025-12-11T04:05:00 | -17.1193 | -34.9736 | 366.0 | 33.01 | -25.56 | 1 | 24.1 | 20.2 | -92.1 | 13 | 56.5 |
| 2025-12-11T04:05:00 | -17.1193 | -34.9736 | 374.0 | 2.83 | -51.69 | 1 | 22.5 | 18.9 | -92.1 | 12 | 52.2 |
| 2025-12-11T04:05:00 | -17.1193 | -34.9736 | 382.0 | 9.21 | -22.99 | 4 | 21.1 | 18.6 | -91.6 | 4 | 17.4 |
| 2025-12-11T04:05:00 | -17.1193 | -34.9736 | 390.0 | -17.94 | -33.31 | 4 | 19.8 | 14.8 | -93.0 | 2 | 8.7 |
| 2025-12-11T04:05:00 | -17.1193 | -34.9736 | 406.0 | 3.96 | -28.83 | 4 | 19.6 | 16.2 | -91.0 | 2 | 8.7 |
| 2025-12-11T04:05:00 | -17.1193 | -34.9736 | 422.0 | 62.69 | -4.32 | 4 | 19.2 | 19.4 | -88.2 | 1 | 4.4 |
| 2025-12-11T04:05:00 | -17.1193 | -34.9736 | 430.0 | 27.50 | -9.72 | 4 | 17.9 | 15.1 | -89.8 | 3 | 13.0 |
| 2025-12-11T04:05:00 | -17.1193 | -34.9736 | 438.0 | 4.42 | 2.10 | 1 | 17.6 | 14.7 | -89.4 | 7 | 30.4 |
| 2025-12-11T04:05:00 | -17.1193 | -34.9736 | 446.0 | -2.98 | -13.54 | 4 | 19.7 | 16.6 | -87.8 | 4 | 17.4 |
| 2025-12-11T04:05:00 | -17.1193 | -34.9736 | 454.0 | 35.01 | -60.20 | 4 | 20.4 | 17.3 | -86.9 | 5 | 21.7 |
| 2025-12-11T04:05:00 | -17.1193 | -34.9736 | 462.0 | -18.82 | -22.26 | 1 | 18.2 | 16.9 | -86.5 | 6 | 26.1 |
| 2025-12-11T04:05:00 | -17.1193 | -34.9736 | 470.0 | -35.49 | -12.48 | 4 | 20.6 | 15.8 | -86.5 | 3 | 13.0 |
| 2025-12-11T04:05:00 | -17.1193 | -34.9736 | 478.0 | -27.94 | -10.58 | 4 | 20.9 | 16.2 | -85.7 | 2 | 8.7 |
| 2025-12-11T04:05:00 | -17.1193 | -34.9736 | 486.0 | 24.28 | 35.88 | 4 | 22.4 | 17.5 | -84.5 | 4 | 17.4 |
| 2025-12-11T04:05:00 | -17.1193 | -34.9736 | 494.0 | 7.44 | -14.29 | 1 | 26.3 | 22.2 | -81.6 | 11 | 47.8 |
| 2025-12-11T04:05:00 | -17.1193 | -34.9736 | 502.0 | -3.38 | -2.14 | 1 | 25.9 | 22.4 | -81.0 | 14 | 60.9 |
| 2025-12-11T04:05:00 | -17.1193 | -34.9736 | 510.0 | -1.09 | -14.87 | 1 | 25.0 | 20.9 | -81.1 | 15 | 65.2 |
| 2025-12-11T04:05:00 | -17.1193 | -34.9736 | 518.0 | -4.58 | -5.85 | 1 | 25.3 | 21.4 | -80.4 | 12 | 52.2 |
| 2025-12-11T04:05:00 | -17.1193 | -34.9736 | 526.0 | -9.21 | -27.65 | 1 | 26.2 | 23.0 | -79.1 | 11 | 47.8 |
| 2025-12-11T04:05:00 | -17.1193 | -34.9736 | 534.0 | 8.14 | -9.96 | 1 | 25.3 | 22.4 | -78.8 | 13 | 56.5 |
| 2025-12-11T04:05:00 | -17.1193 | -34.9736 | 542.0 | -0.76 | -16.46 | 1 | 25.9 | 22.9 | -78.0 | 13 | 56.5 |
| 2025-12-11T04:05:00 | -17.1193 | -34.9736 | 550.0 | -10.35 | -28.49 | 1 | 23.0 | 20.9 | -78.5 | 11 | 47.8 |
| 2025-12-11T04:05:00 | -17.1193 | -34.9736 | 558.0 | -15.12 | -51.56 | 4 | 20.6 | 17.1 | -79.9 | 5 | 21.7 |
| 2025-12-11T04:05:00 | -17.1193 | -34.9736 | 566.0 | 27.89 | 14.07 | 4 | 20.5 | 16.6 | -79.6 | 4 | 17.4 |
| 2025-12-11T04:05:00 | -17.1193 | -34.9736 | 574.0 | -6.90 | -21.62 | 1 | 20.5 | 18.5 | -78.1 | 7 | 30.4 |
| 2025-12-11T04:05:00 | -17.1193 | -34.9736 | 582.0 | 41.30 | 38.31 | 4 | 19.1 | 15.2 | -79.4 | 2 | 8.7 |
| 2025-12-11T04:05:00 | -17.1193 | -34.9736 | 590.0 | 51.00 | -73.03 | 4 | 18.5 | 17.4 | -77.7 | 2 | 8.7 |
| 2025-12-11T04:05:00 | -17.1193 | -34.9736 | 598.0 | 7.28 | -29.61 | 4 | 17.5 | 13.8 | -79.2 | 1 | 4.4 |
| 2025-12-11T04:05:00 | -17.1193 | -34.9736 | 606.0 | 37.38 | -62.09 | 4 | 17.3 | 13.8 | -78.7 | 1 | 4.4 |
| 2025-12-11T04:05:00 | -17.1193 | -34.9736 | 622.0 | -26.39 | 11.85 | 4 | 15.7 | 16.8 | -76.0 | 1 | 4.4 |
| 2025-12-11T04:05:00 | -17.1193 | -34.9736 | 630.0 | -8.70 | -20.02 | 4 | 15.4 | 18.1 | -74.8 | 2 | 8.7 |
| 2025-12-11T04:05:00 | -17.1193 | -34.9736 | 654.0 | 56.38 | -44.54 | 4 | 16.1 | 14.2 | -75.5 | 1 | 4.4 |
| 2025-12-11T04:06:00 | -17.1160 | -34.9719 | 22.0 | 16.01 | -21.91 | 1 | 150.1 | 150.2 | -83.8 | 21 | 91.3 |
| 2025-12-11T04:06:00 | -17.1160 | -34.9719 | 30.0 | 1.73 | -33.42 | 1 | 146.8 | 146.8 | -80.9 | 22 | 95.6 |
| 2025-12-11T04:06:00 | -17.1160 | -34.9719 | 38.0 | -1.32 | -15.19 | 1 | 146.2 | 145.9 | -78.1 | 22 | 95.6 |
| 2025-12-11T04:06:00 | -17.1160 | -34.9719 | 46.0 | 1.84 | -11.27 | 1 | 136.9 | 135.5 | -80.0 | 19 | 82.6 |
| 2025-12-11T04:06:00 | -17.1160 | -34.9719 | 54.0 | -7.81 | -29.30 | 1 | 124.8 | 123.7 | -83.0 | 20 | 87.0 |
| 2025-12-11T04:06:00 | -17.1160 | -34.9719 | 62.0 | -3.55 | -27.84 | 1 | 117.5 | 116.8 | -84.1 | 20 | 87.0 |
| 2025-12-11T04:06:00 | -17.1160 | -34.9719 | 70.0 | -2.07 | -24.68 | 1 | 110.3 | 110.3 | -85.2 | 23 | 100.0 |
| 2025-12-11T04:06:00 | -17.1160 | -34.9719 | 78.0 | 1.41 | -18.33 | 1 | 104.8 | 104.4 | -86.3 | 22 | 95.6 |
| 2025-12-11T04:06:00 | -17.1160 | -34.9719 | 86.0 | 11.46 | -23.10 | 1 | 100.9 | 100.5 | -86.5 | 21 | 91.3 |
| 2025-12-11T04:06:00 | -17.1160 | -34.9719 | 94.0 | 7.67 | -28.64 | 1 | 94.9 | 94.9 | -87.6 | 21 | 91.3 |
| 2025-12-11T04:06:00 | -17.1160 | -34.9719 | 102.0 | 14.31 | -17.80 | 1 | 90.8 | 90.8 | -88.1 | 21 | 91.3 |
| 2025-12-11T04:06:00 | -17.1160 | -34.9719 | 110.0 | 3.30 | -24.57 | 1 | 87.1 | 87.1 | -88.5 | 23 | 100.0 |
| 2025-12-11T04:06:00 | -17.1160 | -34.9719 | 118.0 | -1.97 | -15.95 | 1 | 84.5 | 84.6 | -88.5 | 22 | 95.6 |
| 2025-12-11T04:06:00 | -17.1160 | -34.9719 | 126.0 | -10.12 | -29.62 | 1 | 81.8 | 80.8 | -89.0 | 20 | 87.0 |
| 2025-12-11T04:06:00 | -17.1160 | -34.9719 | 134.0 | 3.53 | -33.28 | 1 | 76.7 | 76.3 | -89.9 | 20 | 87.0 |
| 2025-12-11T04:06:00 | -17.1160 | -34.9719 | 142.0 | 16.28 | -22.05 | 1 | 77.2 | 76.8 | -88.7 | 20 | 87.0 |
| 2025-12-11T04:06:00 | -17.1160 | -34.9719 | 150.0 | 4.30 | -25.74 | 1 | 76.0 | 75.5 | -88.3 | 22 | 95.6 |
| 2025-12-11T04:06:00 | -17.1160 | -34.9719 | 158.0 | 5.34 | -16.04 | 1 | 74.3 | 74.5 | -87.8 | 21 | 91.3 |
| 2025-12-11T04:06:00 | -17.1160 | -34.9719 | 166.0 | -1.24 | -33.62 | 1 | 70.1 | 68.5 | -89.5 | 19 | 82.6 |
| 2025-12-11T04:06:00 | -17.1160 | -34.9719 | 174.0 | -1.95 | -29.14 | 1 | 67.7 | 67.3 | -89.1 | 20 | 87.0 |
| 2025-12-11T04:06:00 | -17.1160 | -34.9719 | 182.0 | 0.18 | -42.85 | 1 | 63.7 | 63.1 | -90.0 | 19 | 82.6 |
| 2025-12-11T04:06:00 | -17.1160 | -34.9719 | 190.0 | -0.07 | -42.33 | 1 | 61.4 | 61.0 | -90.0 | 22 | 95.6 |
| 2025-12-11T04:06:00 | -17.1160 | -34.9719 | 198.0 | -10.16 | -38.59 | 1 | 50.1 | 50.1 | -93.9 | 20 | 87.0 |
| 2025-12-11T04:06:00 | -17.1160 | -34.9719 | 206.0 | 4.57 | -21.74 | 1 | 49.9 | 48.5 | -93.7 | 21 | 91.3 |
| 2025-12-11T04:06:00 | -17.1160 | -34.9719 | 214.0 | 13.36 | -21.80 | 1 | 48.9 | 48.9 | -92.7 | 23 | 100.0 |
| 2025-12-11T04:06:00 | -17.1160 | -34.9719 | 222.0 | 13.40 | -17.52 | 1 | 51.0 | 51.0 | -91.0 | 22 | 95.6 |
| 2025-12-11T04:06:00 | -17.1160 | -34.9719 | 230.0 | 2.52 | -19.32 | 1 | 53.1 | 52.6 | -89.6 | 19 | 82.6 |
| 2025-12-11T04:06:00 | -17.1160 | -34.9719 | 238.0 | 10.69 | -15.91 | 1 | 49.8 | 48.9 | -90.4 | 21 | 91.3 |
| 2025-12-11T04:06:00 | -17.1160 | -34.9719 | 246.0 | 16.97 | -10.44 | 1 | 47.2 | 46.6 | -90.6 | 21 | 91.3 |
| 2025-12-11T04:06:00 | -17.1160 | -34.9719 | 254.0 | 15.52 | -8.88 | 1 | 46.1 | 44.8 | -90.6 | 20 | 87.0 |
| 2025-12-11T04:06:00 | -17.1160 | -34.9719 | 262.0 | 7.97 | 9.81 | 1 | 48.3 | 48.0 | -88.5 | 21 | 91.3 |
| 2025-12-11T04:06:00 | -17.1160 | -34.9719 | 270.0 | -1.62 | -11.58 | 1 | 51.4 | 49.7 | -87.0 | 20 | 87.0 |
| 2025-12-11T04:06:00 | -17.1160 | -34.9719 | 278.0 | -5.36 | -16.24 | 1 | 44.2 | 43.7 | -88.9 | 20 | 87.0 |
| 2025-12-11T04:06:00 | -17.1160 | -34.9719 | 286.0 | 13.16 | 9.48 | 1 | 47.1 | 45.9 | -87.2 | 19 | 82.6 |
| 2025-12-11T04:06:00 | -17.1160 | -34.9719 | 294.0 | 1.73 | -2.97 | 1 | 44.3 | 42.0 | -88.2 | 17 | 73.9 |
| 2025-12-11T04:06:00 | -17.1160 | -34.9719 | 302.0 | 1.87 | -22.25 | 1 | 32.7 | 31.5 | -92.1 | 18 | 78.3 |
| 2025-12-11T04:06:00 | -17.1160 | -34.9719 | 310.0 | -2.39 | -21.03 | 1 | 27.6 | 24.8 | -94.5 | 16 | 69.6 |
| 2025-12-11T04:06:00 | -17.1160 | -34.9719 | 318.0 | 9.22 | -3.59 | 1 | 25.4 | 22.4 | -94.9 | 14 | 60.9 |
| 2025-12-11T04:06:00 | -17.1160 | -34.9719 | 326.0 | 8.97 | -22.71 | 1 | 25.4 | 22.6 | -94.2 | 18 | 78.3 |
| 2025-12-11T04:06:00 | -17.1160 | -34.9719 | 334.0 | -11.88 | -2.94 | 1 | 26.2 | 23.1 | -93.2 | 14 | 60.9 |
| 2025-12-11T04:06:00 | -17.1160 | -34.9719 | 342.0 | -0.51 | -8.07 | 1 | 25.3 | 21.7 | -93.2 | 14 | 60.9 |
| 2025-12-11T04:06:00 | -17.1160 | -34.9719 | 350.0 | 1.83 | -26.53 | 1 | 24.1 | 20.8 | -93.0 | 10 | 43.5 |
| 2025-12-11T04:06:00 | -17.1160 | -34.9719 | 358.0 | 21.52 | -19.01 | 1 | 22.2 | 20.9 | -92.4 | 10 | 43.5 |
| 2025-12-11T04:06:00 | -17.1160 | -34.9719 | 366.0 | -6.82 | -22.00 | 1 | 23.0 | 22.4 | -91.0 | 13 | 56.5 |
| 2025-12-11T04:06:00 | -17.1160 | -34.9719 | 374.0 | -0.36 | -10.24 | 1 | 21.2 | 20.4 | -91.4 | 17 | 73.9 |
| 2025-12-11T04:06:00 | -17.1160 | -34.9719 | 382.0 | 27.91 | -25.36 | 1 | 18.9 | 18.8 | -91.5 | 10 | 43.5 |
| 2025-12-11T04:06:00 | -17.1160 | -34.9719 | 390.0 | 2.42 | -42.70 | 4 | 17.4 | 17.8 | -91.4 | 3 | 13.0 |
| 2025-12-11T04:06:00 | -17.1160 | -34.9719 | 398.0 | 62.51 | -34.36 | 4 | 17.0 | 17.5 | -90.9 | 2 | 8.7 |
| 2025-12-11T04:06:00 | -17.1160 | -34.9719 | 406.0 | -45.88 | -47.63 | 4 | 17.1 | 15.5 | -91.4 | 1 | 4.4 |
| 2025-12-11T04:06:00 | -17.1160 | -34.9719 | 414.0 | 1.59 | -2.14 | 4 | 17.0 | 17.2 | -89.8 | 2 | 8.7 |
| 2025-12-11T04:06:00 | -17.1160 | -34.9719 | 422.0 | 9 | 16.6 | 19.8 | -88.0 | 0 | 0.0 | ||
| 2025-12-11T04:06:00 | -17.1160 | -34.9719 | 438.0 | 16.09 | -11.83 | 4 | 16.9 | 18.8 | -87.2 | 3 | 13.0 |
| 2025-12-11T04:06:00 | -17.1160 | -34.9719 | 446.0 | -15.25 | -28.31 | 4 | 17.7 | 18.1 | -87.0 | 5 | 21.7 |
| 2025-12-11T04:06:00 | -17.1160 | -34.9719 | 454.0 | 3.71 | -9.64 | 4 | 18.8 | 15.9 | -87.6 | 5 | 21.7 |
| 2025-12-11T04:06:00 | -17.1160 | -34.9719 | 462.0 | -7.24 | -5.01 | 1 | 19.4 | 18.5 | -85.7 | 9 | 39.1 |
| 2025-12-11T04:06:00 | -17.1160 | -34.9719 | 470.0 | 27.31 | -8.04 | 4 | 18.1 | 18.1 | -85.3 | 4 | 17.4 |
| 2025-12-11T04:06:00 | -17.1160 | -34.9719 | 478.0 | -14.94 | 35.30 | 4 | 17.3 | 15.3 | -86.2 | 2 | 8.7 |
| 2025-12-11T04:06:00 | -17.1160 | -34.9719 | 486.0 | 13.25 | -4.63 | 1 | 18.2 | 17.7 | -84.4 | 10 | 43.5 |
| 2025-12-11T04:06:00 | -17.1160 | -34.9719 | 494.0 | 9.61 | -8.67 | 1 | 21.2 | 21.4 | -82.0 | 15 | 65.2 |
| 2025-12-11T04:06:00 | -17.1160 | -34.9719 | 502.0 | 5.44 | -2.73 | 1 | 22.2 | 22.5 | -80.9 | 20 | 87.0 |
| 2025-12-11T04:06:00 | -17.1160 | -34.9719 | 510.0 | 12.44 | -14.56 | 1 | 22.5 | 22.8 | -80.2 | 16 | 69.6 |
| 2025-12-11T04:06:00 | -17.1160 | -34.9719 | 518.0 | 4.53 | -25.04 | 1 | 22.9 | 22.7 | -79.8 | 19 | 82.6 |
| 2025-12-11T04:06:00 | -17.1160 | -34.9719 | 526.0 | -10.20 | 1.52 | 1 | 23.1 | 23.1 | -79.0 | 15 | 65.2 |
| 2025-12-11T04:06:00 | -17.1160 | -34.9719 | 534.0 | 2.48 | -3.01 | 1 | 22.9 | 23.3 | -78.4 | 15 | 65.2 |
| 2025-12-11T04:06:00 | -17.1160 | -34.9719 | 542.0 | 6.81 | -15.38 | 1 | 22.0 | 21.3 | -78.8 | 13 | 56.5 |
| 2025-12-11T04:06:00 | -17.1160 | -34.9719 | 550.0 | -6.56 | -40.49 | 1 | 20.2 | 20.9 | -78.5 | 14 | 60.9 |
| 2025-12-11T04:06:00 | -17.1160 | -34.9719 | 558.0 | 9.90 | -50.73 | 1 | 18.5 | 17.7 | -79.6 | 8 | 34.8 |
| 2025-12-11T04:06:00 | -17.1160 | -34.9719 | 566.0 | 1.72 | -17.11 | 1 | 17.9 | 17.4 | -79.2 | 9 | 39.1 |
| 2025-12-11T04:06:00 | -17.1160 | -34.9719 | 574.0 | 4.03 | -11.65 | 4 | 19.1 | 17.5 | -78.6 | 5 | 21.7 |
| 2025-12-11T04:06:00 | -17.1160 | -34.9719 | 582.0 | 21.22 | -44.93 | 4 | 20.1 | 17.6 | -78.1 | 4 | 17.4 |
| 2025-12-11T04:06:00 | -17.1160 | -34.9719 | 590.0 | 26.65 | -49.44 | 4 | 19.5 | 16.2 | -78.3 | 1 | 4.4 |
| 2025-12-11T04:06:00 | -17.1160 | -34.9719 | 598.0 | 32.90 | 3.47 | 4 | 18.2 | 14.8 | -78.6 | 2 | 8.7 |
| 2025-12-11T04:06:00 | -17.1160 | -34.9719 | 678.0 | 9 | 16.3 | 14.2 | -74.0 | 0 | 0.0 | ||
| 2025-12-11T04:06:00 | -17.1160 | -34.9719 | 758.0 | 68.14 | -27.76 | 4 | 23.8 | 23.5 | -64.7 | 1 | 4.4 |
| 2025-12-11T04:06:00 | -17.1160 | -34.9719 | 782.0 | 109.39 | -56.65 | 4 | 19.0 | 17.0 | -66.6 | 1 | 4.4 |
| 2025-12-11T04:06:00 | -17.1160 | -34.9719 | 798.0 | 9 | 20.9 | 17.2 | -65.6 | 0 | 0.0 | ||
| 2025-12-11T04:07:00 | -17.1128 | -34.9700 | 22.0 | 15.36 | -19.00 | 1 | 149.6 | 149.6 | -84.1 | 23 | 100.0 |
| 2025-12-11T04:07:00 | -17.1128 | -34.9700 | 30.0 | 4.04 | -23.90 | 1 | 144.0 | 144.0 | -82.1 | 22 | 95.6 |
| 2025-12-11T04:07:00 | -17.1128 | -34.9700 | 38.0 | -2.16 | -24.41 | 1 | 140.3 | 140.3 | -80.5 | 21 | 91.3 |
| 2025-12-11T04:07:00 | -17.1128 | -34.9700 | 46.0 | 13.84 | -39.12 | 1 | 131.9 | 131.9 | -81.6 | 22 | 95.6 |
| 2025-12-11T04:07:00 | -17.1128 | -34.9700 | 54.0 | 6.99 | -24.34 | 1 | 123.2 | 123.2 | -83.2 | 21 | 91.3 |
| 2025-12-11T04:07:00 | -17.1128 | -34.9700 | 62.0 | 11.71 | -12.94 | 1 | 112.4 | 112.4 | -86.0 | 22 | 95.6 |
| 2025-12-11T04:07:00 | -17.1128 | -34.9700 | 70.0 | 5.19 | -29.50 | 1 | 109.1 | 108.7 | -85.9 | 21 | 91.3 |
| 2025-12-11T04:07:00 | -17.1128 | -34.9700 | 78.0 | 3.68 | -7.54 | 1 | 104.5 | 104.5 | -86.2 | 22 | 95.6 |
| 2025-12-11T04:07:00 | -17.1128 | -34.9700 | 86.0 | 1.30 | -17.45 | 1 | 101.8 | 101.2 | -86.2 | 20 | 87.0 |
| 2025-12-11T04:07:00 | -17.1128 | -34.9700 | 94.0 | 9.13 | -15.91 | 1 | 96.6 | 96.6 | -86.9 | 21 | 91.3 |
| 2025-12-11T04:07:00 | -17.1128 | -34.9700 | 102.0 | 12.28 | -12.39 | 1 | 92.0 | 91.0 | -88.0 | 20 | 87.0 |
| 2025-12-11T04:07:00 | -17.1128 | -34.9700 | 110.0 | -0.13 | -21.59 | 1 | 88.3 | 88.3 | -88.0 | 21 | 91.3 |
| 2025-12-11T04:07:00 | -17.1128 | -34.9700 | 118.0 | 5.48 | -21.84 | 1 | 84.0 | 83.6 | -88.9 | 22 | 95.6 |
| 2025-12-11T04:07:00 | -17.1128 | -34.9700 | 126.0 | 1.82 | -21.88 | 1 | 80.6 | 80.6 | -89.1 | 23 | 100.0 |
| 2025-12-11T04:07:00 | -17.1128 | -34.9700 | 134.0 | 16.85 | -3.73 | 1 | 77.8 | 77.8 | -89.3 | 23 | 100.0 |
| 2025-12-11T04:07:00 | -17.1128 | -34.9700 | 142.0 | -4.96 | -15.67 | 1 | 76.8 | 77.2 | -88.5 | 20 | 87.0 |
| 2025-12-11T04:07:00 | -17.1128 | -34.9700 | 150.0 | 5.76 | -16.16 | 1 | 77.3 | 77.3 | -87.6 | 22 | 95.6 |
| 2025-12-11T04:07:00 | -17.1128 | -34.9700 | 158.0 | 4.75 | -30.99 | 1 | 74.6 | 74.6 | -87.8 | 23 | 100.0 |
| 2025-12-11T04:07:00 | -17.1128 | -34.9700 | 166.0 | 5.74 | -13.59 | 1 | 70.4 | 70.4 | -88.6 | 22 | 95.6 |
| 2025-12-11T04:07:00 | -17.1128 | -34.9700 | 174.0 | -0.02 | -33.29 | 1 | 67.9 | 67.9 | -88.8 | 21 | 91.3 |
| 2025-12-11T04:07:00 | -17.1128 | -34.9700 | 182.0 | 13.30 | -21.82 | 1 | 62.3 | 61.5 | -90.7 | 21 | 91.3 |
| 2025-12-11T04:07:00 | -17.1128 | -34.9700 | 190.0 | 7.29 | -21.56 | 1 | 58.9 | 57.6 | -91.5 | 17 | 73.9 |
| 2025-12-11T04:07:00 | -17.1128 | -34.9700 | 198.0 | -4.58 | -25.71 | 1 | 51.9 | 50.9 | -93.5 | 21 | 91.3 |
| 2025-12-11T04:07:00 | -17.1128 | -34.9700 | 206.0 | 5.90 | -22.70 | 1 | 48.4 | 48.4 | -93.7 | 22 | 95.6 |
| 2025-12-11T04:07:00 | -17.1128 | -34.9700 | 214.0 | -6.35 | -20.12 | 1 | 47.4 | 47.4 | -93.4 | 22 | 95.6 |
| 2025-12-11T04:07:00 | -17.1128 | -34.9700 | 222.0 | 10.53 | -26.53 | 1 | 50.5 | 50.5 | -91.2 | 23 | 100.0 |
| 2025-12-11T04:07:00 | -17.1128 | -34.9700 | 230.0 | 10.16 | -29.27 | 1 | 54.7 | 54.2 | -88.9 | 20 | 87.0 |
| 2025-12-11T04:07:00 | -17.1128 | -34.9700 | 238.0 | -1.31 | -12.07 | 1 | 50.6 | 50.1 | -89.8 | 22 | 95.6 |
| 2025-12-11T04:07:00 | -17.1128 | -34.9700 | 246.0 | -2.53 | -21.38 | 1 | 48.1 | 47.6 | -90.2 | 22 | 95.6 |
| 2025-12-11T04:07:00 | -17.1128 | -34.9700 | 254.0 | 5.83 | -7.20 | 1 | 48.1 | 47.6 | -89.4 | 21 | 91.3 |
| 2025-12-11T04:07:00 | -17.1128 | -34.9700 | 262.0 | 0.98 | -12.34 | 1 | 51.9 | 51.9 | -86.8 | 22 | 95.6 |
| 2025-12-11T04:07:00 | -17.1128 | -34.9700 | 270.0 | 6.13 | -4.99 | 1 | 51.3 | 51.0 | -86.5 | 19 | 82.6 |
| 2025-12-11T04:07:00 | -17.1128 | -34.9700 | 278.0 | 7.89 | -13.10 | 1 | 42.4 | 42.4 | -89.5 | 21 | 91.3 |
| 2025-12-11T04:07:00 | -17.1128 | -34.9700 | 286.0 | -4.35 | -5.46 | 1 | 44.5 | 44.5 | -87.8 | 22 | 95.6 |
| 2025-12-11T04:07:00 | -17.1128 | -34.9700 | 294.0 | 1.91 | -20.75 | 1 | 38.6 | 38.6 | -89.7 | 23 | 100.0 |
| 2025-12-11T04:07:00 | -17.1128 | -34.9700 | 302.0 | 9.64 | -14.63 | 1 | 27.3 | 27.3 | -94.0 | 18 | 78.3 |
| 2025-12-11T04:07:00 | -17.1128 | -34.9700 | 310.0 | -16.19 | -27.01 | 1 | 23.4 | 23.2 | -95.2 | 17 | 73.9 |
| 2025-12-11T04:07:00 | -17.1128 | -34.9700 | 318.0 | -2.61 | -14.85 | 1 | 22.3 | 21.6 | -95.3 | 19 | 82.6 |
| 2025-12-11T04:07:00 | -17.1128 | -34.9700 | 326.0 | 5.47 | -13.71 | 1 | 22.3 | 22.1 | -94.4 | 18 | 78.3 |
| 2025-12-11T04:07:00 | -17.1128 | -34.9700 | 334.0 | 4.57 | -16.20 | 1 | 23.0 | 22.1 | -93.7 | 17 | 73.9 |
| 2025-12-11T04:07:00 | -17.1128 | -34.9700 | 342.0 | -12.24 | -18.05 | 1 | 20.9 | 20.5 | -93.8 | 16 | 69.6 |
| 2025-12-11T04:07:00 | -17.1128 | -34.9700 | 350.0 | 3.92 | -8.65 | 1 | 20.9 | 20.5 | -93.2 | 11 | 47.8 |
| 2025-12-11T04:07:00 | -17.1128 | -34.9700 | 358.0 | -14.62 | -13.65 | 1 | 21.6 | 21.3 | -92.2 | 11 | 47.8 |
| 2025-12-11T04:07:00 | -17.1128 | -34.9700 | 366.0 | -12.76 | -7.42 | 1 | 23.0 | 20.9 | -91.7 | 15 | 65.2 |
| 2025-12-11T04:07:00 | -17.1128 | -34.9700 | 374.0 | 7.27 | -10.68 | 1 | 22.8 | 20.4 | -91.4 | 11 | 47.8 |
| 2025-12-11T04:07:00 | -17.1128 | -34.9700 | 382.0 | -9.86 | -23.13 | 1 | 20.5 | 16.6 | -92.6 | 7 | 30.4 |
| 2025-12-11T04:07:00 | -17.1128 | -34.9700 | 390.0 | -23.55 | -36.58 | 4 | 19.6 | 17.7 | -91.5 | 3 | 13.0 |
| 2025-12-11T04:07:00 | -17.1128 | -34.9700 | 398.0 | 35.44 | -45.42 | 4 | 18.3 | 13.1 | -93.3 | 1 | 4.4 |
| 2025-12-11T04:07:00 | -17.1128 | -34.9700 | 406.0 | 122.70 | -17.93 | 4 | 18.0 | 13.9 | -92.3 | 1 | 4.4 |
| 2025-12-11T04:07:00 | -17.1128 | -34.9700 | 414.0 | 9 | 19.2 | 16.2 | -90.4 | 0 | 0.0 | ||
| 2025-12-11T04:07:00 | -17.1128 | -34.9700 | 422.0 | 45.55 | -72.14 | 4 | 18.7 | 19.5 | -88.1 | 1 | 4.4 |
| 2025-12-11T04:07:00 | -17.1128 | -34.9700 | 430.0 | 0.84 | -49.10 | 4 | 19.3 | 17.3 | -88.6 | 5 | 21.7 |
| 2025-12-11T04:07:00 | -17.1128 | -34.9700 | 438.0 | -42.40 | -40.66 | 4 | 18.9 | 15.5 | -89.0 | 1 | 4.4 |
| 2025-12-11T04:07:00 | -17.1128 | -34.9700 | 446.0 | 18.07 | 50.15 | 4 | 17.7 | 13.8 | -89.4 | 1 | 4.4 |
| 2025-12-11T04:07:00 | -17.1128 | -34.9700 | 454.0 | 12.22 | -2.80 | 1 | 17.9 | 15.8 | -87.7 | 7 | 30.4 |
| 2025-12-11T04:07:00 | -17.1128 | -34.9700 | 462.0 | -22.06 | -9.94 | 1 | 18.5 | 17.2 | -86.3 | 6 | 26.1 |
| 2025-12-11T04:07:00 | -17.1128 | -34.9700 | 470.0 | -5.61 | 8.84 | 4 | 18.4 | 16.0 | -86.4 | 4 | 17.4 |
| 2025-12-11T04:07:00 | -17.1128 | -34.9700 | 478.0 | 11.18 | -1.53 | 1 | 18.0 | 16.4 | -85.6 | 8 | 34.8 |
| 2025-12-11T04:07:00 | -17.1128 | -34.9700 | 486.0 | 20.88 | -11.54 | 1 | 18.6 | 18.8 | -83.8 | 9 | 39.1 |
| 2025-12-11T04:07:00 | -17.1128 | -34.9700 | 494.0 | 12.35 | -10.25 | 1 | 21.6 | 20.5 | -82.5 | 18 | 78.3 |
| 2025-12-11T04:07:00 | -17.1128 | -34.9700 | 502.0 | 7.23 | -19.69 | 1 | 22.3 | 23.2 | -80.6 | 17 | 73.9 |
| 2025-12-11T04:07:00 | -17.1128 | -34.9700 | 510.0 | -5.00 | -18.07 | 1 | 22.6 | 22.6 | -80.3 | 17 | 73.9 |
| 2025-12-11T04:07:00 | -17.1128 | -34.9700 | 518.0 | 1.10 | -17.10 | 1 | 22.7 | 22.5 | -79.8 | 16 | 69.6 |
| 2025-12-11T04:07:00 | -17.1128 | -34.9700 | 526.0 | 5.50 | -9.02 | 1 | 23.5 | 23.7 | -78.7 | 18 | 78.3 |
| 2025-12-11T04:07:00 | -17.1128 | -34.9700 | 534.0 | -6.35 | -7.56 | 1 | 24.6 | 25.1 | -77.6 | 19 | 82.6 |
| 2025-12-11T04:07:00 | -17.1128 | -34.9700 | 542.0 | -8.95 | -20.83 | 1 | 23.5 | 23.7 | -77.7 | 16 | 69.6 |
| 2025-12-11T04:07:00 | -17.1128 | -34.9700 | 550.0 | -2.97 | -56.37 | 1 | 20.3 | 20.9 | -78.5 | 9 | 39.1 |
| 2025-12-11T04:07:00 | -17.1128 | -34.9700 | 558.0 | 15.88 | -38.12 | 1 | 18.1 | 18.3 | -79.3 | 6 | 26.1 |
| 2025-12-11T04:07:00 | -17.1128 | -34.9700 | 566.0 | -0.83 | -37.28 | 4 | 17.3 | 18.6 | -78.6 | 4 | 17.4 |
| 2025-12-11T04:07:00 | -17.1128 | -34.9700 | 574.0 | 8.11 | -28.98 | 1 | 16.6 | 16.2 | -79.3 | 10 | 43.5 |
| 2025-12-11T04:07:00 | -17.1128 | -34.9700 | 582.0 | 2.43 | -23.24 | 1 | 16.7 | 16.1 | -78.9 | 6 | 26.1 |
| 2025-12-11T04:07:00 | -17.1128 | -34.9700 | 590.0 | -27.01 | -19.26 | 4 | 17.3 | 15.6 | -78.7 | 2 | 8.7 |
| 2025-12-11T04:07:00 | -17.1128 | -34.9700 | 598.0 | 23.65 | -33.76 | 4 | 16.8 | 14.4 | -78.8 | 3 | 13.0 |
| 2025-12-11T04:07:00 | -17.1128 | -34.9700 | 614.0 | 31.41 | -153.62 | 4 | 16.6 | 18.0 | -75.9 | 1 | 4.4 |
| 2025-12-11T04:08:00 | -17.1097 | -34.9683 | 22.0 | 5.52 | -39.35 | 1 | 150.7 | 151.2 | -83.4 | 19 | 86.4 |
| 2025-12-11T04:08:00 | -17.1097 | -34.9683 | 30.0 | -1.08 | -42.93 | 1 | 144.2 | 144.2 | -82.0 | 22 | 100.0 |
| 2025-12-11T04:08:00 | -17.1097 | -34.9683 | 38.0 | 4.91 | -29.05 | 1 | 142.3 | 142.3 | -79.7 | 21 | 95.5 |
| 2025-12-11T04:08:00 | -17.1097 | -34.9683 | 46.0 | 18.63 | -18.19 | 1 | 132.4 | 132.2 | -81.5 | 20 | 90.9 |
| 2025-12-11T04:08:00 | -17.1097 | -34.9683 | 54.0 | 6.03 | -25.92 | 1 | 122.8 | 122.5 | -83.5 | 21 | 95.5 |
| 2025-12-11T04:08:00 | -17.1097 | -34.9683 | 62.0 | 4.03 | -29.06 | 1 | 117.2 | 117.2 | -83.9 | 22 | 100.0 |
| 2025-12-11T04:08:00 | -17.1097 | -34.9683 | 70.0 | -13.98 | -22.98 | 1 | 109.4 | 109.4 | -85.6 | 20 | 90.9 |
| 2025-12-11T04:08:00 | -17.1097 | -34.9683 | 78.0 | -0.84 | -27.34 | 1 | 105.0 | 105.0 | -86.0 | 20 | 90.9 |
| 2025-12-11T04:08:00 | -17.1097 | -34.9683 | 86.0 | -4.32 | -27.77 | 1 | 101.0 | 101.3 | -86.2 | 21 | 95.5 |
| 2025-12-11T04:08:00 | -17.1097 | -34.9683 | 94.0 | 9.17 | -25.26 | 1 | 95.2 | 95.2 | -87.5 | 22 | 100.0 |
| 2025-12-11T04:08:00 | -17.1097 | -34.9683 | 102.0 | -16.28 | -21.92 | 1 | 91.0 | 91.0 | -88.0 | 21 | 95.5 |
| 2025-12-11T04:08:00 | -17.1097 | -34.9683 | 110.0 | -6.48 | -37.63 | 1 | 87.5 | 87.6 | -88.3 | 19 | 86.4 |
| 2025-12-11T04:08:00 | -17.1097 | -34.9683 | 118.0 | -2.53 | -36.30 | 1 | 84.2 | 83.7 | -88.9 | 19 | 86.4 |
| 2025-12-11T04:08:00 | -17.1097 | -34.9683 | 126.0 | -1.79 | -23.42 | 1 | 81.0 | 81.0 | -89.0 | 21 | 95.5 |
| 2025-12-11T04:08:00 | -17.1097 | -34.9683 | 134.0 | -5.47 | -19.74 | 1 | 78.4 | 78.4 | -89.0 | 21 | 95.5 |
| 2025-12-11T04:08:00 | -17.1097 | -34.9683 | 142.0 | 3.81 | -24.10 | 1 | 79.5 | 79.5 | -87.6 | 22 | 100.0 |
| 2025-12-11T04:08:00 | -17.1097 | -34.9683 | 150.0 | 0.74 | -30.33 | 1 | 77.2 | 77.2 | -87.6 | 22 | 100.0 |
| 2025-12-11T04:08:00 | -17.1097 | -34.9683 | 158.0 | -9.23 | -16.41 | 1 | 72.4 | 72.4 | -88.7 | 21 | 95.5 |
| 2025-12-11T04:08:00 | -17.1097 | -34.9683 | 166.0 | -6.68 | -18.80 | 1 | 68.6 | 68.3 | -89.5 | 20 | 90.9 |
| 2025-12-11T04:08:00 | -17.1097 | -34.9683 | 174.0 | 6.45 | -28.17 | 1 | 67.2 | 67.3 | -89.1 | 20 | 90.9 |
| 2025-12-11T04:08:00 | -17.1097 | -34.9683 | 182.0 | 27.97 | -26.91 | 1 | 63.9 | 63.5 | -89.8 | 21 | 95.5 |
| 2025-12-11T04:08:00 | -17.1097 | -34.9683 | 190.0 | 12.54 | -29.52 | 1 | 64.8 | 64.8 | -88.4 | 21 | 95.5 |
| 2025-12-11T04:08:00 | -17.1097 | -34.9683 | 198.0 | -5.36 | -24.33 | 1 | 55.7 | 55.8 | -91.4 | 19 | 86.4 |
| 2025-12-11T04:08:00 | -17.1097 | -34.9683 | 206.0 | -13.40 | -10.53 | 1 | 52.8 | 52.4 | -92.0 | 20 | 90.9 |
| 2025-12-11T04:08:00 | -17.1097 | -34.9683 | 214.0 | 0.31 | -33.95 | 1 | 50.4 | 49.6 | -92.4 | 19 | 86.4 |
| 2025-12-11T04:08:00 | -17.1097 | -34.9683 | 222.0 | 16.31 | -4.00 | 1 | 51.3 | 50.5 | -91.3 | 20 | 90.9 |
| 2025-12-11T04:08:00 | -17.1097 | -34.9683 | 230.0 | 4.16 | -32.50 | 1 | 56.6 | 55.9 | -88.2 | 18 | 81.8 |
| 2025-12-11T04:08:00 | -17.1097 | -34.9683 | 238.0 | -7.08 | -13.83 | 1 | 52.4 | 52.4 | -88.9 | 21 | 95.5 |
| 2025-12-11T04:08:00 | -17.1097 | -34.9683 | 246.0 | 7.82 | -22.43 | 1 | 50.7 | 50.7 | -88.8 | 21 | 95.5 |
| 2025-12-11T04:08:00 | -17.1097 | -34.9683 | 254.0 | -1.42 | 7.84 | 1 | 54.6 | 52.5 | -87.3 | 15 | 68.2 |
| 2025-12-11T04:08:00 | -17.1097 | -34.9683 | 262.0 | -2.55 | -9.74 | 1 | 58.8 | 56.2 | -85.0 | 14 | 63.6 |
| 2025-12-11T04:08:00 | -17.1097 | -34.9683 | 270.0 | 4.71 | -14.07 | 1 | 51.3 | 50.3 | -86.8 | 19 | 86.4 |
| 2025-12-11T04:08:00 | -17.1097 | -34.9683 | 278.0 | -9.67 | -6.16 | 1 | 43.1 | 42.8 | -89.3 | 21 | 95.5 |
| 2025-12-11T04:08:00 | -17.1097 | -34.9683 | 286.0 | -10.55 | 3.63 | 1 | 44.8 | 44.6 | -87.8 | 21 | 95.5 |
| 2025-12-11T04:08:00 | -17.1097 | -34.9683 | 294.0 | 10.27 | -21.25 | 1 | 37.8 | 37.5 | -90.2 | 20 | 90.9 |
| 2025-12-11T04:08:00 | -17.1097 | -34.9683 | 302.0 | 4.64 | -17.12 | 1 | 28.3 | 27.5 | -93.9 | 21 | 95.5 |
| 2025-12-11T04:08:00 | -17.1097 | -34.9683 | 310.0 | -3.02 | -5.04 | 1 | 24.3 | 23.0 | -95.3 | 19 | 86.4 |
| 2025-12-11T04:08:00 | -17.1097 | -34.9683 | 318.0 | 0.90 | -22.64 | 1 | 23.1 | 22.3 | -95.0 | 16 | 72.7 |
| 2025-12-11T04:08:00 | -17.1097 | -34.9683 | 326.0 | -6.72 | -22.05 | 1 | 22.6 | 22.7 | -94.1 | 13 | 59.1 |
| 2025-12-11T04:08:00 | -17.1097 | -34.9683 | 334.0 | -0.74 | -15.96 | 1 | 22.7 | 22.7 | -93.4 | 18 | 81.8 |
| 2025-12-11T04:08:00 | -17.1097 | -34.9683 | 342.0 | 1.50 | -6.22 | 1 | 21.7 | 21.1 | -93.5 | 19 | 86.4 |
| 2025-12-11T04:08:00 | -17.1097 | -34.9683 | 350.0 | -8.93 | -22.99 | 1 | 20.6 | 20.3 | -93.3 | 13 | 59.1 |
| 2025-12-11T04:08:00 | -17.1097 | -34.9683 | 358.0 | 4.22 | -10.16 | 1 | 20.6 | 20.3 | -92.7 | 10 | 45.5 |
| 2025-12-11T04:08:00 | -17.1097 | -34.9683 | 366.0 | -29.06 | -27.83 | 1 | 21.8 | 22.5 | -91.0 | 10 | 45.5 |
| 2025-12-11T04:08:00 | -17.1097 | -34.9683 | 374.0 | -19.72 | -30.87 | 1 | 19.1 | 18.4 | -92.4 | 11 | 50.0 |
| 2025-12-11T04:08:00 | -17.1097 | -34.9683 | 382.0 | -16.46 | -13.53 | 1 | 18.1 | 17.3 | -92.3 | 9 | 40.9 |
| 2025-12-11T04:08:00 | -17.1097 | -34.9683 | 390.0 | -35.69 | -14.31 | 4 | 16.3 | 15.8 | -92.4 | 3 | 13.6 |
| 2025-12-11T04:08:00 | -17.1097 | -34.9683 | 398.0 | -7.17 | -57.97 | 4 | 17.4 | 13.0 | -93.4 | 2 | 9.1 |
| 2025-12-11T04:08:00 | -17.1097 | -34.9683 | 406.0 | -34.18 | -66.10 | 4 | 17.1 | 13.8 | -92.4 | 1 | 4.5 |
| 2025-12-11T04:08:00 | -17.1097 | -34.9683 | 422.0 | 6.59 | 4.90 | 4 | 15.9 | 13.8 | -91.2 | 3 | 13.6 |
| 2025-12-11T04:08:00 | -17.1097 | -34.9683 | 430.0 | -14.69 | -35.37 | 4 | 16.6 | 16.1 | -89.2 | 4 | 18.2 |
| 2025-12-11T04:08:00 | -17.1097 | -34.9683 | 438.0 | -6.16 | -20.32 | 4 | 17.1 | 16.6 | -88.4 | 4 | 18.2 |
| 2025-12-11T04:08:00 | -17.1097 | -34.9683 | 446.0 | 46.17 | -70.06 | 4 | 16.9 | 18.6 | -86.8 | 1 | 4.5 |
| 2025-12-11T04:08:00 | -17.1097 | -34.9683 | 454.0 | -17.19 | 1.87 | 1 | 18.2 | 17.7 | -86.7 | 6 | 27.3 |
| 2025-12-11T04:08:00 | -17.1097 | -34.9683 | 462.0 | -4.19 | -14.53 | 4 | 17.4 | 16.8 | -86.6 | 5 | 22.7 |
| 2025-12-11T04:08:00 | -17.1097 | -34.9683 | 478.0 | 9.28 | -58.04 | 4 | 17.1 | 13.2 | -87.4 | 2 | 9.1 |
| 2025-12-11T04:08:00 | -17.1097 | -34.9683 | 486.0 | -10.35 | -8.47 | 1 | 17.9 | 17.0 | -84.8 | 10 | 45.5 |
| 2025-12-11T04:08:00 | -17.1097 | -34.9683 | 494.0 | 4.83 | 13.36 | 1 | 20.3 | 18.5 | -83.5 | 16 | 72.7 |
| 2025-12-11T04:08:00 | -17.1097 | -34.9683 | 502.0 | 7.03 | -6.34 | 1 | 23.1 | 22.7 | -80.8 | 18 | 81.8 |
| 2025-12-11T04:08:00 | -17.1097 | -34.9683 | 510.0 | -9.47 | -7.51 | 1 | 23.9 | 23.2 | -80.0 | 15 | 68.2 |
| 2025-12-11T04:08:00 | -17.1097 | -34.9683 | 518.0 | -9.38 | -3.71 | 1 | 24.1 | 23.0 | -79.6 | 17 | 77.3 |
| 2025-12-11T04:08:00 | -17.1097 | -34.9683 | 526.0 | -10.27 | -12.15 | 1 | 23.5 | 23.7 | -78.7 | 18 | 81.8 |
| 2025-12-11T04:08:00 | -17.1097 | -34.9683 | 534.0 | 11.36 | -19.12 | 1 | 23.8 | 23.1 | -78.5 | 20 | 90.9 |
| 2025-12-11T04:08:00 | -17.1097 | -34.9683 | 542.0 | 0.89 | -10.44 | 1 | 22.8 | 21.6 | -78.7 | 17 | 77.3 |
| 2025-12-11T04:08:00 | -17.1097 | -34.9683 | 550.0 | 5.19 | -25.47 | 1 | 20.8 | 19.8 | -79.0 | 17 | 77.3 |
| 2025-12-11T04:08:00 | -17.1097 | -34.9683 | 558.0 | 15.17 | -17.13 | 1 | 19.9 | 19.0 | -78.9 | 7 | 31.8 |
| 2025-12-11T04:08:00 | -17.1097 | -34.9683 | 566.0 | 1.10 | -5.39 | 4 | 19.2 | 17.0 | -79.4 | 5 | 22.7 |
| 2025-12-11T04:08:00 | -17.1097 | -34.9683 | 574.0 | 5.67 | -32.25 | 4 | 21.1 | 18.1 | -78.4 | 5 | 22.7 |
| 2025-12-11T04:08:00 | -17.1097 | -34.9683 | 582.0 | 37.79 | -35.28 | 1 | 19.8 | 15.6 | -79.2 | 6 | 27.3 |
| 2025-12-11T04:08:00 | -17.1097 | -34.9683 | 590.0 | -8.47 | -57.86 | 4 | 19.3 | 15.8 | -78.6 | 2 | 9.1 |
| 2025-12-11T04:08:00 | -17.1097 | -34.9683 | 598.0 | -17.18 | 13.25 | 4 | 18.9 | 14.0 | -79.0 | 1 | 4.5 |
| 2025-12-11T04:08:00 | -17.1097 | -34.9683 | 622.0 | 9 | 19.3 | 18.8 | -75.0 | 0 | 0.0 | ||
| 2025-12-11T04:08:00 | -17.1097 | -34.9683 | 646.0 | -26.74 | 41.07 | 4 | 16.6 | 16.0 | -75.0 | 1 | 4.5 |
| 2025-12-11T04:08:00 | -17.1097 | -34.9683 | 654.0 | 83.92 | -50.61 | 4 | 16.3 | 13.8 | -75.8 | 1 | 4.5 |
| 2025-12-11T04:08:00 | -17.1097 | -34.9683 | 662.0 | -16.39 | 61.57 | 4 | 16.4 | 14.2 | -75.0 | 1 | 4.5 |
| 2025-12-11T04:08:00 | -17.1097 | -34.9683 | 734.0 | 20.72 | 9.06 | 4 | 15.3 | 22.5 | -66.6 | 1 | 4.5 |
| 2025-12-11T04:08:00 | -17.1097 | -34.9683 | 742.0 | 17.42 | -55.77 | 4 | 16.0 | 22.2 | -66.2 | 1 | 4.5 |
| 2025-12-11T04:08:00 | -17.1097 | -34.9683 | 750.0 | 4.96 | -14.11 | 4 | 15.8 | 23.8 | -65.1 | 1 | 4.5 |
| 2025-12-11T04:09:00 | -17.1065 | -34.9667 | 22.0 | -2.07 | -33.54 | 1 | 151.8 | 151.8 | -83.1 | 22 | 95.6 |
| 2025-12-11T04:09:00 | -17.1065 | -34.9667 | 30.0 | 9.50 | -24.30 | 1 | 145.8 | 145.8 | -81.3 | 23 | 100.0 |
| 2025-12-11T04:09:00 | -17.1065 | -34.9667 | 38.0 | 6.73 | -17.50 | 1 | 141.4 | 141.1 | -80.2 | 22 | 95.6 |
| 2025-12-11T04:09:00 | -17.1065 | -34.9667 | 46.0 | 0.77 | -24.78 | 1 | 132.2 | 132.2 | -81.5 | 20 | 87.0 |
| 2025-12-11T04:09:00 | -17.1065 | -34.9667 | 54.0 | -3.86 | -22.71 | 1 | 122.9 | 122.4 | -83.6 | 22 | 95.6 |
| 2025-12-11T04:09:00 | -17.1065 | -34.9667 | 62.0 | 11.45 | -22.68 | 1 | 116.2 | 115.4 | -84.7 | 20 | 87.0 |
| 2025-12-11T04:09:00 | -17.1065 | -34.9667 | 70.0 | -5.79 | -31.13 | 1 | 108.2 | 108.6 | -86.0 | 21 | 91.3 |
| 2025-12-11T04:09:00 | -17.1065 | -34.9667 | 78.0 | 3.28 | -28.86 | 1 | 103.6 | 103.6 | -86.6 | 23 | 100.0 |
| 2025-12-11T04:09:00 | -17.1065 | -34.9667 | 86.0 | -2.55 | -22.73 | 1 | 99.2 | 99.2 | -87.1 | 21 | 91.3 |
| 2025-12-11T04:09:00 | -17.1065 | -34.9667 | 94.0 | 6.76 | -27.29 | 1 | 90.9 | 90.9 | -89.3 | 22 | 95.6 |
| 2025-12-11T04:09:00 | -17.1065 | -34.9667 | 102.0 | 6.54 | -21.39 | 1 | 91.7 | 91.7 | -87.7 | 23 | 100.0 |
| 2025-12-11T04:09:00 | -17.1065 | -34.9667 | 110.0 | -1.18 | -17.56 | 1 | 88.5 | 88.5 | -88.0 | 21 | 91.3 |
| 2025-12-11T04:09:00 | -17.1065 | -34.9667 | 118.0 | -2.47 | -36.57 | 1 | 85.8 | 84.9 | -88.4 | 19 | 82.6 |
| 2025-12-11T04:09:00 | -17.1065 | -34.9667 | 126.0 | -2.52 | -35.35 | 1 | 81.1 | 81.1 | -88.9 | 23 | 100.0 |
| 2025-12-11T04:09:00 | -17.1065 | -34.9667 | 134.0 | -3.96 | -36.35 | 1 | 79.0 | 79.0 | -88.8 | 22 | 95.6 |
| 2025-12-11T04:09:00 | -17.1065 | -34.9667 | 142.0 | 3.45 | -26.51 | 1 | 78.1 | 77.5 | -88.4 | 20 | 87.0 |
| 2025-12-11T04:09:00 | -17.1065 | -34.9667 | 150.0 | 0.16 | -23.70 | 1 | 77.1 | 77.2 | -87.6 | 20 | 87.0 |
| 2025-12-11T04:09:00 | -17.1065 | -34.9667 | 158.0 | 1.04 | -20.00 | 1 | 74.6 | 74.5 | -87.8 | 20 | 87.0 |
| 2025-12-11T04:09:00 | -17.1065 | -34.9667 | 166.0 | 1.82 | -24.10 | 1 | 69.6 | 69.3 | -89.1 | 22 | 95.6 |
| 2025-12-11T04:09:00 | -17.1065 | -34.9667 | 174.0 | -7.89 | -24.96 | 1 | 67.4 | 66.7 | -89.3 | 20 | 87.0 |
| 2025-12-11T04:09:00 | -17.1065 | -34.9667 | 182.0 | -6.65 | -43.93 | 1 | 61.1 | 60.7 | -91.0 | 17 | 73.9 |
| 2025-12-11T04:09:00 | -17.1065 | -34.9667 | 190.0 | 2.00 | -38.70 | 1 | 62.7 | 61.7 | -89.7 | 20 | 87.0 |
| 2025-12-11T04:09:00 | -17.1065 | -34.9667 | 198.0 | 13.67 | -23.11 | 1 | 56.0 | 55.8 | -91.4 | 22 | 95.6 |
| 2025-12-11T04:09:00 | -17.1065 | -34.9667 | 206.0 | -14.83 | -21.72 | 1 | 52.9 | 52.4 | -92.0 | 22 | 95.6 |
| 2025-12-11T04:09:00 | -17.1065 | -34.9667 | 214.0 | 0.38 | -23.69 | 1 | 54.2 | 52.9 | -91.0 | 18 | 78.3 |
| 2025-12-11T04:09:00 | -17.1065 | -34.9667 | 222.0 | 12.50 | -19.41 | 1 | 55.3 | 54.2 | -89.6 | 20 | 87.0 |
| 2025-12-11T04:09:00 | -17.1065 | -34.9667 | 230.0 | -8.61 | -22.17 | 1 | 57.7 | 57.5 | -87.5 | 22 | 95.6 |
| 2025-12-11T04:09:00 | -17.1065 | -34.9667 | 238.0 | -14.62 | -36.64 | 1 | 53.4 | 53.4 | -88.5 | 23 | 100.0 |
| 2025-12-11T04:09:00 | -17.1065 | -34.9667 | 246.0 | 6.79 | -12.73 | 1 | 51.6 | 51.2 | -88.6 | 20 | 87.0 |
| 2025-12-11T04:09:00 | -17.1065 | -34.9667 | 254.0 | 17.42 | 15.09 | 1 | 55.0 | 52.1 | -87.5 | 14 | 60.9 |
| 2025-12-11T04:09:00 | -17.1065 | -34.9667 | 262.0 | -16.50 | -17.50 | 1 | 61.9 | 56.6 | -84.8 | 9 | 39.1 |
| 2025-12-11T04:09:00 | -17.1065 | -34.9667 | 270.0 | -15.92 | -19.47 | 1 | 50.4 | 49.0 | -87.3 | 19 | 82.6 |
| 2025-12-11T04:09:00 | -17.1065 | -34.9667 | 278.0 | -4.17 | -1.75 | 1 | 44.4 | 43.6 | -88.9 | 18 | 78.3 |
| 2025-12-11T04:09:00 | -17.1065 | -34.9667 | 286.0 | -14.43 | -12.08 | 1 | 46.9 | 46.1 | -87.1 | 19 | 82.6 |
| 2025-12-11T04:09:00 | -17.1065 | -34.9667 | 294.0 | -25.30 | -17.64 | 1 | 37.6 | 37.5 | -90.2 | 20 | 87.0 |
| 2025-12-11T04:09:00 | -17.1065 | -34.9667 | 302.0 | -24.68 | -17.52 | 1 | 31.1 | 30.8 | -92.4 | 22 | 95.6 |
| 2025-12-11T04:09:00 | -17.1065 | -34.9667 | 310.0 | -9.44 | -8.93 | 1 | 26.0 | 25.8 | -94.0 | 20 | 87.0 |
| 2025-12-11T04:09:00 | -17.1065 | -34.9667 | 318.0 | -14.28 | -11.38 | 1 | 23.3 | 23.7 | -94.3 | 15 | 65.2 |
| 2025-12-11T04:09:00 | -17.1065 | -34.9667 | 326.0 | 4.44 | 6.48 | 1 | 24.6 | 23.9 | -93.5 | 18 | 78.3 |
| 2025-12-11T04:09:00 | -17.1065 | -34.9667 | 334.0 | 0.51 | -6.70 | 1 | 25.0 | 24.1 | -92.8 | 16 | 69.6 |
| 2025-12-11T04:09:00 | -17.1065 | -34.9667 | 342.0 | -3.72 | -17.49 | 1 | 22.9 | 21.3 | -93.4 | 11 | 47.8 |
| 2025-12-11T04:09:00 | -17.1065 | -34.9667 | 350.0 | 1.59 | -9.54 | 1 | 20.6 | 20.1 | -93.4 | 16 | 69.6 |
| 2025-12-11T04:09:00 | -17.1065 | -34.9667 | 358.0 | 11.13 | -11.32 | 1 | 20.4 | 20.2 | -92.7 | 15 | 65.2 |
| 2025-12-11T04:09:00 | -17.1065 | -34.9667 | 366.0 | -9.16 | -23.55 | 1 | 22.0 | 22.3 | -91.0 | 13 | 56.5 |
| 2025-12-11T04:09:00 | -17.1065 | -34.9667 | 374.0 | -5.55 | -22.83 | 1 | 19.7 | 19.6 | -91.7 | 12 | 52.2 |
| 2025-12-11T04:09:00 | -17.1065 | -34.9667 | 382.0 | -15.52 | -37.88 | 1 | 19.0 | 18.6 | -91.6 | 8 | 34.8 |
| 2025-12-11T04:09:00 | -17.1065 | -34.9667 | 390.0 | 0.31 | -46.69 | 4 | 19.0 | 18.6 | -91.0 | 3 | 13.0 |
| 2025-12-11T04:09:00 | -17.1065 | -34.9667 | 430.0 | -15.91 | -23.29 | 4 | 16.9 | 14.8 | -90.0 | 1 | 4.4 |
| 2025-12-11T04:09:00 | -17.1065 | -34.9667 | 446.0 | 11.63 | -20.05 | 4 | 18.0 | 15.4 | -88.4 | 4 | 17.4 |
| 2025-12-11T04:09:00 | -17.1065 | -34.9667 | 454.0 | -13.81 | 20.15 | 4 | 17.8 | 17.9 | -86.6 | 5 | 21.7 |
| 2025-12-11T04:09:00 | -17.1065 | -34.9667 | 462.0 | 8.61 | -31.16 | 1 | 17.5 | 15.8 | -87.1 | 6 | 26.1 |
| 2025-12-11T04:09:00 | -17.1065 | -34.9667 | 470.0 | 24.99 | -8.59 | 4 | 18.9 | 17.2 | -85.8 | 5 | 21.7 |
| 2025-12-11T04:09:00 | -17.1065 | -34.9667 | 478.0 | 40.84 | -62.19 | 4 | 19.4 | 17.0 | -85.3 | 4 | 17.4 |
| 2025-12-11T04:09:00 | -17.1065 | -34.9667 | 486.0 | 8.17 | -17.50 | 1 | 21.8 | 17.2 | -84.6 | 7 | 30.4 |
| 2025-12-11T04:09:00 | -17.1065 | -34.9667 | 494.0 | 2.85 | 15.67 | 1 | 24.1 | 20.4 | -82.5 | 10 | 43.5 |
| 2025-12-11T04:09:00 | -17.1065 | -34.9667 | 502.0 | 7.95 | -1.34 | 1 | 25.1 | 22.3 | -81.0 | 16 | 69.6 |
| 2025-12-11T04:09:00 | -17.1065 | -34.9667 | 510.0 | 4.62 | -7.42 | 1 | 25.2 | 23.0 | -80.2 | 19 | 82.6 |
| 2025-12-11T04:09:00 | -17.1065 | -34.9667 | 518.0 | -7.73 | -11.74 | 1 | 25.5 | 22.9 | -79.7 | 17 | 73.9 |
| 2025-12-11T04:09:00 | -17.1065 | -34.9667 | 526.0 | 5.27 | -10.10 | 1 | 25.2 | 23.4 | -78.9 | 17 | 73.9 |
| 2025-12-11T04:09:00 | -17.1065 | -34.9667 | 534.0 | 10.19 | -3.33 | 1 | 24.6 | 23.6 | -78.2 | 13 | 56.5 |
| 2025-12-11T04:09:00 | -17.1065 | -34.9667 | 542.0 | -5.84 | -4.83 | 1 | 24.1 | 23.7 | -77.7 | 18 | 78.3 |
| 2025-12-11T04:09:00 | -17.1065 | -34.9667 | 550.0 | 16.35 | -12.75 | 1 | 22.6 | 21.5 | -78.2 | 12 | 52.2 |
| 2025-12-11T04:09:00 | -17.1065 | -34.9667 | 558.0 | 8.28 | -44.31 | 1 | 20.5 | 18.3 | -79.3 | 13 | 56.5 |
| 2025-12-11T04:09:00 | -17.1065 | -34.9667 | 566.0 | 21.06 | -20.09 | 1 | 20.6 | 19.7 | -78.1 | 8 | 34.8 |
| 2025-12-11T04:09:00 | -17.1065 | -34.9667 | 574.0 | -3.09 | -10.34 | 1 | 20.2 | 18.2 | -78.3 | 7 | 30.4 |
| 2025-12-11T04:09:00 | -17.1065 | -34.9667 | 582.0 | -7.82 | -17.84 | 1 | 20.0 | 17.1 | -78.3 | 8 | 34.8 |
| 2025-12-11T04:09:00 | -17.1065 | -34.9667 | 590.0 | 13.96 | -43.85 | 4 | 19.1 | 13.8 | -79.7 | 1 | 4.4 |
| 2025-12-11T04:09:00 | -17.1065 | -34.9667 | 630.0 | 79.44 | 11.13 | 4 | 16.7 | 22.8 | -72.6 | 1 | 4.4 |
| 2025-12-11T04:09:00 | -17.1065 | -34.9667 | 638.0 | 55.01 | 6.69 | 4 | 16.9 | 15.5 | -75.7 | 1 | 4.4 |
| 2025-12-11T04:09:00 | -17.1065 | -34.9667 | 646.0 | 13.86 | -102.58 | 4 | 17.9 | 18.2 | -73.8 | 1 | 4.4 |
| 2025-12-11T04:09:00 | -17.1065 | -34.9667 | 654.0 | 96.92 | 62.38 | 4 | 18.8 | 20.8 | -72.1 | 1 | 4.4 |
| 2025-12-11T04:09:00 | -17.1065 | -34.9667 | 678.0 | -19.73 | -83.06 | 4 | 19.6 | 15.4 | -73.4 | 3 | 13.0 |
| 2025-12-11T04:09:00 | -17.1065 | -34.9667 | 710.0 | 13.09 | 123.21 | 4 | 17.8 | 20.2 | -69.0 | 1 | 4.4 |
| 2025-12-11T04:09:00 | -17.1065 | -34.9667 | 718.0 | 37.14 | -25.63 | 4 | 19.7 | 23.5 | -67.0 | 1 | 4.4 |
| 2025-12-11T04:09:00 | -17.1065 | -34.9667 | 782.0 | 40.40 | -64.12 | 4 | 16.2 | 15.2 | -67.6 | 1 | 4.4 |
| 2025-12-11T04:10:00 | -17.1033 | -34.9649 | 22.0 | 6.92 | -25.47 | 1 | 151.5 | 151.5 | -83.2 | 22 | 95.6 |
| 2025-12-11T04:10:00 | -17.1033 | -34.9649 | 30.0 | 6.10 | -15.11 | 1 | 147.6 | 147.2 | -80.7 | 22 | 95.6 |
| 2025-12-11T04:10:00 | -17.1033 | -34.9649 | 38.0 | -8.64 | -23.88 | 1 | 144.3 | 143.8 | -79.1 | 21 | 91.3 |
| 2025-12-11T04:10:00 | -17.1033 | -34.9649 | 46.0 | -14.73 | -22.20 | 1 | 129.0 | 129.0 | -82.9 | 22 | 95.6 |
| 2025-12-11T04:10:00 | -17.1033 | -34.9649 | 54.0 | 5.51 | -21.04 | 1 | 119.6 | 119.6 | -84.8 | 23 | 100.0 |
| 2025-12-11T04:10:00 | -17.1033 | -34.9649 | 62.0 | 7.50 | -15.12 | 1 | 111.2 | 111.2 | -86.5 | 21 | 91.3 |
| 2025-12-11T04:10:00 | -17.1033 | -34.9649 | 70.0 | -2.86 | -16.63 | 1 | 109.9 | 109.9 | -85.4 | 22 | 95.6 |
| 2025-12-11T04:10:00 | -17.1033 | -34.9649 | 78.0 | 1.26 | -17.46 | 1 | 104.3 | 103.9 | -86.5 | 21 | 91.3 |
| 2025-12-11T04:10:00 | -17.1033 | -34.9649 | 86.0 | -6.78 | -18.26 | 1 | 99.4 | 99.4 | -87.0 | 22 | 95.6 |
| 2025-12-11T04:10:00 | -17.1033 | -34.9649 | 94.0 | 6.91 | -33.59 | 1 | 92.6 | 92.6 | -88.6 | 22 | 95.6 |
| 2025-12-11T04:10:00 | -17.1033 | -34.9649 | 102.0 | -11.68 | -11.74 | 1 | 89.2 | 89.2 | -88.8 | 23 | 100.0 |
| 2025-12-11T04:10:00 | -17.1033 | -34.9649 | 110.0 | 0.40 | -21.22 | 1 | 88.9 | 88.5 | -88.0 | 21 | 91.3 |
| 2025-12-11T04:10:00 | -17.1033 | -34.9649 | 118.0 | 3.54 | -22.71 | 1 | 85.0 | 85.0 | -88.3 | 21 | 91.3 |
| 2025-12-11T04:10:00 | -17.1033 | -34.9649 | 126.0 | -5.02 | -23.91 | 1 | 82.5 | 82.5 | -88.3 | 21 | 91.3 |
| 2025-12-11T04:10:00 | -17.1033 | -34.9649 | 134.0 | -7.13 | -31.24 | 1 | 79.6 | 79.6 | -88.5 | 23 | 100.0 |
| 2025-12-11T04:10:00 | -17.1033 | -34.9649 | 142.0 | 9.47 | -13.42 | 1 | 79.0 | 79.0 | -87.8 | 23 | 100.0 |
| 2025-12-11T04:10:00 | -17.1033 | -34.9649 | 150.0 | 3.24 | -16.17 | 1 | 76.6 | 76.6 | -87.9 | 23 | 100.0 |
| 2025-12-11T04:10:00 | -17.1033 | -34.9649 | 158.0 | 4.45 | -14.36 | 1 | 75.5 | 75.5 | -87.4 | 19 | 82.6 |
| 2025-12-11T04:10:00 | -17.1033 | -34.9649 | 166.0 | 4.94 | -20.29 | 1 | 70.9 | 70.5 | -88.6 | 21 | 91.3 |
| 2025-12-11T04:10:00 | -17.1033 | -34.9649 | 174.0 | 2.61 | -8.34 | 1 | 67.6 | 67.6 | -89.0 | 23 | 100.0 |
| 2025-12-11T04:10:00 | -17.1033 | -34.9649 | 182.0 | -0.54 | -20.33 | 1 | 62.7 | 62.3 | -90.3 | 21 | 91.3 |
| 2025-12-11T04:10:00 | -17.1033 | -34.9649 | 190.0 | 13.23 | -28.51 | 1 | 63.9 | 63.9 | -88.8 | 22 | 95.6 |
| 2025-12-11T04:10:00 | -17.1033 | -34.9649 | 198.0 | 10.09 | -23.38 | 1 | 59.3 | 59.5 | -89.8 | 22 | 95.6 |
| 2025-12-11T04:10:00 | -17.1033 | -34.9649 | 206.0 | 1.65 | -16.16 | 1 | 53.6 | 53.6 | -91.5 | 21 | 91.3 |
| 2025-12-11T04:10:00 | -17.1033 | -34.9649 | 214.0 | 15.16 | -5.57 | 1 | 54.4 | 53.1 | -90.9 | 19 | 82.6 |
| 2025-12-11T04:10:00 | -17.1033 | -34.9649 | 222.0 | 5.76 | -27.66 | 1 | 58.1 | 54.8 | -89.4 | 14 | 60.9 |
| 2025-12-11T04:10:00 | -17.1033 | -34.9649 | 230.0 | 0.77 | -20.45 | 1 | 59.4 | 58.2 | -87.1 | 18 | 78.3 |
| 2025-12-11T04:10:00 | -17.1033 | -34.9649 | 238.0 | -7.28 | -30.33 | 1 | 54.2 | 54.2 | -88.1 | 22 | 95.6 |
| 2025-12-11T04:10:00 | -17.1033 | -34.9649 | 246.0 | 6.54 | 6.63 | 1 | 49.9 | 49.7 | -89.3 | 20 | 87.0 |
| 2025-12-11T04:10:00 | -17.1033 | -34.9649 | 254.0 | -0.48 | -16.52 | 1 | 52.6 | 51.5 | -87.7 | 19 | 82.6 |
| 2025-12-11T04:10:00 | -17.1033 | -34.9649 | 262.0 | 4.28 | 0.40 | 1 | 57.2 | 55.3 | -85.4 | 18 | 78.3 |
| 2025-12-11T04:10:00 | -17.1033 | -34.9649 | 270.0 | -7.82 | -4.19 | 1 | 48.8 | 48.2 | -87.7 | 22 | 95.6 |
| 2025-12-11T04:10:00 | -17.1033 | -34.9649 | 278.0 | 2.00 | -22.22 | 1 | 43.1 | 42.6 | -89.4 | 19 | 82.6 |
| 2025-12-11T04:10:00 | -17.1033 | -34.9649 | 286.0 | 5.05 | -22.34 | 1 | 43.2 | 42.2 | -88.8 | 20 | 87.0 |
| 2025-12-11T04:10:00 | -17.1033 | -34.9649 | 294.0 | 8.84 | -19.38 | 1 | 39.5 | 38.4 | -89.8 | 20 | 87.0 |
| 2025-12-11T04:10:00 | -17.1033 | -34.9649 | 302.0 | -4.68 | -18.55 | 1 | 35.9 | 34.1 | -91.0 | 19 | 82.6 |
| 2025-12-11T04:10:00 | -17.1033 | -34.9649 | 310.0 | 11.65 | -8.04 | 1 | 30.2 | 29.1 | -92.5 | 21 | 91.3 |
| 2025-12-11T04:10:00 | -17.1033 | -34.9649 | 318.0 | 6.17 | -13.07 | 1 | 27.2 | 25.7 | -93.4 | 18 | 78.3 |
| 2025-12-11T04:10:00 | -17.1033 | -34.9649 | 326.0 | -13.12 | -19.22 | 1 | 26.5 | 24.3 | -93.4 | 15 | 65.2 |
| 2025-12-11T04:10:00 | -17.1033 | -34.9649 | 334.0 | 2.59 | -22.15 | 1 | 25.4 | 24.5 | -92.6 | 20 | 87.0 |
| 2025-12-11T04:10:00 | -17.1033 | -34.9649 | 342.0 | 2.33 | -15.31 | 1 | 24.1 | 22.1 | -93.1 | 18 | 78.3 |
| 2025-12-11T04:10:00 | -17.1033 | -34.9649 | 350.0 | 1.13 | -29.30 | 1 | 22.4 | 20.3 | -93.3 | 15 | 65.2 |
| 2025-12-11T04:10:00 | -17.1033 | -34.9649 | 358.0 | -4.25 | 10.85 | 1 | 22.7 | 20.9 | -92.4 | 7 | 30.4 |
| 2025-12-11T04:10:00 | -17.1033 | -34.9649 | 366.0 | 7.85 | -22.82 | 1 | 23.3 | 20.4 | -92.0 | 13 | 56.5 |
| 2025-12-11T04:10:00 | -17.1033 | -34.9649 | 374.0 | -8.90 | -35.10 | 1 | 22.3 | 20.0 | -91.5 | 7 | 30.4 |
| 2025-12-11T04:10:00 | -17.1033 | -34.9649 | 382.0 | -3.55 | -27.99 | 4 | 21.5 | 18.2 | -91.8 | 4 | 17.4 |
| 2025-12-11T04:10:00 | -17.1033 | -34.9649 | 390.0 | 8.57 | -39.77 | 4 | 17.9 | 16.1 | -92.3 | 3 | 13.0 |
| 2025-12-11T04:10:00 | -17.1033 | -34.9649 | 398.0 | 41.09 | 13.60 | 4 | 17.2 | 15.8 | -91.9 | 2 | 8.7 |
| 2025-12-11T04:10:00 | -17.1033 | -34.9649 | 406.0 | 28.39 | -50.33 | 4 | 17.0 | 15.2 | -91.6 | 3 | 13.0 |
| 2025-12-11T04:10:00 | -17.1033 | -34.9649 | 414.0 | 29.16 | -56.19 | 4 | 16.8 | 19.9 | -88.5 | 2 | 8.7 |
| 2025-12-11T04:10:00 | -17.1033 | -34.9649 | 422.0 | 5.82 | 12.85 | 4 | 16.2 | 16.9 | -89.4 | 2 | 8.7 |
| 2025-12-11T04:10:00 | -17.1033 | -34.9649 | 430.0 | -4.16 | -89.41 | 4 | 16.3 | 14.8 | -90.0 | 3 | 13.0 |
| 2025-12-11T04:10:00 | -17.1033 | -34.9649 | 438.0 | 41.83 | -53.53 | 4 | 17.4 | 16.8 | -88.3 | 1 | 4.4 |
| 2025-12-11T04:10:00 | -17.1033 | -34.9649 | 446.0 | 53.92 | -26.36 | 4 | 16.8 | 16.5 | -87.9 | 3 | 13.0 |
| 2025-12-11T04:10:00 | -17.1033 | -34.9649 | 454.0 | 31.07 | -31.64 | 1 | 16.2 | 16.2 | -87.5 | 6 | 26.1 |
| 2025-12-11T04:10:00 | -17.1033 | -34.9649 | 462.0 | 47.05 | -32.29 | 4 | 17.0 | 18.5 | -85.7 | 5 | 21.7 |
| 2025-12-11T04:10:00 | -17.1033 | -34.9649 | 470.0 | 3.74 | -45.00 | 1 | 16.6 | 16.6 | -86.1 | 11 | 47.8 |
| 2025-12-11T04:10:00 | -17.1033 | -34.9649 | 478.0 | -4.15 | -24.90 | 1 | 16.8 | 16.1 | -85.8 | 6 | 26.1 |
| 2025-12-11T04:10:00 | -17.1033 | -34.9649 | 486.0 | 5.66 | -1.48 | 1 | 18.0 | 17.1 | -84.7 | 7 | 30.4 |
| 2025-12-11T04:10:00 | -17.1033 | -34.9649 | 494.0 | 4.76 | -16.60 | 1 | 20.5 | 20.1 | -82.6 | 12 | 52.2 |
| 2025-12-11T04:10:00 | -17.1033 | -34.9649 | 502.0 | 20.19 | -10.23 | 1 | 23.6 | 23.4 | -80.5 | 19 | 82.6 |
| 2025-12-11T04:10:00 | -17.1033 | -34.9649 | 510.0 | 0.57 | -16.04 | 1 | 22.6 | 22.7 | -80.3 | 17 | 73.9 |
| 2025-12-11T04:10:00 | -17.1033 | -34.9649 | 518.0 | 20.30 | -12.51 | 1 | 23.1 | 23.9 | -79.2 | 18 | 78.3 |
| 2025-12-11T04:10:00 | -17.1033 | -34.9649 | 526.0 | 12.16 | -15.05 | 1 | 22.4 | 22.0 | -79.5 | 15 | 65.2 |
| 2025-12-11T04:10:00 | -17.1033 | -34.9649 | 534.0 | -0.43 | -10.06 | 1 | 23.2 | 23.0 | -78.5 | 15 | 65.2 |
| 2025-12-11T04:10:00 | -17.1033 | -34.9649 | 542.0 | 2.49 | -15.90 | 1 | 24.3 | 23.4 | -77.8 | 13 | 56.5 |
| 2025-12-11T04:10:00 | -17.1033 | -34.9649 | 550.0 | 1.67 | -28.11 | 1 | 22.3 | 20.3 | -78.8 | 10 | 43.5 |
| 2025-12-11T04:10:00 | -17.1033 | -34.9649 | 558.0 | -19.59 | -41.78 | 1 | 20.8 | 20.7 | -78.1 | 12 | 52.2 |
| 2025-12-11T04:10:00 | -17.1033 | -34.9649 | 566.0 | -0.43 | -25.85 | 1 | 18.7 | 18.4 | -78.7 | 7 | 30.4 |
| 2025-12-11T04:10:00 | -17.1033 | -34.9649 | 574.0 | 18.96 | -52.96 | 4 | 18.6 | 19.6 | -77.6 | 5 | 21.7 |
| 2025-12-11T04:10:00 | -17.1033 | -34.9649 | 582.0 | 30.21 | -30.82 | 1 | 19.5 | 18.9 | -77.4 | 6 | 26.1 |
| 2025-12-11T04:10:00 | -17.1033 | -34.9649 | 590.0 | -9.88 | -2.34 | 4 | 18.7 | 18.7 | -77.0 | 3 | 13.0 |
| 2025-12-11T04:10:00 | -17.1033 | -34.9649 | 598.0 | 9 | 17.1 | 12.0 | -80.2 | 0 | 0.0 | ||
| 2025-12-11T04:10:00 | -17.1033 | -34.9649 | 614.0 | -148.74 | -43.88 | 4 | 16.7 | 13.5 | -78.3 | 1 | 4.4 |
| 2025-12-11T04:10:00 | -17.1033 | -34.9649 | 630.0 | 28.69 | -35.14 | 4 | 16.2 | 13.8 | -77.2 | 1 | 4.4 |
| 2025-12-11T04:11:00 | -17.1001 | -34.9631 | 22.0 | 1.50 | -13.53 | 1 | 151.9 | 151.5 | -83.2 | 20 | 90.9 |
| 2025-12-11T04:11:00 | -17.1001 | -34.9631 | 30.0 | 5.97 | -23.48 | 1 | 146.9 | 146.9 | -80.8 | 22 | 100.0 |
| 2025-12-11T04:11:00 | -17.1001 | -34.9631 | 38.0 | 14.84 | -30.96 | 1 | 146.5 | 146.5 | -77.9 | 22 | 100.0 |
| 2025-12-11T04:11:00 | -17.1001 | -34.9631 | 46.0 | 2.85 | -21.78 | 1 | 134.7 | 134.7 | -80.4 | 21 | 95.5 |
| 2025-12-11T04:11:00 | -17.1001 | -34.9631 | 54.0 | 10.00 | -30.77 | 1 | 124.7 | 124.1 | -82.8 | 17 | 77.3 |
| 2025-12-11T04:11:00 | -17.1001 | -34.9631 | 62.0 | 1.08 | -20.28 | 1 | 115.1 | 115.1 | -84.8 | 21 | 95.5 |
| 2025-12-11T04:11:00 | -17.1001 | -34.9631 | 70.0 | 0.21 | -22.45 | 1 | 110.4 | 110.4 | -85.2 | 21 | 95.5 |
| 2025-12-11T04:11:00 | -17.1001 | -34.9631 | 78.0 | 3.81 | -27.68 | 1 | 105.8 | 105.8 | -85.7 | 22 | 100.0 |
| 2025-12-11T04:11:00 | -17.1001 | -34.9631 | 86.0 | -2.03 | -15.00 | 1 | 98.9 | 98.9 | -87.2 | 20 | 90.9 |
| 2025-12-11T04:11:00 | -17.1001 | -34.9631 | 94.0 | 1.20 | -20.00 | 1 | 93.8 | 93.8 | -88.1 | 19 | 86.4 |
| 2025-12-11T04:11:00 | -17.1001 | -34.9631 | 102.0 | 5.01 | -33.13 | 1 | 89.2 | 89.1 | -88.9 | 19 | 86.4 |
| 2025-12-11T04:11:00 | -17.1001 | -34.9631 | 110.0 | 13.49 | -33.76 | 1 | 87.1 | 86.8 | -88.7 | 19 | 86.4 |
| 2025-12-11T04:11:00 | -17.1001 | -34.9631 | 118.0 | 19.28 | -26.63 | 1 | 84.6 | 84.1 | -88.7 | 18 | 81.8 |
| 2025-12-11T04:11:00 | -17.1001 | -34.9631 | 126.0 | 7.45 | -15.61 | 1 | 84.6 | 84.2 | -87.6 | 21 | 95.5 |
| 2025-12-11T04:11:00 | -17.1001 | -34.9631 | 134.0 | -10.31 | -32.03 | 1 | 79.7 | 79.7 | -88.5 | 20 | 90.9 |
| 2025-12-11T04:11:00 | -17.1001 | -34.9631 | 142.0 | 14.20 | -31.10 | 1 | 79.1 | 79.1 | -87.8 | 21 | 95.5 |
| 2025-12-11T04:11:00 | -17.1001 | -34.9631 | 150.0 | 2.15 | -26.46 | 1 | 78.6 | 78.9 | -86.9 | 21 | 95.5 |
| 2025-12-11T04:11:00 | -17.1001 | -34.9631 | 158.0 | 19.71 | -19.12 | 1 | 76.3 | 76.3 | -87.1 | 21 | 95.5 |
| 2025-12-11T04:11:00 | -17.1001 | -34.9631 | 166.0 | 7.40 | -18.59 | 1 | 69.1 | 68.2 | -89.6 | 20 | 90.9 |
| 2025-12-11T04:11:00 | -17.1001 | -34.9631 | 174.0 | -0.96 | -23.51 | 1 | 68.0 | 66.9 | -89.2 | 18 | 81.8 |
| 2025-12-11T04:11:00 | -17.1001 | -34.9631 | 182.0 | 1.94 | -28.86 | 1 | 61.3 | 60.5 | -91.1 | 20 | 90.9 |
| 2025-12-11T04:11:00 | -17.1001 | -34.9631 | 190.0 | 0.38 | -23.58 | 1 | 63.7 | 63.3 | -89.1 | 21 | 95.5 |
| 2025-12-11T04:11:00 | -17.1001 | -34.9631 | 198.0 | -23.27 | -33.84 | 1 | 55.8 | 55.7 | -91.5 | 19 | 86.4 |
| 2025-12-11T04:11:00 | -17.1001 | -34.9631 | 206.0 | -18.77 | -28.64 | 1 | 50.5 | 50.2 | -93.0 | 21 | 95.5 |
| 2025-12-11T04:11:00 | -17.1001 | -34.9631 | 214.0 | 3.06 | -25.09 | 1 | 53.2 | 52.8 | -91.1 | 19 | 86.4 |
| 2025-12-11T04:11:00 | -17.1001 | -34.9631 | 222.0 | -2.12 | -28.09 | 1 | 55.7 | 55.3 | -89.2 | 20 | 90.9 |
| 2025-12-11T04:11:00 | -17.1001 | -34.9631 | 230.0 | -8.55 | -32.53 | 1 | 58.4 | 58.1 | -87.2 | 20 | 90.9 |
| 2025-12-11T04:11:00 | -17.1001 | -34.9631 | 238.0 | -5.16 | -6.85 | 1 | 57.7 | 56.1 | -87.3 | 17 | 77.3 |
| 2025-12-11T04:11:00 | -17.1001 | -34.9631 | 246.0 | 9.44 | -14.66 | 1 | 53.5 | 53.6 | -87.6 | 20 | 90.9 |
| 2025-12-11T04:11:00 | -17.1001 | -34.9631 | 254.0 | -5.96 | -11.63 | 1 | 49.4 | 48.6 | -89.0 | 20 | 90.9 |
| 2025-12-11T04:11:00 | -17.1001 | -34.9631 | 262.0 | 10.20 | -14.23 | 1 | 51.5 | 51.5 | -87.0 | 21 | 95.5 |
| 2025-12-11T04:11:00 | -17.1001 | -34.9631 | 270.0 | -0.09 | -12.43 | 1 | 47.3 | 47.3 | -88.1 | 19 | 86.4 |
| 2025-12-11T04:11:00 | -17.1001 | -34.9631 | 278.0 | -14.30 | -16.20 | 1 | 43.0 | 43.0 | -89.2 | 21 | 95.5 |
| 2025-12-11T04:11:00 | -17.1001 | -34.9631 | 286.0 | -4.24 | -8.73 | 1 | 42.5 | 42.5 | -88.7 | 21 | 95.5 |
| 2025-12-11T04:11:00 | -17.1001 | -34.9631 | 294.0 | -11.74 | -3.64 | 1 | 39.2 | 39.4 | -89.3 | 19 | 86.4 |
| 2025-12-11T04:11:00 | -17.1001 | -34.9631 | 302.0 | 0.12 | -4.70 | 1 | 36.7 | 36.2 | -90.1 | 20 | 90.9 |
| 2025-12-11T04:11:00 | -17.1001 | -34.9631 | 310.0 | -1.89 | -11.21 | 1 | 31.4 | 31.0 | -91.7 | 19 | 86.4 |
| 2025-12-11T04:11:00 | -17.1001 | -34.9631 | 318.0 | 2.26 | -2.94 | 1 | 26.0 | 26.0 | -93.2 | 19 | 86.4 |
| 2025-12-11T04:11:00 | -17.1001 | -34.9631 | 326.0 | -18.46 | -17.14 | 1 | 24.1 | 24.0 | -93.5 | 15 | 68.2 |
| 2025-12-11T04:11:00 | -17.1001 | -34.9631 | 334.0 | 14.15 | -18.87 | 1 | 23.6 | 23.6 | -93.0 | 17 | 77.3 |
| 2025-12-11T04:11:00 | -17.1001 | -34.9631 | 342.0 | 5.38 | -21.86 | 1 | 19.3 | 19.2 | -94.5 | 13 | 59.1 |
| 2025-12-11T04:11:00 | -17.1001 | -34.9631 | 350.0 | 0.49 | -36.68 | 1 | 19.5 | 19.0 | -94.0 | 11 | 50.0 |
| 2025-12-11T04:11:00 | -17.1001 | -34.9631 | 358.0 | 8.69 | -16.47 | 1 | 19.9 | 19.3 | -93.1 | 11 | 50.0 |
| 2025-12-11T04:11:00 | -17.1001 | -34.9631 | 366.0 | 1.14 | -25.22 | 1 | 20.0 | 19.7 | -92.3 | 9 | 40.9 |
| 2025-12-11T04:11:00 | -17.1001 | -34.9631 | 374.0 | -0.11 | -39.30 | 1 | 21.8 | 18.6 | -92.2 | 8 | 36.4 |
| 2025-12-11T04:11:00 | -17.1001 | -34.9631 | 382.0 | 17.90 | -16.70 | 1 | 21.3 | 16.2 | -92.8 | 7 | 31.8 |
| 2025-12-11T04:11:00 | -17.1001 | -34.9631 | 390.0 | -4.10 | -32.51 | 4 | 19.9 | 14.7 | -93.1 | 3 | 13.6 |
| 2025-12-11T04:11:00 | -17.1001 | -34.9631 | 398.0 | -54.50 | -50.19 | 4 | 20.2 | 14.8 | -92.4 | 2 | 9.1 |
| 2025-12-11T04:11:00 | -17.1001 | -34.9631 | 422.0 | 9 | 20.7 | 14.8 | -90.6 | 0 | 0.0 | ||
| 2025-12-11T04:11:00 | -17.1001 | -34.9631 | 430.0 | -5.94 | -37.60 | 4 | 19.0 | 13.0 | -91.0 | 1 | 4.5 |
| 2025-12-11T04:11:00 | -17.1001 | -34.9631 | 438.0 | 18.32 | -67.61 | 4 | 17.7 | 15.1 | -89.2 | 2 | 9.1 |
| 2025-12-11T04:11:00 | -17.1001 | -34.9631 | 446.0 | 11.25 | -44.80 | 4 | 17.3 | 25.5 | -83.5 | 1 | 4.5 |
| 2025-12-11T04:11:00 | -17.1001 | -34.9631 | 454.0 | 3.41 | -85.70 | 4 | 17.8 | 19.6 | -85.7 | 3 | 13.6 |
| 2025-12-11T04:11:00 | -17.1001 | -34.9631 | 462.0 | 11.70 | -56.16 | 1 | 18.6 | 16.2 | -86.9 | 7 | 31.8 |
| 2025-12-11T04:11:00 | -17.1001 | -34.9631 | 470.0 | 8.76 | -64.72 | 4 | 17.8 | 16.1 | -86.4 | 5 | 22.7 |
| 2025-12-11T04:11:00 | -17.1001 | -34.9631 | 478.0 | 29.51 | -24.62 | 1 | 17.8 | 17.0 | -85.3 | 8 | 36.4 |
| 2025-12-11T04:11:00 | -17.1001 | -34.9631 | 486.0 | -3.17 | -15.41 | 1 | 19.8 | 17.6 | -84.5 | 8 | 36.4 |
| 2025-12-11T04:11:00 | -17.1001 | -34.9631 | 494.0 | 0.60 | 5.82 | 1 | 24.2 | 23.0 | -81.3 | 16 | 72.7 |
| 2025-12-11T04:11:00 | -17.1001 | -34.9631 | 502.0 | -9.64 | -3.03 | 1 | 24.5 | 24.9 | -79.8 | 16 | 72.7 |
| 2025-12-11T04:11:00 | -17.1001 | -34.9631 | 510.0 | -11.61 | -30.02 | 1 | 24.7 | 23.8 | -79.8 | 17 | 77.3 |
| 2025-12-11T04:11:00 | -17.1001 | -34.9631 | 518.0 | -13.09 | -45.87 | 1 | 21.6 | 21.8 | -80.2 | 13 | 59.1 |
| 2025-12-11T04:11:00 | -17.1001 | -34.9631 | 526.0 | 9.21 | -6.49 | 1 | 23.6 | 23.6 | -78.8 | 16 | 72.7 |
| 2025-12-11T04:11:00 | -17.1001 | -34.9631 | 534.0 | 1.56 | -5.68 | 1 | 24.9 | 23.5 | -78.3 | 17 | 77.3 |
| 2025-12-11T04:11:00 | -17.1001 | -34.9631 | 542.0 | 20.45 | -35.61 | 1 | 23.5 | 22.3 | -78.4 | 13 | 59.1 |
| 2025-12-11T04:11:00 | -17.1001 | -34.9631 | 550.0 | 8.89 | -37.20 | 1 | 22.7 | 18.4 | -79.8 | 10 | 45.5 |
| 2025-12-11T04:11:00 | -17.1001 | -34.9631 | 558.0 | 0.15 | -52.23 | 4 | 21.0 | 16.2 | -80.4 | 4 | 18.2 |
| 2025-12-11T04:11:00 | -17.1001 | -34.9631 | 566.0 | 7.71 | -44.09 | 1 | 20.1 | 17.2 | -79.3 | 7 | 31.8 |
| 2025-12-11T04:11:00 | -17.1001 | -34.9631 | 574.0 | -0.88 | -27.59 | 1 | 19.7 | 17.2 | -78.8 | 9 | 40.9 |
| 2025-12-11T04:11:00 | -17.1001 | -34.9631 | 582.0 | -5.88 | -42.02 | 4 | 19.0 | 15.8 | -79.1 | 4 | 18.2 |
| 2025-12-11T04:11:00 | -17.1001 | -34.9631 | 590.0 | 13.56 | -8.61 | 4 | 18.1 | 17.0 | -77.9 | 3 | 13.6 |
| 2025-12-11T04:11:00 | -17.1001 | -34.9631 | 598.0 | 21.69 | 26.90 | 4 | 16.6 | 20.5 | -75.6 | 2 | 9.1 |
| 2025-12-11T04:11:00 | -17.1001 | -34.9631 | 606.0 | 71.38 | -5.67 | 4 | 17.0 | 22.2 | -74.3 | 1 | 4.5 |
| 2025-12-11T04:11:00 | -17.1001 | -34.9631 | 614.0 | 3.96 | -15.62 | 4 | 16.8 | 18.2 | -75.8 | 1 | 4.5 |
| 2025-12-11T04:11:00 | -17.1001 | -34.9631 | 630.0 | 9 | 15.5 | 14.5 | -76.8 | 0 | 0.0 | ||
| 2025-12-11T04:11:00 | -17.1001 | -34.9631 | 638.0 | 22.79 | -5.66 | 4 | 15.6 | 20.2 | -73.3 | 1 | 4.5 |
| 2025-12-11T04:11:00 | -17.1001 | -34.9631 | 646.0 | 30.18 | -100.92 | 4 | 15.1 | 16.0 | -75.0 | 1 | 4.5 |
| 2025-12-11T04:11:00 | -17.1001 | -34.9631 | 670.0 | 17.91 | -30.17 | 4 | 16.0 | 14.0 | -74.7 | 1 | 4.5 |
| 2025-12-11T04:11:00 | -17.1001 | -34.9631 | 678.0 | 116.76 | -83.99 | 4 | 15.8 | 15.0 | -73.6 | 1 | 4.5 |
| 2025-12-11T04:12:00 | -17.0969 | -34.9615 | 22.0 | 9.95 | -21.42 | 1 | 151.7 | 151.8 | -83.1 | 21 | 91.3 |
| 2025-12-11T04:12:00 | -17.0969 | -34.9615 | 30.0 | 3.31 | -25.65 | 1 | 149.7 | 149.7 | -79.6 | 21 | 91.3 |
| 2025-12-11T04:12:00 | -17.0969 | -34.9615 | 38.0 | 3.27 | -32.26 | 1 | 144.1 | 144.1 | -78.9 | 22 | 95.6 |
| 2025-12-11T04:12:00 | -17.0969 | -34.9615 | 46.0 | -1.32 | -23.10 | 1 | 131.4 | 131.4 | -81.8 | 21 | 91.3 |
| 2025-12-11T04:12:00 | -17.0969 | -34.9615 | 54.0 | 3.54 | -32.09 | 1 | 119.6 | 119.6 | -84.7 | 23 | 100.0 |
| 2025-12-11T04:12:00 | -17.0969 | -34.9615 | 62.0 | 14.61 | -32.05 | 1 | 113.9 | 113.4 | -85.5 | 20 | 87.0 |
| 2025-12-11T04:12:00 | -17.0969 | -34.9615 | 70.0 | 15.18 | -22.46 | 1 | 110.4 | 109.9 | -85.4 | 22 | 95.6 |
| 2025-12-11T04:12:00 | -17.0969 | -34.9615 | 78.0 | 16.04 | -42.76 | 1 | 102.6 | 102.6 | -87.0 | 23 | 100.0 |
| 2025-12-11T04:12:00 | -17.0969 | -34.9615 | 86.0 | -10.30 | -32.50 | 1 | 98.4 | 98.4 | -87.4 | 23 | 100.0 |
| 2025-12-11T04:12:00 | -17.0969 | -34.9615 | 94.0 | -13.99 | -33.73 | 1 | 93.0 | 93.0 | -88.4 | 23 | 100.0 |
| 2025-12-11T04:12:00 | -17.0969 | -34.9615 | 102.0 | -10.11 | -16.82 | 1 | 88.6 | 88.6 | -89.1 | 21 | 91.3 |
| 2025-12-11T04:12:00 | -17.0969 | -34.9615 | 110.0 | 22.23 | -18.71 | 1 | 85.4 | 85.4 | -89.3 | 21 | 91.3 |
| 2025-12-11T04:12:00 | -17.0969 | -34.9615 | 118.0 | 12.20 | -17.00 | 1 | 85.5 | 85.0 | -88.3 | 22 | 95.6 |
| 2025-12-11T04:12:00 | -17.0969 | -34.9615 | 126.0 | 3.62 | -29.01 | 1 | 84.0 | 84.0 | -87.7 | 22 | 95.6 |
| 2025-12-11T04:12:00 | -17.0969 | -34.9615 | 134.0 | 11.88 | -22.93 | 1 | 83.5 | 82.9 | -87.1 | 20 | 87.0 |
| 2025-12-11T04:12:00 | -17.0969 | -34.9615 | 142.0 | -0.67 | -22.28 | 1 | 82.4 | 81.9 | -86.6 | 22 | 95.6 |
| 2025-12-11T04:12:00 | -17.0969 | -34.9615 | 150.0 | 5.93 | -18.10 | 1 | 77.1 | 77.1 | -87.6 | 22 | 95.6 |
| 2025-12-11T04:12:00 | -17.0969 | -34.9615 | 158.0 | 3.44 | -31.57 | 1 | 72.7 | 72.1 | -88.9 | 20 | 87.0 |
| 2025-12-11T04:12:00 | -17.0969 | -34.9615 | 166.0 | 4.85 | -27.29 | 1 | 70.0 | 70.0 | -88.8 | 21 | 91.3 |
| 2025-12-11T04:12:00 | -17.0969 | -34.9615 | 174.0 | -2.04 | -32.72 | 1 | 67.3 | 67.3 | -89.1 | 21 | 91.3 |
| 2025-12-11T04:12:00 | -17.0969 | -34.9615 | 182.0 | 4.60 | -22.39 | 1 | 62.9 | 62.1 | -90.4 | 19 | 82.6 |
| 2025-12-11T04:12:00 | -17.0969 | -34.9615 | 190.0 | 9.97 | -20.94 | 1 | 64.8 | 64.8 | -88.4 | 23 | 100.0 |
| 2025-12-11T04:12:00 | -17.0969 | -34.9615 | 198.0 | 14.42 | -33.15 | 1 | 57.8 | 57.8 | -90.6 | 22 | 95.6 |
| 2025-12-11T04:12:00 | -17.0969 | -34.9615 | 206.0 | -1.69 | -16.94 | 1 | 50.7 | 50.7 | -92.8 | 22 | 95.6 |
| 2025-12-11T04:12:00 | -17.0969 | -34.9615 | 214.0 | -5.36 | -13.33 | 1 | 49.7 | 49.7 | -92.4 | 23 | 100.0 |
| 2025-12-11T04:12:00 | -17.0969 | -34.9615 | 222.0 | 9.77 | -20.53 | 1 | 49.4 | 48.7 | -92.0 | 21 | 91.3 |
| 2025-12-11T04:12:00 | -17.0969 | -34.9615 | 230.0 | -1.97 | -14.52 | 1 | 55.2 | 54.8 | -88.6 | 22 | 95.6 |
| 2025-12-11T04:12:00 | -17.0969 | -34.9615 | 238.0 | 7.68 | -9.68 | 1 | 55.4 | 54.5 | -88.0 | 19 | 82.6 |
| 2025-12-11T04:12:00 | -17.0969 | -34.9615 | 246.0 | 3.36 | -16.47 | 1 | 54.7 | 53.7 | -87.5 | 18 | 78.3 |
| 2025-12-11T04:12:00 | -17.0969 | -34.9615 | 254.0 | -8.09 | -19.83 | 1 | 49.9 | 49.3 | -88.7 | 19 | 82.6 |
| 2025-12-11T04:12:00 | -17.0969 | -34.9615 | 262.0 | -1.37 | -21.98 | 1 | 50.6 | 50.9 | -87.3 | 20 | 87.0 |
| 2025-12-11T04:12:00 | -17.0969 | -34.9615 | 270.0 | -13.03 | -17.91 | 1 | 49.2 | 49.1 | -87.3 | 21 | 91.3 |
| 2025-12-11T04:12:00 | -17.0969 | -34.9615 | 278.0 | -5.30 | -15.08 | 1 | 43.1 | 43.1 | -89.2 | 21 | 91.3 |
| 2025-12-11T04:12:00 | -17.0969 | -34.9615 | 286.0 | -8.48 | -9.63 | 1 | 41.5 | 41.5 | -89.1 | 23 | 100.0 |
| 2025-12-11T04:12:00 | -17.0969 | -34.9615 | 294.0 | -4.99 | -13.00 | 1 | 38.8 | 38.8 | -89.6 | 22 | 95.6 |
| 2025-12-11T04:12:00 | -17.0969 | -34.9615 | 302.0 | -2.74 | -19.15 | 1 | 34.6 | 33.8 | -91.1 | 21 | 91.3 |
| 2025-12-11T04:12:00 | -17.0969 | -34.9615 | 310.0 | 4.44 | -10.51 | 1 | 33.1 | 30.4 | -91.9 | 19 | 82.6 |
| 2025-12-11T04:12:00 | -17.0969 | -34.9615 | 318.0 | 10.35 | -30.93 | 1 | 28.1 | 26.3 | -93.1 | 17 | 73.9 |
| 2025-12-11T04:12:00 | -17.0969 | -34.9615 | 326.0 | 6.08 | -14.53 | 1 | 24.8 | 23.0 | -94.0 | 16 | 69.6 |
| 2025-12-11T04:12:00 | -17.0969 | -34.9615 | 334.0 | 14.51 | -10.85 | 1 | 24.6 | 23.4 | -93.1 | 12 | 52.2 |
| 2025-12-11T04:12:00 | -17.0969 | -34.9615 | 342.0 | -11.68 | -22.53 | 1 | 23.4 | 22.1 | -93.1 | 15 | 65.2 |
| 2025-12-11T04:12:00 | -17.0969 | -34.9615 | 350.0 | -13.69 | -24.27 | 1 | 20.7 | 19.5 | -93.7 | 14 | 60.9 |
| 2025-12-11T04:12:00 | -17.0969 | -34.9615 | 358.0 | 15.72 | -30.80 | 1 | 20.4 | 18.3 | -93.6 | 9 | 39.1 |
| 2025-12-11T04:12:00 | -17.0969 | -34.9615 | 366.0 | 5.36 | -17.76 | 1 | 22.6 | 20.1 | -92.1 | 11 | 47.8 |
| 2025-12-11T04:12:00 | -17.0969 | -34.9615 | 374.0 | -2.86 | -21.04 | 1 | 22.5 | 20.2 | -91.5 | 11 | 47.8 |
| 2025-12-11T04:12:00 | -17.0969 | -34.9615 | 382.0 | -6.13 | -32.90 | 1 | 20.8 | 18.8 | -91.5 | 8 | 34.8 |
| 2025-12-11T04:12:00 | -17.0969 | -34.9615 | 390.0 | -34.81 | 9.14 | 4 | 19.5 | 14.9 | -92.9 | 2 | 8.7 |
| 2025-12-11T04:12:00 | -17.0969 | -34.9615 | 406.0 | -53.97 | -33.91 | 4 | 19.3 | 18.8 | -89.7 | 1 | 4.4 |
| 2025-12-11T04:12:00 | -17.0969 | -34.9615 | 430.0 | -43.38 | -67.14 | 4 | 18.8 | 13.0 | -91.0 | 2 | 8.7 |
| 2025-12-11T04:12:00 | -17.0969 | -34.9615 | 438.0 | -17.24 | -69.29 | 4 | 18.2 | 15.0 | -89.3 | 1 | 4.4 |
| 2025-12-11T04:12:00 | -17.0969 | -34.9615 | 446.0 | 23.27 | -63.75 | 4 | 17.5 | 14.8 | -88.8 | 1 | 4.4 |
| 2025-12-11T04:12:00 | -17.0969 | -34.9615 | 462.0 | 23.66 | -66.44 | 4 | 18.0 | 13.1 | -88.6 | 2 | 8.7 |
| 2025-12-11T04:12:00 | -17.0969 | -34.9615 | 470.0 | 19.42 | -49.08 | 4 | 18.0 | 13.4 | -87.9 | 3 | 13.0 |
| 2025-12-11T04:12:00 | -17.0969 | -34.9615 | 478.0 | 95.02 | -57.83 | 4 | 19.8 | 18.2 | -84.7 | 1 | 4.4 |
| 2025-12-11T04:12:00 | -17.0969 | -34.9615 | 486.0 | -6.16 | -2.40 | 4 | 21.8 | 18.2 | -84.2 | 5 | 21.7 |
| 2025-12-11T04:12:00 | -17.0969 | -34.9615 | 494.0 | 14.76 | 1.51 | 1 | 26.6 | 24.9 | -80.3 | 13 | 56.5 |
| 2025-12-11T04:12:00 | -17.0969 | -34.9615 | 502.0 | 3.34 | -23.14 | 1 | 27.2 | 25.5 | -79.5 | 17 | 73.9 |
| 2025-12-11T04:12:00 | -17.0969 | -34.9615 | 510.0 | 11.15 | -16.62 | 1 | 26.5 | 24.3 | -79.5 | 16 | 69.6 |
| 2025-12-11T04:12:00 | -17.0969 | -34.9615 | 518.0 | 13.78 | -15.95 | 1 | 25.4 | 22.2 | -80.0 | 15 | 65.2 |
| 2025-12-11T04:12:00 | -17.0969 | -34.9615 | 526.0 | 1.19 | -19.74 | 1 | 26.8 | 23.2 | -79.0 | 14 | 60.9 |
| 2025-12-11T04:12:00 | -17.0969 | -34.9615 | 534.0 | 4.91 | -30.79 | 1 | 27.4 | 24.4 | -77.9 | 16 | 69.6 |
| 2025-12-11T04:12:00 | -17.0969 | -34.9615 | 542.0 | 9.23 | -16.45 | 1 | 25.8 | 23.7 | -77.7 | 11 | 47.8 |
| 2025-12-11T04:12:00 | -17.0969 | -34.9615 | 550.0 | 7.85 | -42.52 | 1 | 23.4 | 20.1 | -78.9 | 12 | 52.2 |
| 2025-12-11T04:12:00 | -17.0969 | -34.9615 | 558.0 | 3.09 | -41.74 | 4 | 20.5 | 16.2 | -80.3 | 4 | 17.4 |
| 2025-12-11T04:12:00 | -17.0969 | -34.9615 | 566.0 | 18.46 | 3.58 | 4 | 20.9 | 19.7 | -78.0 | 5 | 21.7 |
| 2025-12-11T04:12:00 | -17.0969 | -34.9615 | 574.0 | -1.46 | -44.01 | 1 | 19.9 | 18.1 | -78.3 | 10 | 43.5 |
| 2025-12-11T04:12:00 | -17.0969 | -34.9615 | 582.0 | -13.68 | -57.25 | 4 | 20.1 | 19.9 | -76.9 | 4 | 17.4 |
| 2025-12-11T04:12:00 | -17.0969 | -34.9615 | 590.0 | -15.42 | -15.39 | 4 | 20.5 | 16.7 | -78.1 | 4 | 17.4 |
| 2025-12-11T04:12:00 | -17.0969 | -34.9615 | 598.0 | 6.95 | -12.07 | 4 | 19.4 | 13.5 | -79.3 | 1 | 4.4 |
| 2025-12-11T04:12:00 | -17.0969 | -34.9615 | 622.0 | -2.25 | -40.75 | 4 | 18.6 | 12.8 | -78.3 | 1 | 4.4 |
| 2025-12-11T04:12:00 | -17.0969 | -34.9615 | 686.0 | -13.32 | -38.24 | 4 | 15.7 | 18.8 | -71.2 | 1 | 4.4 |
| 2025-12-11T04:12:00 | -17.0969 | -34.9615 | 702.0 | -2.37 | -36.88 | 4 | 15.3 | 17.8 | -70.8 | 1 | 4.4 |
| 2025-12-11T04:13:00 | -17.0937 | -34.9598 | 22.0 | 3.96 | -24.96 | 1 | 151.7 | 151.7 | -83.2 | 22 | 95.6 |
| 2025-12-11T04:13:00 | -17.0937 | -34.9598 | 30.0 | 2.92 | -33.04 | 1 | 147.7 | 147.7 | -80.5 | 23 | 100.0 |
| 2025-12-11T04:13:00 | -17.0937 | -34.9598 | 38.0 | 1.74 | -28.99 | 1 | 145.0 | 145.2 | -78.4 | 21 | 91.3 |
| 2025-12-11T04:13:00 | -17.0937 | -34.9598 | 46.0 | 9.25 | -35.30 | 1 | 133.5 | 133.5 | -80.9 | 23 | 100.0 |
| 2025-12-11T04:13:00 | -17.0937 | -34.9598 | 54.0 | 6.01 | -29.28 | 1 | 120.3 | 118.7 | -85.1 | 19 | 82.6 |
| 2025-12-11T04:13:00 | -17.0937 | -34.9598 | 62.0 | 4.97 | -20.90 | 1 | 112.4 | 111.0 | -86.6 | 19 | 82.6 |
| 2025-12-11T04:13:00 | -17.0937 | -34.9598 | 70.0 | -0.15 | -20.13 | 1 | 109.5 | 109.3 | -85.7 | 19 | 82.6 |
| 2025-12-11T04:13:00 | -17.0937 | -34.9598 | 78.0 | -12.52 | -25.35 | 1 | 105.6 | 105.6 | -85.7 | 20 | 87.0 |
| 2025-12-11T04:13:00 | -17.0937 | -34.9598 | 86.0 | -3.28 | -11.80 | 1 | 98.4 | 98.7 | -87.3 | 22 | 95.6 |
| 2025-12-11T04:13:00 | -17.0937 | -34.9598 | 94.0 | 3.12 | -36.78 | 1 | 93.6 | 93.6 | -88.2 | 19 | 82.6 |
| 2025-12-11T04:13:00 | -17.0937 | -34.9598 | 102.0 | -5.93 | -28.33 | 1 | 90.1 | 90.0 | -88.5 | 22 | 95.6 |
| 2025-12-11T04:13:00 | -17.0937 | -34.9598 | 110.0 | -2.63 | -21.83 | 1 | 86.7 | 86.8 | -88.7 | 22 | 95.6 |
| 2025-12-11T04:13:00 | -17.0937 | -34.9598 | 118.0 | -2.21 | -23.38 | 1 | 84.6 | 84.2 | -88.7 | 21 | 91.3 |
| 2025-12-11T04:13:00 | -17.0937 | -34.9598 | 126.0 | 0.02 | -36.64 | 1 | 84.2 | 82.0 | -88.6 | 18 | 78.3 |
| 2025-12-11T04:13:00 | -17.0937 | -34.9598 | 134.0 | -2.78 | -39.62 | 1 | 82.8 | 82.8 | -87.2 | 22 | 95.6 |
| 2025-12-11T04:13:00 | -17.0937 | -34.9598 | 142.0 | 7.64 | -24.45 | 1 | 80.9 | 80.9 | -87.0 | 20 | 87.0 |
| 2025-12-11T04:13:00 | -17.0937 | -34.9598 | 150.0 | 13.97 | -16.91 | 1 | 78.4 | 78.4 | -87.1 | 22 | 95.6 |
| 2025-12-11T04:13:00 | -17.0937 | -34.9598 | 158.0 | -3.45 | -23.90 | 1 | 74.4 | 73.7 | -88.2 | 18 | 78.3 |
| 2025-12-11T04:13:00 | -17.0937 | -34.9598 | 166.0 | -12.99 | -35.09 | 1 | 71.4 | 70.5 | -88.6 | 19 | 82.6 |
| 2025-12-11T04:13:00 | -17.0937 | -34.9598 | 174.0 | -15.36 | -30.73 | 1 | 67.7 | 67.7 | -88.9 | 23 | 100.0 |
| 2025-12-11T04:13:00 | -17.0937 | -34.9598 | 182.0 | -3.02 | -13.80 | 1 | 61.9 | 61.3 | -90.8 | 21 | 91.3 |
| 2025-12-11T04:13:00 | -17.0937 | -34.9598 | 190.0 | -2.60 | -32.22 | 1 | 64.4 | 63.0 | -89.2 | 20 | 87.0 |
| 2025-12-11T04:13:00 | -17.0937 | -34.9598 | 198.0 | -1.48 | -29.00 | 1 | 58.4 | 57.8 | -90.5 | 22 | 95.6 |
| 2025-12-11T04:13:00 | -17.0937 | -34.9598 | 206.0 | -1.10 | -20.56 | 1 | 53.0 | 53.0 | -91.8 | 23 | 100.0 |
| 2025-12-11T04:13:00 | -17.0937 | -34.9598 | 214.0 | -8.09 | -26.01 | 1 | 48.3 | 48.3 | -93.0 | 22 | 95.6 |
| 2025-12-11T04:13:00 | -17.0937 | -34.9598 | 222.0 | 14.42 | -12.36 | 1 | 46.8 | 46.8 | -92.8 | 21 | 91.3 |
| 2025-12-11T04:13:00 | -17.0937 | -34.9598 | 230.0 | 26.04 | -13.39 | 1 | 51.6 | 51.6 | -90.0 | 22 | 95.6 |
| 2025-12-11T04:13:00 | -17.0937 | -34.9598 | 238.0 | 16.80 | -6.82 | 1 | 56.4 | 56.2 | -87.3 | 21 | 91.3 |
| 2025-12-11T04:13:00 | -17.0937 | -34.9598 | 246.0 | -0.35 | -6.75 | 1 | 53.9 | 53.9 | -87.5 | 23 | 100.0 |
| 2025-12-11T04:13:00 | -17.0937 | -34.9598 | 254.0 | -1.88 | -5.98 | 1 | 48.6 | 48.4 | -89.1 | 22 | 95.6 |
| 2025-12-11T04:13:00 | -17.0937 | -34.9598 | 262.0 | -6.51 | -2.06 | 1 | 52.6 | 52.3 | -86.7 | 22 | 95.6 |
| 2025-12-11T04:13:00 | -17.0937 | -34.9598 | 270.0 | 6.14 | -8.06 | 1 | 51.2 | 50.8 | -86.6 | 22 | 95.6 |
| 2025-12-11T04:13:00 | -17.0937 | -34.9598 | 278.0 | -5.10 | -16.61 | 1 | 42.2 | 42.2 | -89.6 | 20 | 87.0 |
| 2025-12-11T04:13:00 | -17.0937 | -34.9598 | 286.0 | -15.88 | -24.77 | 1 | 42.1 | 41.6 | -89.1 | 21 | 91.3 |
| 2025-12-11T04:13:00 | -17.0937 | -34.9598 | 294.0 | 0.74 | -21.59 | 1 | 38.4 | 38.4 | -89.8 | 22 | 95.6 |
| 2025-12-11T04:13:00 | -17.0937 | -34.9598 | 302.0 | 9.63 | -12.43 | 1 | 31.6 | 31.6 | -92.1 | 23 | 100.0 |
| 2025-12-11T04:13:00 | -17.0937 | -34.9598 | 310.0 | 5.59 | -13.58 | 1 | 26.9 | 26.2 | -93.8 | 19 | 82.6 |
| 2025-12-11T04:13:00 | -17.0937 | -34.9598 | 318.0 | 7.56 | -15.36 | 1 | 24.0 | 23.5 | -94.4 | 17 | 73.9 |
| 2025-12-11T04:13:00 | -17.0937 | -34.9598 | 326.0 | -3.88 | -10.69 | 1 | 22.7 | 22.0 | -94.5 | 17 | 73.9 |
| 2025-12-11T04:13:00 | -17.0937 | -34.9598 | 334.0 | -1.80 | -24.80 | 1 | 22.4 | 23.3 | -93.2 | 13 | 56.5 |
| 2025-12-11T04:13:00 | -17.0937 | -34.9598 | 342.0 | -4.07 | -13.64 | 1 | 20.3 | 20.1 | -94.1 | 17 | 73.9 |
| 2025-12-11T04:13:00 | -17.0937 | -34.9598 | 350.0 | -0.19 | -25.99 | 1 | 20.5 | 20.4 | -93.2 | 9 | 39.1 |
| 2025-12-11T04:13:00 | -17.0937 | -34.9598 | 358.0 | 6.41 | -32.96 | 1 | 20.6 | 20.4 | -92.6 | 11 | 47.8 |
| 2025-12-11T04:13:00 | -17.0937 | -34.9598 | 366.0 | -3.05 | -0.10 | 1 | 20.4 | 20.3 | -92.0 | 17 | 73.9 |
| 2025-12-11T04:13:00 | -17.0937 | -34.9598 | 374.0 | 8.06 | -36.20 | 1 | 19.3 | 18.8 | -92.2 | 16 | 69.6 |
| 2025-12-11T04:13:00 | -17.0937 | -34.9598 | 382.0 | 9.34 | -30.30 | 1 | 17.7 | 17.4 | -92.2 | 9 | 39.1 |
| 2025-12-11T04:13:00 | -17.0937 | -34.9598 | 390.0 | -10.29 | -6.65 | 4 | 18.7 | 15.1 | -92.8 | 2 | 8.7 |
| 2025-12-11T04:13:00 | -17.0937 | -34.9598 | 422.0 | 9 | 16.9 | 19.8 | -88.0 | 0 | 0.0 | ||
| 2025-12-11T04:13:00 | -17.0937 | -34.9598 | 438.0 | -38.04 | -48.39 | 4 | 18.0 | 15.8 | -88.9 | 2 | 8.7 |
| 2025-12-11T04:13:00 | -17.0937 | -34.9598 | 454.0 | 9 | 18.7 | 19.0 | -86.0 | 0 | 0.0 | ||
| 2025-12-11T04:13:00 | -17.0937 | -34.9598 | 470.0 | 17.06 | -9.44 | 4 | 18.7 | 17.7 | -85.5 | 3 | 13.0 |
| 2025-12-11T04:13:00 | -17.0937 | -34.9598 | 478.0 | 11.80 | 0.37 | 1 | 17.6 | 16.5 | -85.6 | 7 | 30.4 |
| 2025-12-11T04:13:00 | -17.0937 | -34.9598 | 486.0 | 21.44 | -33.48 | 1 | 18.9 | 17.6 | -84.5 | 8 | 34.8 |
| 2025-12-11T04:13:00 | -17.0937 | -34.9598 | 494.0 | 9.52 | 9.14 | 1 | 23.2 | 22.5 | -81.5 | 8 | 34.8 |
| 2025-12-11T04:13:00 | -17.0937 | -34.9598 | 502.0 | -6.67 | -11.85 | 1 | 24.8 | 25.0 | -79.7 | 17 | 73.9 |
| 2025-12-11T04:13:00 | -17.0937 | -34.9598 | 510.0 | -9.43 | -11.41 | 1 | 23.8 | 23.8 | -79.8 | 17 | 73.9 |
| 2025-12-11T04:13:00 | -17.0937 | -34.9598 | 518.0 | 4.52 | -37.31 | 1 | 24.2 | 23.1 | -79.6 | 14 | 60.9 |
| 2025-12-11T04:13:00 | -17.0937 | -34.9598 | 526.0 | 5.24 | -13.98 | 1 | 25.0 | 23.2 | -79.0 | 14 | 60.9 |
| 2025-12-11T04:13:00 | -17.0937 | -34.9598 | 534.0 | -3.33 | -10.10 | 1 | 25.6 | 23.4 | -78.3 | 17 | 73.9 |
| 2025-12-11T04:13:00 | -17.0937 | -34.9598 | 542.0 | -4.97 | -11.25 | 1 | 24.6 | 21.9 | -78.6 | 12 | 52.2 |
| 2025-12-11T04:13:00 | -17.0937 | -34.9598 | 550.0 | -7.08 | -19.48 | 1 | 21.6 | 18.4 | -79.7 | 12 | 52.2 |
| 2025-12-11T04:13:00 | -17.0937 | -34.9598 | 558.0 | 2.18 | -27.32 | 1 | 20.5 | 17.8 | -79.5 | 8 | 34.8 |
| 2025-12-11T04:13:00 | -17.0937 | -34.9598 | 566.0 | -14.49 | 2.25 | 4 | 21.4 | 18.5 | -78.7 | 5 | 21.7 |
| 2025-12-11T04:13:00 | -17.0937 | -34.9598 | 574.0 | 1.49 | -57.15 | 4 | 21.6 | 19.0 | -77.9 | 3 | 13.0 |
| 2025-12-11T04:13:00 | -17.0937 | -34.9598 | 582.0 | 53.44 | -42.83 | 4 | 20.0 | 18.4 | -77.7 | 3 | 13.0 |
| 2025-12-11T04:13:00 | -17.0937 | -34.9598 | 590.0 | -12.73 | 3.27 | 4 | 20.2 | 14.8 | -79.1 | 3 | 13.0 |
| 2025-12-11T04:13:00 | -17.0937 | -34.9598 | 622.0 | 61.28 | -74.94 | 4 | 15.8 | 16.4 | -76.2 | 1 | 4.4 |
| 2025-12-11T04:13:00 | -17.0937 | -34.9598 | 630.0 | 9 | 16.2 | 13.8 | -77.2 | 0 | 0.0 | ||
| 2025-12-11T04:13:00 | -17.0937 | -34.9598 | 670.0 | 46.15 | 46.62 | 4 | 15.6 | 12.0 | -75.8 | 1 | 4.4 |
| 2025-12-11T04:14:00 | -17.0905 | -34.9581 | 22.0 | 24.66 | -26.10 | 1 | 150.3 | 150.3 | -83.7 | 21 | 95.5 |
| 2025-12-11T04:14:00 | -17.0905 | -34.9581 | 30.0 | 10.13 | -37.41 | 1 | 147.4 | 147.4 | -80.6 | 22 | 100.0 |
| 2025-12-11T04:14:00 | -17.0905 | -34.9581 | 38.0 | -0.62 | -26.71 | 1 | 145.1 | 145.1 | -78.5 | 22 | 100.0 |
| 2025-12-11T04:14:00 | -17.0905 | -34.9581 | 46.0 | 0.74 | -25.48 | 1 | 132.0 | 132.0 | -81.6 | 21 | 95.5 |
| 2025-12-11T04:14:00 | -17.0905 | -34.9581 | 54.0 | 7.55 | -32.93 | 1 | 120.0 | 120.0 | -84.6 | 22 | 100.0 |
| 2025-12-11T04:14:00 | -17.0905 | -34.9581 | 62.0 | 15.14 | -22.52 | 1 | 112.3 | 111.2 | -86.5 | 19 | 86.4 |
| 2025-12-11T04:14:00 | -17.0905 | -34.9581 | 70.0 | 2.74 | -16.68 | 1 | 107.8 | 107.8 | -86.3 | 19 | 86.4 |
| 2025-12-11T04:14:00 | -17.0905 | -34.9581 | 78.0 | -1.73 | -14.27 | 1 | 106.9 | 106.9 | -85.2 | 20 | 90.9 |
| 2025-12-11T04:14:00 | -17.0905 | -34.9581 | 86.0 | -10.20 | -31.69 | 1 | 99.8 | 99.6 | -86.9 | 21 | 95.5 |
| 2025-12-11T04:14:00 | -17.0905 | -34.9581 | 94.0 | -14.96 | -41.64 | 1 | 93.7 | 93.6 | -88.1 | 20 | 90.9 |
| 2025-12-11T04:14:00 | -17.0905 | -34.9581 | 102.0 | -10.69 | -29.29 | 1 | 89.4 | 89.4 | -88.7 | 21 | 95.5 |
| 2025-12-11T04:14:00 | -17.0905 | -34.9581 | 110.0 | 4.89 | -14.33 | 1 | 86.7 | 86.7 | -88.7 | 21 | 95.5 |
| 2025-12-11T04:14:00 | -17.0905 | -34.9581 | 118.0 | 1.29 | -29.88 | 1 | 85.2 | 85.2 | -88.2 | 20 | 90.9 |
| 2025-12-11T04:14:00 | -17.0905 | -34.9581 | 126.0 | 0.56 | -30.26 | 1 | 82.3 | 82.3 | -88.4 | 21 | 95.5 |
| 2025-12-11T04:14:00 | -17.0905 | -34.9581 | 134.0 | 1.55 | -30.82 | 1 | 81.5 | 81.5 | -87.7 | 22 | 100.0 |
| 2025-12-11T04:14:00 | -17.0905 | -34.9581 | 142.0 | -5.46 | -26.61 | 1 | 81.1 | 81.1 | -86.9 | 22 | 100.0 |
| 2025-12-11T04:14:00 | -17.0905 | -34.9581 | 150.0 | -5.39 | -14.58 | 1 | 79.8 | 78.8 | -86.9 | 19 | 86.4 |
| 2025-12-11T04:14:00 | -17.0905 | -34.9581 | 158.0 | -2.05 | -28.62 | 1 | 74.0 | 74.0 | -88.1 | 21 | 95.5 |
| 2025-12-11T04:14:00 | -17.0905 | -34.9581 | 166.0 | 18.18 | -35.49 | 1 | 70.0 | 70.0 | -88.8 | 20 | 90.9 |
| 2025-12-11T04:14:00 | -17.0905 | -34.9581 | 174.0 | 9.24 | -32.40 | 1 | 67.4 | 67.5 | -89.0 | 19 | 86.4 |
| 2025-12-11T04:14:00 | -17.0905 | -34.9581 | 182.0 | -2.06 | -15.58 | 1 | 62.0 | 61.4 | -90.7 | 21 | 95.5 |
| 2025-12-11T04:14:00 | -17.0905 | -34.9581 | 190.0 | 0.64 | -16.70 | 1 | 64.1 | 63.6 | -88.9 | 20 | 90.9 |
| 2025-12-11T04:14:00 | -17.0905 | -34.9581 | 198.0 | -4.11 | -26.42 | 1 | 61.8 | 61.3 | -89.0 | 21 | 95.5 |
| 2025-12-11T04:14:00 | -17.0905 | -34.9581 | 206.0 | -24.96 | -19.83 | 1 | 53.8 | 53.8 | -91.4 | 22 | 100.0 |
| 2025-12-11T04:14:00 | -17.0905 | -34.9581 | 214.0 | -16.74 | -13.97 | 1 | 49.6 | 49.6 | -92.4 | 21 | 95.5 |
| 2025-12-11T04:14:00 | -17.0905 | -34.9581 | 222.0 | -0.53 | -23.17 | 1 | 50.0 | 50.0 | -91.5 | 22 | 100.0 |
| 2025-12-11T04:14:00 | -17.0905 | -34.9581 | 230.0 | -0.18 | -19.37 | 1 | 50.4 | 50.4 | -90.5 | 21 | 95.5 |
| 2025-12-11T04:14:00 | -17.0905 | -34.9581 | 238.0 | -0.20 | -8.76 | 1 | 52.4 | 51.9 | -89.1 | 21 | 95.5 |
| 2025-12-11T04:14:00 | -17.0905 | -34.9581 | 246.0 | 7.14 | -3.59 | 1 | 52.8 | 51.8 | -88.4 | 19 | 86.4 |
| 2025-12-11T04:14:00 | -17.0905 | -34.9581 | 254.0 | -1.77 | -0.84 | 1 | 50.0 | 50.0 | -88.4 | 21 | 95.5 |
| 2025-12-11T04:14:00 | -17.0905 | -34.9581 | 262.0 | -10.91 | 1.96 | 1 | 50.2 | 50.2 | -87.6 | 21 | 95.5 |
| 2025-12-11T04:14:00 | -17.0905 | -34.9581 | 270.0 | -5.55 | -11.88 | 1 | 48.0 | 48.0 | -87.8 | 22 | 100.0 |
| 2025-12-11T04:14:00 | -17.0905 | -34.9581 | 278.0 | 0.67 | -15.03 | 1 | 43.5 | 43.5 | -89.0 | 22 | 100.0 |
| 2025-12-11T04:14:00 | -17.0905 | -34.9581 | 286.0 | -5.71 | -27.56 | 1 | 38.5 | 37.9 | -90.7 | 17 | 77.3 |
| 2025-12-11T04:14:00 | -17.0905 | -34.9581 | 294.0 | 0.21 | -17.30 | 1 | 32.8 | 32.8 | -92.3 | 22 | 100.0 |
| 2025-12-11T04:14:00 | -17.0905 | -34.9581 | 302.0 | 3.70 | -23.83 | 1 | 29.2 | 29.1 | -93.2 | 19 | 86.4 |
| 2025-12-11T04:14:00 | -17.0905 | -34.9581 | 310.0 | -8.04 | -11.16 | 1 | 27.0 | 26.2 | -93.8 | 18 | 81.8 |
| 2025-12-11T04:14:00 | -17.0905 | -34.9581 | 318.0 | -13.64 | -14.23 | 1 | 23.8 | 22.5 | -94.9 | 19 | 86.4 |
| 2025-12-11T04:14:00 | -17.0905 | -34.9581 | 326.0 | 7.64 | -8.11 | 1 | 23.9 | 22.8 | -94.1 | 17 | 77.3 |
| 2025-12-11T04:14:00 | -17.0905 | -34.9581 | 334.0 | -14.39 | -25.62 | 1 | 23.0 | 21.9 | -93.9 | 15 | 68.2 |
| 2025-12-11T04:14:00 | -17.0905 | -34.9581 | 342.0 | -13.90 | -15.08 | 1 | 21.7 | 19.9 | -94.2 | 12 | 54.5 |
| 2025-12-11T04:14:00 | -17.0905 | -34.9581 | 350.0 | -4.00 | -2.75 | 1 | 21.3 | 19.6 | -93.7 | 12 | 54.5 |
| 2025-12-11T04:14:00 | -17.0905 | -34.9581 | 358.0 | -8.24 | -18.10 | 1 | 21.7 | 19.9 | -92.8 | 17 | 77.3 |
| 2025-12-11T04:14:00 | -17.0905 | -34.9581 | 366.0 | 7.39 | -21.08 | 1 | 20.6 | 19.2 | -92.5 | 12 | 54.5 |
| 2025-12-11T04:14:00 | -17.0905 | -34.9581 | 374.0 | 6.02 | -19.26 | 1 | 19.3 | 16.8 | -93.2 | 7 | 31.8 |
| 2025-12-11T04:14:00 | -17.0905 | -34.9581 | 382.0 | -1.68 | -20.35 | 4 | 18.9 | 17.8 | -92.0 | 4 | 18.2 |
| 2025-12-11T04:14:00 | -17.0905 | -34.9581 | 398.0 | 84.45 | 3.09 | 4 | 19.0 | 23.2 | -88.1 | 1 | 4.5 |
| 2025-12-11T04:14:00 | -17.0905 | -34.9581 | 406.0 | 20.01 | 0.43 | 4 | 17.1 | 13.9 | -92.3 | 2 | 9.1 |
| 2025-12-11T04:14:00 | -17.0905 | -34.9581 | 414.0 | -27.62 | -10.78 | 4 | 17.0 | 19.2 | -88.8 | 1 | 4.5 |
| 2025-12-11T04:14:00 | -17.0905 | -34.9581 | 422.0 | 5.83 | -49.95 | 4 | 18.2 | 21.8 | -87.0 | 1 | 4.5 |
| 2025-12-11T04:14:00 | -17.0905 | -34.9581 | 430.0 | -2.16 | -20.89 | 4 | 19.1 | 16.5 | -89.1 | 2 | 9.1 |
| 2025-12-11T04:14:00 | -17.0905 | -34.9581 | 438.0 | 2.94 | 25.30 | 4 | 19.2 | 13.5 | -90.1 | 1 | 4.5 |
| 2025-12-11T04:14:00 | -17.0905 | -34.9581 | 446.0 | 24.02 | -54.43 | 4 | 20.3 | 18.8 | -86.7 | 1 | 4.5 |
| 2025-12-11T04:14:00 | -17.0905 | -34.9581 | 462.0 | 10.25 | -11.68 | 4 | 19.6 | 11.5 | -89.6 | 1 | 4.5 |
| 2025-12-11T04:14:00 | -17.0905 | -34.9581 | 470.0 | 14.97 | 1.91 | 4 | 20.3 | 16.4 | -86.2 | 3 | 13.6 |
| 2025-12-11T04:14:00 | -17.0905 | -34.9581 | 478.0 | -0.72 | 2.26 | 4 | 20.3 | 18.2 | -84.7 | 5 | 22.7 |
| 2025-12-11T04:14:00 | -17.0905 | -34.9581 | 486.0 | 8.12 | -15.07 | 4 | 21.9 | 20.1 | -83.2 | 3 | 13.6 |
| 2025-12-11T04:14:00 | -17.0905 | -34.9581 | 494.0 | -2.20 | 11.82 | 1 | 24.9 | 21.4 | -82.0 | 6 | 27.3 |
| 2025-12-11T04:14:00 | -17.0905 | -34.9581 | 502.0 | 18.12 | 1.66 | 1 | 26.1 | 24.1 | -80.2 | 9 | 40.9 |
| 2025-12-11T04:14:00 | -17.0905 | -34.9581 | 510.0 | 7.10 | -0.84 | 1 | 25.7 | 22.3 | -80.5 | 14 | 63.6 |
| 2025-12-11T04:14:00 | -17.0905 | -34.9581 | 518.0 | 23.35 | -1.98 | 1 | 26.0 | 23.0 | -79.6 | 14 | 63.6 |
| 2025-12-11T04:14:00 | -17.0905 | -34.9581 | 526.0 | 10.67 | -21.62 | 1 | 27.0 | 23.8 | -78.7 | 17 | 77.3 |
| 2025-12-11T04:14:00 | -17.0905 | -34.9581 | 534.0 | 19.49 | -13.03 | 1 | 26.6 | 22.6 | -78.7 | 13 | 59.1 |
| 2025-12-11T04:14:00 | -17.0905 | -34.9581 | 542.0 | 8.29 | -15.78 | 1 | 24.1 | 21.2 | -78.9 | 14 | 63.6 |
| 2025-12-11T04:14:00 | -17.0905 | -34.9581 | 550.0 | 12.83 | -20.95 | 1 | 22.9 | 21.2 | -78.4 | 11 | 50.0 |
| 2025-12-11T04:14:00 | -17.0905 | -34.9581 | 558.0 | 9.64 | -23.15 | 1 | 21.2 | 19.2 | -78.8 | 8 | 36.4 |
| 2025-12-11T04:14:00 | -17.0905 | -34.9581 | 566.0 | 45.17 | 8.94 | 4 | 22.9 | 18.8 | -78.5 | 2 | 9.1 |
| 2025-12-11T04:14:00 | -17.0905 | -34.9581 | 574.0 | 30.16 | -8.81 | 4 | 21.5 | 19.6 | -77.6 | 3 | 13.6 |
| 2025-12-11T04:14:00 | -17.0905 | -34.9581 | 582.0 | 17.65 | -53.61 | 4 | 21.1 | 18.8 | -77.5 | 3 | 13.6 |
| 2025-12-11T04:14:00 | -17.0905 | -34.9581 | 590.0 | 9 | 18.9 | 12.5 | -80.4 | 0 | 0.0 | ||
| 2025-12-11T04:14:00 | -17.0905 | -34.9581 | 638.0 | 117.27 | 78.41 | 4 | 17.8 | 13.8 | -76.7 | 1 | 4.5 |
| 2025-12-11T04:14:00 | -17.0905 | -34.9581 | 814.0 | 31.63 | -94.42 | 4 | 16.3 | 22.0 | -62.4 | 1 | 4.5 |
| 2025-12-11T04:15:00 | -17.0873 | -34.9564 | 22.0 | 14.20 | -27.28 | 1 | 148.8 | 148.8 | -84.4 | 21 | 91.3 |
| 2025-12-11T04:15:00 | -17.0873 | -34.9564 | 30.0 | 2.87 | -11.60 | 1 | 145.2 | 145.2 | -81.6 | 23 | 100.0 |
| 2025-12-11T04:15:00 | -17.0873 | -34.9564 | 38.0 | -2.77 | -19.10 | 1 | 144.5 | 144.7 | -78.7 | 19 | 82.6 |
| 2025-12-11T04:15:00 | -17.0873 | -34.9564 | 46.0 | 13.21 | -23.01 | 1 | 134.4 | 133.1 | -81.1 | 18 | 78.3 |
| 2025-12-11T04:15:00 | -17.0873 | -34.9564 | 54.0 | 7.42 | -29.77 | 1 | 121.1 | 121.1 | -84.1 | 22 | 95.6 |
| 2025-12-11T04:15:00 | -17.0873 | -34.9564 | 62.0 | 7.06 | -19.27 | 1 | 111.2 | 111.2 | -86.5 | 22 | 95.6 |
| 2025-12-11T04:15:00 | -17.0873 | -34.9564 | 70.0 | -8.57 | -27.58 | 1 | 106.0 | 106.0 | -87.1 | 21 | 91.3 |
| 2025-12-11T04:15:00 | -17.0873 | -34.9564 | 78.0 | -7.89 | -4.48 | 1 | 105.5 | 105.5 | -85.8 | 22 | 95.6 |
| 2025-12-11T04:15:00 | -17.0873 | -34.9564 | 86.0 | -16.71 | -25.13 | 1 | 102.8 | 102.1 | -85.8 | 21 | 91.3 |
| 2025-12-11T04:15:00 | -17.0873 | -34.9564 | 94.0 | -8.81 | -26.48 | 1 | 91.1 | 91.1 | -89.2 | 22 | 95.6 |
| 2025-12-11T04:15:00 | -17.0873 | -34.9564 | 102.0 | -5.55 | -24.01 | 1 | 88.7 | 89.1 | -88.9 | 20 | 87.0 |
| 2025-12-11T04:15:00 | -17.0873 | -34.9564 | 110.0 | 0.19 | -16.39 | 1 | 86.2 | 86.5 | -88.8 | 21 | 91.3 |
| 2025-12-11T04:15:00 | -17.0873 | -34.9564 | 118.0 | 0.64 | -14.00 | 1 | 85.1 | 84.9 | -88.4 | 21 | 91.3 |
| 2025-12-11T04:15:00 | -17.0873 | -34.9564 | 126.0 | -1.29 | -21.66 | 1 | 84.4 | 83.9 | -87.7 | 19 | 82.6 |
| 2025-12-11T04:15:00 | -17.0873 | -34.9564 | 134.0 | 0.40 | -25.28 | 1 | 80.6 | 80.1 | -88.3 | 22 | 95.6 |
| 2025-12-11T04:15:00 | -17.0873 | -34.9564 | 142.0 | 5.87 | -18.95 | 1 | 81.6 | 81.6 | -86.7 | 23 | 100.0 |
| 2025-12-11T04:15:00 | -17.0873 | -34.9564 | 150.0 | -5.10 | -34.38 | 1 | 79.4 | 79.4 | -86.7 | 23 | 100.0 |
| 2025-12-11T04:15:00 | -17.0873 | -34.9564 | 158.0 | -7.87 | -27.76 | 1 | 76.9 | 76.9 | -86.8 | 23 | 100.0 |
| 2025-12-11T04:15:00 | -17.0873 | -34.9564 | 166.0 | -6.63 | -21.27 | 1 | 71.2 | 71.2 | -88.3 | 22 | 95.6 |
| 2025-12-11T04:15:00 | -17.0873 | -34.9564 | 174.0 | 8.33 | -10.33 | 1 | 67.6 | 67.6 | -88.9 | 23 | 100.0 |
| 2025-12-11T04:15:00 | -17.0873 | -34.9564 | 182.0 | 7.19 | -9.91 | 1 | 62.6 | 62.2 | -90.4 | 21 | 91.3 |
| 2025-12-11T04:15:00 | -17.0873 | -34.9564 | 190.0 | 3.71 | -25.54 | 1 | 63.5 | 62.5 | -89.4 | 20 | 87.0 |
| 2025-12-11T04:15:00 | -17.0873 | -34.9564 | 198.0 | 7.64 | -27.98 | 1 | 62.8 | 61.2 | -89.1 | 17 | 73.9 |
| 2025-12-11T04:15:00 | -17.0873 | -34.9564 | 206.0 | -3.31 | -17.77 | 1 | 54.8 | 54.8 | -91.0 | 22 | 95.6 |
| 2025-12-11T04:15:00 | -17.0873 | -34.9564 | 214.0 | 5.66 | -16.86 | 1 | 50.0 | 49.6 | -92.4 | 19 | 82.6 |
| 2025-12-11T04:15:00 | -17.0873 | -34.9564 | 222.0 | 10.74 | -13.43 | 1 | 46.5 | 46.0 | -93.2 | 19 | 82.6 |
| 2025-12-11T04:15:00 | -17.0873 | -34.9564 | 230.0 | 10.97 | -2.62 | 1 | 49.4 | 49.8 | -90.8 | 20 | 87.0 |
| 2025-12-11T04:15:00 | -17.0873 | -34.9564 | 238.0 | 2.04 | -14.07 | 1 | 50.5 | 51.0 | -89.5 | 20 | 87.0 |
| 2025-12-11T04:15:00 | -17.0873 | -34.9564 | 246.0 | 2.27 | -13.09 | 1 | 51.3 | 51.0 | -88.7 | 22 | 95.6 |
| 2025-12-11T04:15:00 | -17.0873 | -34.9564 | 254.0 | 16.47 | -13.79 | 1 | 49.8 | 49.3 | -88.7 | 20 | 87.0 |
| 2025-12-11T04:15:00 | -17.0873 | -34.9564 | 262.0 | 7.93 | -1.90 | 1 | 49.8 | 49.8 | -87.7 | 23 | 100.0 |
| 2025-12-11T04:15:00 | -17.0873 | -34.9564 | 270.0 | 11.85 | -11.02 | 1 | 45.0 | 45.4 | -88.9 | 20 | 87.0 |
| 2025-12-11T04:15:00 | -17.0873 | -34.9564 | 278.0 | 7.29 | -23.95 | 1 | 38.6 | 38.2 | -91.3 | 21 | 91.3 |
| 2025-12-11T04:15:00 | -17.0873 | -34.9564 | 286.0 | 7.29 | -13.59 | 1 | 35.4 | 35.4 | -91.8 | 23 | 100.0 |
| 2025-12-11T04:15:00 | -17.0873 | -34.9564 | 294.0 | 0.98 | -16.31 | 1 | 32.1 | 31.9 | -92.6 | 22 | 95.6 |
| 2025-12-11T04:15:00 | -17.0873 | -34.9564 | 302.0 | 7.25 | -22.31 | 1 | 28.1 | 28.1 | -93.6 | 23 | 100.0 |
| 2025-12-11T04:15:00 | -17.0873 | -34.9564 | 310.0 | 5.30 | -11.76 | 1 | 25.4 | 26.0 | -93.9 | 17 | 73.9 |
| 2025-12-11T04:15:00 | -17.0873 | -34.9564 | 318.0 | -2.08 | -3.70 | 1 | 22.1 | 22.1 | -95.1 | 17 | 73.9 |
| 2025-12-11T04:15:00 | -17.0873 | -34.9564 | 326.0 | -20.13 | -12.99 | 1 | 20.4 | 20.7 | -95.1 | 16 | 69.6 |
| 2025-12-11T04:15:00 | -17.0873 | -34.9564 | 334.0 | 9.40 | -30.87 | 1 | 19.7 | 19.7 | -94.9 | 16 | 69.6 |
| 2025-12-11T04:15:00 | -17.0873 | -34.9564 | 342.0 | -6.56 | -17.05 | 1 | 19.0 | 18.6 | -94.8 | 13 | 56.5 |
| 2025-12-11T04:15:00 | -17.0873 | -34.9564 | 350.0 | -6.27 | -39.23 | 1 | 21.4 | 19.8 | -93.6 | 11 | 47.8 |
| 2025-12-11T04:15:00 | -17.0873 | -34.9564 | 358.0 | -2.78 | -18.44 | 1 | 22.1 | 19.9 | -92.9 | 14 | 60.9 |
| 2025-12-11T04:15:00 | -17.0873 | -34.9564 | 366.0 | 2.62 | -30.52 | 1 | 21.9 | 19.6 | -92.4 | 14 | 60.9 |
| 2025-12-11T04:15:00 | -17.0873 | -34.9564 | 374.0 | -23.75 | -33.00 | 1 | 21.6 | 19.2 | -91.9 | 12 | 52.2 |
| 2025-12-11T04:15:00 | -17.0873 | -34.9564 | 382.0 | 14.34 | -5.36 | 1 | 21.1 | 17.5 | -92.2 | 6 | 26.1 |
| 2025-12-11T04:15:00 | -17.0873 | -34.9564 | 390.0 | -35.06 | -24.10 | 4 | 19.2 | 19.2 | -90.7 | 1 | 4.4 |
| 2025-12-11T04:15:00 | -17.0873 | -34.9564 | 398.0 | 1.36 | 54.93 | 4 | 19.6 | 13.0 | -93.4 | 1 | 4.4 |
| 2025-12-11T04:15:00 | -17.0873 | -34.9564 | 406.0 | 3.91 | -18.52 | 4 | 18.4 | 13.8 | -92.4 | 1 | 4.4 |
| 2025-12-11T04:15:00 | -17.0873 | -34.9564 | 414.0 | 60.78 | -17.20 | 4 | 17.8 | 20.2 | -88.3 | 1 | 4.4 |
| 2025-12-11T04:15:00 | -17.0873 | -34.9564 | 422.0 | 23.75 | 9.52 | 4 | 16.7 | 21.5 | -87.1 | 1 | 4.4 |
| 2025-12-11T04:15:00 | -17.0873 | -34.9564 | 438.0 | -69.06 | -65.38 | 4 | 15.4 | 17.4 | -88.0 | 1 | 4.4 |
| 2025-12-11T04:15:00 | -17.0873 | -34.9564 | 446.0 | 22.91 | 23.90 | 4 | 15.6 | 17.2 | -87.5 | 2 | 8.7 |
| 2025-12-11T04:15:00 | -17.0873 | -34.9564 | 462.0 | -6.21 | -18.84 | 4 | 17.0 | 17.5 | -86.2 | 2 | 8.7 |
| 2025-12-11T04:15:00 | -17.0873 | -34.9564 | 470.0 | 12.75 | -17.80 | 1 | 17.3 | 16.8 | -86.0 | 6 | 26.1 |
| 2025-12-11T04:15:00 | -17.0873 | -34.9564 | 478.0 | 5.65 | -9.41 | 4 | 17.1 | 15.5 | -86.2 | 5 | 21.7 |
| 2025-12-11T04:15:00 | -17.0873 | -34.9564 | 486.0 | 13.28 | -19.59 | 4 | 18.1 | 16.6 | -85.0 | 5 | 21.7 |
| 2025-12-11T04:15:00 | -17.0873 | -34.9564 | 494.0 | 9.01 | -8.37 | 1 | 20.1 | 17.4 | -84.0 | 10 | 43.5 |
| 2025-12-11T04:15:00 | -17.0873 | -34.9564 | 502.0 | -1.43 | -12.24 | 1 | 23.7 | 22.6 | -80.9 | 15 | 65.2 |
| 2025-12-11T04:15:00 | -17.0873 | -34.9564 | 510.0 | 3.30 | -9.71 | 1 | 25.9 | 22.8 | -80.2 | 15 | 65.2 |
| 2025-12-11T04:15:00 | -17.0873 | -34.9564 | 518.0 | 8.23 | -5.89 | 1 | 25.8 | 23.0 | -79.6 | 17 | 73.9 |
| 2025-12-11T04:15:00 | -17.0873 | -34.9564 | 526.0 | -2.49 | -22.96 | 1 | 24.9 | 21.9 | -79.6 | 14 | 60.9 |
| 2025-12-11T04:15:00 | -17.0873 | -34.9564 | 534.0 | -1.50 | -21.03 | 1 | 26.9 | 25.1 | -77.6 | 9 | 39.1 |
| 2025-12-11T04:15:00 | -17.0873 | -34.9564 | 542.0 | 2.53 | -10.22 | 1 | 24.8 | 22.9 | -78.1 | 14 | 60.9 |
| 2025-12-11T04:15:00 | -17.0873 | -34.9564 | 550.0 | 2.39 | -23.65 | 1 | 23.6 | 21.2 | -78.4 | 12 | 52.2 |
| 2025-12-11T04:15:00 | -17.0873 | -34.9564 | 558.0 | -7.94 | -25.06 | 1 | 20.5 | 18.5 | -79.2 | 8 | 34.8 |
| 2025-12-11T04:15:00 | -17.0873 | -34.9564 | 566.0 | -16.66 | -52.38 | 1 | 19.4 | 18.9 | -78.5 | 7 | 30.4 |
| 2025-12-11T04:15:00 | -17.0873 | -34.9564 | 574.0 | -11.30 | -27.12 | 1 | 18.4 | 18.2 | -78.3 | 8 | 34.8 |
| 2025-12-11T04:15:00 | -17.0873 | -34.9564 | 582.0 | -9.53 | -28.24 | 4 | 19.2 | 21.1 | -76.4 | 3 | 13.0 |
| 2025-12-11T04:15:00 | -17.0873 | -34.9564 | 590.0 | 92.55 | 2.40 | 4 | 18.7 | 19.2 | -76.8 | 1 | 4.4 |
| 2025-12-11T04:15:00 | -17.0873 | -34.9564 | 598.0 | 20.70 | 2.81 | 4 | 17.4 | 16.5 | -77.7 | 1 | 4.4 |
| 2025-12-11T04:15:00 | -17.0873 | -34.9564 | 614.0 | -0.37 | -20.95 | 4 | 17.4 | 19.5 | -75.1 | 1 | 4.4 |
| 2025-12-11T04:15:00 | -17.0873 | -34.9564 | 622.0 | -12.10 | -34.75 | 4 | 16.5 | 16.1 | -76.4 | 2 | 8.7 |
| 2025-12-11T04:15:00 | -17.0873 | -34.9564 | 630.0 | 27.70 | -14.82 | 4 | 16.8 | 16.5 | -75.7 | 1 | 4.4 |
| 2025-12-11T04:15:00 | -17.0873 | -34.9564 | 646.0 | -13.07 | -23.03 | 4 | 15.7 | 11.8 | -77.4 | 1 | 4.4 |
| 2025-12-11T04:15:00 | -17.0873 | -34.9564 | 662.0 | -50.78 | 0.56 | 4 | 15.1 | 16.0 | -74.0 | 1 | 4.4 |
| 2025-12-11T04:16:00 | -17.0842 | -34.9547 | 22.0 | 11.14 | -22.24 | 1 | 146.6 | 146.8 | -85.3 | 22 | 95.6 |
| 2025-12-11T04:16:00 | -17.0842 | -34.9547 | 30.0 | 6.12 | -32.42 | 1 | 144.9 | 144.9 | -81.7 | 23 | 100.0 |
| 2025-12-11T04:16:00 | -17.0842 | -34.9547 | 38.0 | 1.48 | -13.74 | 1 | 146.0 | 145.6 | -78.3 | 22 | 95.6 |
| 2025-12-11T04:16:00 | -17.0842 | -34.9547 | 46.0 | -4.48 | -28.56 | 1 | 134.5 | 132.5 | -81.4 | 17 | 73.9 |
| 2025-12-11T04:16:00 | -17.0842 | -34.9547 | 54.0 | -11.45 | -35.54 | 1 | 117.5 | 116.3 | -86.2 | 21 | 91.3 |
| 2025-12-11T04:16:00 | -17.0842 | -34.9547 | 62.0 | -1.25 | -32.85 | 1 | 109.7 | 109.0 | -87.4 | 20 | 87.0 |
| 2025-12-11T04:16:00 | -17.0842 | -34.9547 | 70.0 | -1.64 | -20.07 | 1 | 105.7 | 105.7 | -87.2 | 23 | 100.0 |
| 2025-12-11T04:16:00 | -17.0842 | -34.9547 | 78.0 | 0.07 | -16.78 | 1 | 104.9 | 104.9 | -86.1 | 23 | 100.0 |
| 2025-12-11T04:16:00 | -17.0842 | -34.9547 | 86.0 | -9.18 | -13.42 | 1 | 96.0 | 96.0 | -88.4 | 21 | 91.3 |
| 2025-12-11T04:16:00 | -17.0842 | -34.9547 | 94.0 | -5.07 | -19.42 | 1 | 88.1 | 88.6 | -90.3 | 20 | 87.0 |
| 2025-12-11T04:16:00 | -17.0842 | -34.9547 | 102.0 | 6.81 | -31.85 | 1 | 88.8 | 88.8 | -89.0 | 22 | 95.6 |
| 2025-12-11T04:16:00 | -17.0842 | -34.9547 | 110.0 | 5.76 | -28.41 | 1 | 85.6 | 85.6 | -89.2 | 21 | 91.3 |
| 2025-12-11T04:16:00 | -17.0842 | -34.9547 | 118.0 | -13.51 | -23.70 | 1 | 82.9 | 82.9 | -89.2 | 22 | 95.6 |
| 2025-12-11T04:16:00 | -17.0842 | -34.9547 | 126.0 | 7.92 | -22.23 | 1 | 81.8 | 82.2 | -88.5 | 21 | 91.3 |
| 2025-12-11T04:16:00 | -17.0842 | -34.9547 | 134.0 | -4.39 | -24.99 | 1 | 81.8 | 81.8 | -87.6 | 22 | 95.6 |
| 2025-12-11T04:16:00 | -17.0842 | -34.9547 | 142.0 | 0.63 | -42.33 | 1 | 82.9 | 82.0 | -86.5 | 20 | 87.0 |
| 2025-12-11T04:16:00 | -17.0842 | -34.9547 | 150.0 | 4.14 | -17.09 | 1 | 79.0 | 77.9 | -87.3 | 20 | 87.0 |
| 2025-12-11T04:16:00 | -17.0842 | -34.9547 | 158.0 | -4.97 | -26.56 | 1 | 76.6 | 76.5 | -87.0 | 20 | 87.0 |
| 2025-12-11T04:16:00 | -17.0842 | -34.9547 | 166.0 | 6.71 | -10.42 | 1 | 72.9 | 71.8 | -88.0 | 16 | 69.6 |
| 2025-12-11T04:16:00 | -17.0842 | -34.9547 | 174.0 | 3.64 | -19.21 | 1 | 68.5 | 68.6 | -88.5 | 19 | 82.6 |
| 2025-12-11T04:16:00 | -17.0842 | -34.9547 | 182.0 | -6.57 | -20.24 | 1 | 62.6 | 62.6 | -90.2 | 20 | 87.0 |
| 2025-12-11T04:16:00 | -17.0842 | -34.9547 | 190.0 | -12.80 | -24.60 | 1 | 61.4 | 60.9 | -90.1 | 20 | 87.0 |
| 2025-12-11T04:16:00 | -17.0842 | -34.9547 | 198.0 | 17.35 | -31.96 | 1 | 62.0 | 62.0 | -88.8 | 23 | 100.0 |
| 2025-12-11T04:16:00 | -17.0842 | -34.9547 | 206.0 | 1.48 | -19.43 | 1 | 55.1 | 54.7 | -91.1 | 20 | 87.0 |
| 2025-12-11T04:16:00 | -17.0842 | -34.9547 | 214.0 | 5.21 | -11.52 | 1 | 51.6 | 51.8 | -91.5 | 22 | 95.6 |
| 2025-12-11T04:16:00 | -17.0842 | -34.9547 | 222.0 | 10.58 | -12.02 | 1 | 48.7 | 48.5 | -92.1 | 20 | 87.0 |
| 2025-12-11T04:16:00 | -17.0842 | -34.9547 | 230.0 | 0.17 | -2.81 | 1 | 50.6 | 50.1 | -90.6 | 21 | 91.3 |
| 2025-12-11T04:16:00 | -17.0842 | -34.9547 | 238.0 | 7.81 | -21.46 | 1 | 50.6 | 50.5 | -89.7 | 21 | 91.3 |
| 2025-12-11T04:16:00 | -17.0842 | -34.9547 | 246.0 | 7.35 | -16.53 | 1 | 48.8 | 48.7 | -89.7 | 20 | 87.0 |
| 2025-12-11T04:16:00 | -17.0842 | -34.9547 | 254.0 | 5.31 | -21.60 | 1 | 50.0 | 49.6 | -88.6 | 21 | 91.3 |
| 2025-12-11T04:16:00 | -17.0842 | -34.9547 | 262.0 | 8.19 | -26.51 | 1 | 48.3 | 48.1 | -88.5 | 22 | 95.6 |
| 2025-12-11T04:16:00 | -17.0842 | -34.9547 | 270.0 | 12.46 | -25.90 | 1 | 45.0 | 45.0 | -89.1 | 21 | 91.3 |
| 2025-12-11T04:16:00 | -17.0842 | -34.9547 | 278.0 | 3.55 | -33.01 | 1 | 39.3 | 38.5 | -91.1 | 19 | 82.6 |
| 2025-12-11T04:16:00 | -17.0842 | -34.9547 | 286.0 | -1.42 | -15.88 | 1 | 35.6 | 34.8 | -92.0 | 22 | 95.6 |
| 2025-12-11T04:16:00 | -17.0842 | -34.9547 | 294.0 | -13.78 | -11.69 | 1 | 31.8 | 31.0 | -93.0 | 21 | 91.3 |
| 2025-12-11T04:16:00 | -17.0842 | -34.9547 | 302.0 | 4.53 | -28.99 | 1 | 26.5 | 25.8 | -94.7 | 20 | 87.0 |
| 2025-12-11T04:16:00 | -17.0842 | -34.9547 | 310.0 | 4.67 | -20.31 | 1 | 23.1 | 21.4 | -96.1 | 16 | 69.6 |
| 2025-12-11T04:16:00 | -17.0842 | -34.9547 | 318.0 | -9.09 | -8.48 | 1 | 23.8 | 22.0 | -95.1 | 16 | 69.6 |
| 2025-12-11T04:16:00 | -17.0842 | -34.9547 | 326.0 | -20.49 | -7.01 | 1 | 26.0 | 21.3 | -94.8 | 16 | 69.6 |
| 2025-12-11T04:16:00 | -17.0842 | -34.9547 | 334.0 | -3.45 | -23.90 | 1 | 24.0 | 20.8 | -94.4 | 11 | 47.8 |
| 2025-12-11T04:16:00 | -17.0842 | -34.9547 | 342.0 | 0.01 | -35.66 | 1 | 23.7 | 20.8 | -93.7 | 11 | 47.8 |
| 2025-12-11T04:16:00 | -17.0842 | -34.9547 | 350.0 | -2.60 | -17.19 | 1 | 24.4 | 21.1 | -92.9 | 14 | 60.9 |
| 2025-12-11T04:16:00 | -17.0842 | -34.9547 | 358.0 | 0.72 | -12.63 | 1 | 23.0 | 21.1 | -92.3 | 17 | 73.9 |
| 2025-12-11T04:16:00 | -17.0842 | -34.9547 | 366.0 | -20.50 | -17.31 | 1 | 22.5 | 19.6 | -92.4 | 10 | 43.5 |
| 2025-12-11T04:16:00 | -17.0842 | -34.9547 | 374.0 | 9.33 | -37.51 | 1 | 21.4 | 17.3 | -92.9 | 7 | 30.4 |
| 2025-12-11T04:16:00 | -17.0842 | -34.9547 | 382.0 | 9.33 | -36.46 | 1 | 19.4 | 15.2 | -93.4 | 6 | 26.1 |
| 2025-12-11T04:16:00 | -17.0842 | -34.9547 | 390.0 | 9 | 19.1 | 13.8 | -93.6 | 0 | 0.0 | ||
| 2025-12-11T04:16:00 | -17.0842 | -34.9547 | 398.0 | 45.14 | -36.43 | 4 | 19.3 | 14.5 | -92.5 | 1 | 4.4 |
| 2025-12-11T04:16:00 | -17.0842 | -34.9547 | 414.0 | -61.24 | -24.99 | 4 | 18.9 | 17.0 | -90.0 | 1 | 4.4 |
| 2025-12-11T04:16:00 | -17.0842 | -34.9547 | 422.0 | -21.39 | -73.77 | 4 | 16.0 | 12.0 | -92.2 | 1 | 4.4 |
| 2025-12-11T04:16:00 | -17.0842 | -34.9547 | 430.0 | 4.03 | -40.95 | 4 | 15.4 | 13.5 | -90.7 | 1 | 4.4 |
| 2025-12-11T04:16:00 | -17.0842 | -34.9547 | 438.0 | 9 | 14.9 | 14.8 | -89.4 | 0 | 0.0 | ||
| 2025-12-11T04:16:00 | -17.0842 | -34.9547 | 446.0 | 40.98 | -66.82 | 4 | 15.0 | 11.0 | -91.1 | 1 | 4.4 |
| 2025-12-11T04:16:00 | -17.0842 | -34.9547 | 454.0 | 0.64 | -14.06 | 4 | 16.7 | 16.1 | -87.5 | 4 | 17.4 |
| 2025-12-11T04:16:00 | -17.0842 | -34.9547 | 462.0 | 42.11 | -13.98 | 4 | 17.4 | 17.8 | -86.1 | 5 | 21.7 |
| 2025-12-11T04:16:00 | -17.0842 | -34.9547 | 470.0 | 9.17 | -21.64 | 4 | 18.5 | 15.7 | -86.6 | 4 | 17.4 |
| 2025-12-11T04:16:00 | -17.0842 | -34.9547 | 478.0 | -10.32 | -27.34 | 1 | 17.4 | 17.1 | -85.3 | 6 | 26.1 |
| 2025-12-11T04:16:00 | -17.0842 | -34.9547 | 486.0 | 24.42 | -13.59 | 4 | 17.9 | 17.9 | -84.3 | 5 | 21.7 |
| 2025-12-11T04:16:00 | -17.0842 | -34.9547 | 494.0 | -12.26 | -18.03 | 1 | 18.8 | 17.7 | -83.9 | 12 | 52.2 |
| 2025-12-11T04:16:00 | -17.0842 | -34.9547 | 502.0 | 17.38 | -19.68 | 1 | 23.1 | 21.4 | -81.5 | 17 | 73.9 |
| 2025-12-11T04:16:00 | -17.0842 | -34.9547 | 510.0 | -0.65 | -10.06 | 1 | 24.0 | 23.8 | -79.8 | 16 | 69.6 |
| 2025-12-11T04:16:00 | -17.0842 | -34.9547 | 518.0 | 12.25 | -8.06 | 1 | 24.3 | 22.5 | -79.8 | 17 | 73.9 |
| 2025-12-11T04:16:00 | -17.0842 | -34.9547 | 526.0 | 12.40 | -12.93 | 1 | 24.2 | 23.2 | -79.0 | 18 | 78.3 |
| 2025-12-11T04:16:00 | -17.0842 | -34.9547 | 534.0 | 4.18 | -11.06 | 1 | 25.0 | 24.7 | -77.8 | 17 | 73.9 |
| 2025-12-11T04:16:00 | -17.0842 | -34.9547 | 542.0 | 10.61 | 1.81 | 1 | 25.9 | 24.3 | -77.4 | 19 | 82.6 |
| 2025-12-11T04:16:00 | -17.0842 | -34.9547 | 550.0 | 5.36 | -32.72 | 1 | 23.1 | 21.5 | -78.2 | 16 | 69.6 |
| 2025-12-11T04:16:00 | -17.0842 | -34.9547 | 558.0 | 5.58 | -19.96 | 1 | 19.0 | 17.8 | -79.6 | 17 | 73.9 |
| 2025-12-11T04:16:00 | -17.0842 | -34.9547 | 566.0 | 3.14 | -36.90 | 1 | 18.5 | 17.8 | -79.0 | 8 | 34.8 |
| 2025-12-11T04:16:00 | -17.0842 | -34.9547 | 574.0 | -15.41 | -23.06 | 1 | 19.6 | 15.8 | -79.6 | 6 | 26.1 |
| 2025-12-11T04:16:00 | -17.0842 | -34.9547 | 582.0 | -0.73 | -41.30 | 1 | 21.3 | 17.3 | -78.3 | 7 | 30.4 |
| 2025-12-11T04:16:00 | -17.0842 | -34.9547 | 590.0 | -27.53 | -39.20 | 1 | 20.3 | 15.7 | -78.6 | 7 | 30.4 |
| 2025-12-11T04:16:00 | -17.0842 | -34.9547 | 606.0 | 9 | 19.3 | 14.8 | -78.1 | 0 | 0.0 | ||
| 2025-12-11T04:16:00 | -17.0842 | -34.9547 | 662.0 | 73.31 | 57.96 | 4 | 16.2 | 17.8 | -73.1 | 1 | 4.4 |
| 2025-12-11T04:16:00 | -17.0842 | -34.9547 | 686.0 | -9.89 | -19.38 | 4 | 16.6 | 14.2 | -73.6 | 1 | 4.4 |
| 2025-12-11T04:16:00 | -17.0842 | -34.9547 | 694.0 | -39.45 | -63.73 | 4 | 17.6 | 14.2 | -73.1 | 1 | 4.4 |
| 2025-12-11T04:16:00 | -17.0842 | -34.9547 | 742.0 | 0.17 | -5.46 | 4 | 16.7 | 10.2 | -72.8 | 1 | 4.4 |
| 2025-12-11T04:16:00 | -17.0842 | -34.9547 | 750.0 | 86.32 | 33.65 | 4 | 17.6 | 21.8 | -66.0 | 1 | 4.4 |
| 2025-12-11T04:16:00 | -17.0842 | -34.9547 | 758.0 | 49.73 | 24.68 | 4 | 18.6 | 16.2 | -68.4 | 1 | 4.4 |
| 2025-12-11T04:16:00 | -17.0842 | -34.9547 | 774.0 | 24.58 | 10.24 | 4 | 18.8 | 15.0 | -68.2 | 1 | 4.4 |
| 2025-12-11T04:16:00 | -17.0842 | -34.9547 | 790.0 | 34.50 | -106.72 | 4 | 18.3 | 13.2 | -68.3 | 1 | 4.4 |
| 2025-12-11T04:17:00 | -17.0810 | -34.9529 | 22.0 | 9.39 | -40.92 | 1 | 149.2 | 149.1 | -84.3 | 19 | 86.4 |
| 2025-12-11T04:17:00 | -17.0810 | -34.9529 | 30.0 | -9.95 | -28.05 | 1 | 145.4 | 145.4 | -81.5 | 21 | 95.5 |
| 2025-12-11T04:17:00 | -17.0810 | -34.9529 | 38.0 | -14.81 | -30.84 | 1 | 141.4 | 141.4 | -80.1 | 22 | 100.0 |
| 2025-12-11T04:17:00 | -17.0810 | -34.9529 | 46.0 | -2.80 | -26.90 | 1 | 125.5 | 125.5 | -84.4 | 21 | 95.5 |
| 2025-12-11T04:17:00 | -17.0810 | -34.9529 | 54.0 | 0.55 | -9.88 | 1 | 114.4 | 114.4 | -87.0 | 21 | 95.5 |
| 2025-12-11T04:17:00 | -17.0810 | -34.9529 | 62.0 | 2.55 | -27.87 | 1 | 109.1 | 109.1 | -87.4 | 21 | 95.5 |
| 2025-12-11T04:17:00 | -17.0810 | -34.9529 | 70.0 | 1.99 | -32.60 | 1 | 105.0 | 104.3 | -87.8 | 19 | 86.4 |
| 2025-12-11T04:17:00 | -17.0810 | -34.9529 | 78.0 | 6.24 | -28.80 | 1 | 105.9 | 105.9 | -85.6 | 22 | 100.0 |
| 2025-12-11T04:17:00 | -17.0810 | -34.9529 | 86.0 | 5.21 | -23.95 | 1 | 95.6 | 95.6 | -88.6 | 22 | 100.0 |
| 2025-12-11T04:17:00 | -17.0810 | -34.9529 | 94.0 | -2.10 | -14.31 | 1 | 92.0 | 91.7 | -89.0 | 21 | 95.5 |
| 2025-12-11T04:17:00 | -17.0810 | -34.9529 | 102.0 | -18.22 | -10.09 | 1 | 89.7 | 89.5 | -88.7 | 19 | 86.4 |
| 2025-12-11T04:17:00 | -17.0810 | -34.9529 | 110.0 | -2.83 | -24.48 | 1 | 85.2 | 85.2 | -89.4 | 21 | 95.5 |
| 2025-12-11T04:17:00 | -17.0810 | -34.9529 | 118.0 | 3.10 | -23.13 | 1 | 83.7 | 83.0 | -89.2 | 20 | 90.9 |
| 2025-12-11T04:17:00 | -17.0810 | -34.9529 | 126.0 | -7.21 | -27.90 | 1 | 82.3 | 82.3 | -88.4 | 20 | 90.9 |
| 2025-12-11T04:17:00 | -17.0810 | -34.9529 | 134.0 | 7.49 | -25.98 | 1 | 83.1 | 82.6 | -87.3 | 21 | 95.5 |
| 2025-12-11T04:17:00 | -17.0810 | -34.9529 | 142.0 | 10.85 | -30.54 | 1 | 81.4 | 81.4 | -86.8 | 20 | 90.9 |
| 2025-12-11T04:17:00 | -17.0810 | -34.9529 | 150.0 | 1.73 | -24.47 | 1 | 80.6 | 80.2 | -86.3 | 20 | 90.9 |
| 2025-12-11T04:17:00 | -17.0810 | -34.9529 | 158.0 | 15.77 | -21.88 | 1 | 75.8 | 75.8 | -87.3 | 21 | 95.5 |
| 2025-12-11T04:17:00 | -17.0810 | -34.9529 | 166.0 | 23.75 | -20.92 | 1 | 72.8 | 72.2 | -87.9 | 19 | 86.4 |
| 2025-12-11T04:17:00 | -17.0810 | -34.9529 | 174.0 | 18.70 | -26.57 | 1 | 68.7 | 68.7 | -88.5 | 22 | 100.0 |
| 2025-12-11T04:17:00 | -17.0810 | -34.9529 | 182.0 | -7.75 | -27.66 | 1 | 61.3 | 61.3 | -90.8 | 21 | 95.5 |
| 2025-12-11T04:17:00 | -17.0810 | -34.9529 | 190.0 | -7.42 | -34.14 | 1 | 62.7 | 62.3 | -89.5 | 19 | 86.4 |
| 2025-12-11T04:17:00 | -17.0810 | -34.9529 | 198.0 | -17.43 | -18.83 | 1 | 60.3 | 59.8 | -89.7 | 21 | 95.5 |
| 2025-12-11T04:17:00 | -17.0810 | -34.9529 | 206.0 | 4.47 | -35.67 | 1 | 54.7 | 54.7 | -91.0 | 22 | 100.0 |
| 2025-12-11T04:17:00 | -17.0810 | -34.9529 | 214.0 | -0.46 | -7.51 | 1 | 50.5 | 50.5 | -92.0 | 22 | 100.0 |
| 2025-12-11T04:17:00 | -17.0810 | -34.9529 | 222.0 | 11.55 | -23.10 | 1 | 56.2 | 55.1 | -89.3 | 20 | 90.9 |
| 2025-12-11T04:17:00 | -17.0810 | -34.9529 | 230.0 | 2.36 | -19.71 | 1 | 54.4 | 54.2 | -88.9 | 20 | 90.9 |
| 2025-12-11T04:17:00 | -17.0810 | -34.9529 | 238.0 | -3.28 | -12.68 | 1 | 51.2 | 50.8 | -89.5 | 20 | 90.9 |
| 2025-12-11T04:17:00 | -17.0810 | -34.9529 | 246.0 | 5.83 | -18.55 | 1 | 51.8 | 51.8 | -88.4 | 21 | 95.5 |
| 2025-12-11T04:17:00 | -17.0810 | -34.9529 | 254.0 | -5.69 | -7.39 | 1 | 51.8 | 51.3 | -87.8 | 18 | 81.8 |
| 2025-12-11T04:17:00 | -17.0810 | -34.9529 | 262.0 | 10.06 | -29.19 | 1 | 53.3 | 53.3 | -86.2 | 21 | 95.5 |
| 2025-12-11T04:17:00 | -17.0810 | -34.9529 | 270.0 | -0.24 | -31.09 | 1 | 50.3 | 49.8 | -87.0 | 20 | 90.9 |
| 2025-12-11T04:17:00 | -17.0810 | -34.9529 | 278.0 | -15.96 | -24.46 | 1 | 40.8 | 39.6 | -90.7 | 19 | 86.4 |
| 2025-12-11T04:17:00 | -17.0810 | -34.9529 | 286.0 | -10.10 | -9.93 | 1 | 35.5 | 34.1 | -92.4 | 19 | 86.4 |
| 2025-12-11T04:17:00 | -17.0810 | -34.9529 | 294.0 | 2.08 | -17.21 | 1 | 32.7 | 32.1 | -92.6 | 19 | 86.4 |
| 2025-12-11T04:17:00 | -17.0810 | -34.9529 | 302.0 | 1.11 | -21.61 | 1 | 27.6 | 25.5 | -94.9 | 18 | 81.8 |
| 2025-12-11T04:17:00 | -17.0810 | -34.9529 | 310.0 | -6.75 | -6.56 | 1 | 26.3 | 24.6 | -94.6 | 17 | 77.3 |
| 2025-12-11T04:17:00 | -17.0810 | -34.9529 | 318.0 | -1.61 | -12.99 | 1 | 23.8 | 23.2 | -94.6 | 12 | 54.5 |
| 2025-12-11T04:17:00 | -17.0810 | -34.9529 | 326.0 | 3.82 | -13.68 | 1 | 20.9 | 19.3 | -95.8 | 13 | 59.1 |
| 2025-12-11T04:17:00 | -17.0810 | -34.9529 | 334.0 | 0.28 | -0.76 | 1 | 21.6 | 21.2 | -94.2 | 11 | 50.0 |
| 2025-12-11T04:17:00 | -17.0810 | -34.9529 | 342.0 | -7.79 | -22.36 | 1 | 20.7 | 20.4 | -93.9 | 14 | 63.6 |
| 2025-12-11T04:17:00 | -17.0810 | -34.9529 | 350.0 | -4.21 | -15.08 | 1 | 20.7 | 21.5 | -92.7 | 11 | 50.0 |
| 2025-12-11T04:17:00 | -17.0810 | -34.9529 | 358.0 | -0.85 | -11.40 | 1 | 20.9 | 20.8 | -92.4 | 14 | 63.6 |
| 2025-12-11T04:17:00 | -17.0810 | -34.9529 | 366.0 | 5.35 | -15.84 | 1 | 19.5 | 19.0 | -92.7 | 19 | 86.4 |
| 2025-12-11T04:17:00 | -17.0810 | -34.9529 | 374.0 | -9.73 | -25.87 | 1 | 18.6 | 18.4 | -92.3 | 15 | 68.2 |
| 2025-12-11T04:17:00 | -17.0810 | -34.9529 | 382.0 | -19.23 | 13.09 | 1 | 16.9 | 17.8 | -92.0 | 6 | 27.3 |
| 2025-12-11T04:17:00 | -17.0810 | -34.9529 | 390.0 | -0.93 | -21.61 | 4 | 15.5 | 15.0 | -92.9 | 5 | 22.7 |
| 2025-12-11T04:17:00 | -17.0810 | -34.9529 | 398.0 | -18.15 | -31.78 | 4 | 15.4 | 16.0 | -91.7 | 2 | 9.1 |
| 2025-12-11T04:17:00 | -17.0810 | -34.9529 | 406.0 | -14.34 | -26.97 | 4 | 15.6 | 13.2 | -92.7 | 3 | 13.6 |
| 2025-12-11T04:17:00 | -17.0810 | -34.9529 | 414.0 | 13.49 | -35.54 | 4 | 15.9 | 13.4 | -92.0 | 2 | 9.1 |
| 2025-12-11T04:17:00 | -17.0810 | -34.9529 | 422.0 | -36.64 | -88.76 | 4 | 16.5 | 12.2 | -92.0 | 1 | 4.5 |
| 2025-12-11T04:17:00 | -17.0810 | -34.9529 | 430.0 | -10.70 | 1.37 | 4 | 17.1 | 14.6 | -90.1 | 3 | 13.6 |
| 2025-12-11T04:17:00 | -17.0810 | -34.9529 | 438.0 | 20.31 | -88.02 | 4 | 16.6 | 14.2 | -89.7 | 1 | 4.5 |
| 2025-12-11T04:17:00 | -17.0810 | -34.9529 | 446.0 | -4.68 | -50.27 | 4 | 16.1 | 15.1 | -88.6 | 4 | 18.2 |
| 2025-12-11T04:17:00 | -17.0810 | -34.9529 | 454.0 | 7.24 | -3.92 | 4 | 16.0 | 12.5 | -89.6 | 2 | 9.1 |
| 2025-12-11T04:17:00 | -17.0810 | -34.9529 | 462.0 | 11.63 | 6.50 | 4 | 16.4 | 13.8 | -88.2 | 2 | 9.1 |
| 2025-12-11T04:17:00 | -17.0810 | -34.9529 | 470.0 | 7.10 | -40.07 | 1 | 16.4 | 14.8 | -87.1 | 6 | 27.3 |
| 2025-12-11T04:17:00 | -17.0810 | -34.9529 | 478.0 | 19.64 | -63.85 | 4 | 17.4 | 15.0 | -86.4 | 4 | 18.2 |
| 2025-12-11T04:17:00 | -17.0810 | -34.9529 | 486.0 | 37.42 | -44.49 | 4 | 17.2 | 16.9 | -84.8 | 3 | 13.6 |
| 2025-12-11T04:17:00 | -17.0810 | -34.9529 | 494.0 | 23.84 | -3.16 | 1 | 19.2 | 19.8 | -82.8 | 12 | 54.5 |
| 2025-12-11T04:17:00 | -17.0810 | -34.9529 | 502.0 | -0.28 | -4.28 | 1 | 21.8 | 22.4 | -81.0 | 17 | 77.3 |
| 2025-12-11T04:17:00 | -17.0810 | -34.9529 | 510.0 | 10.97 | -3.94 | 1 | 22.5 | 22.9 | -80.2 | 17 | 77.3 |
| 2025-12-11T04:17:00 | -17.0810 | -34.9529 | 518.0 | 14.28 | -12.05 | 1 | 22.6 | 22.4 | -79.9 | 14 | 63.6 |
| 2025-12-11T04:17:00 | -17.0810 | -34.9529 | 526.0 | 9.45 | -30.82 | 1 | 24.2 | 24.8 | -78.2 | 16 | 72.7 |
| 2025-12-11T04:17:00 | -17.0810 | -34.9529 | 534.0 | -3.36 | -17.79 | 1 | 21.7 | 21.6 | -79.2 | 14 | 63.6 |
| 2025-12-11T04:17:00 | -17.0810 | -34.9529 | 542.0 | 3.67 | -17.02 | 1 | 22.5 | 22.9 | -78.1 | 16 | 72.7 |
| 2025-12-11T04:17:00 | -17.0810 | -34.9529 | 550.0 | 3.64 | -6.25 | 1 | 22.1 | 22.0 | -78.0 | 17 | 77.3 |
| 2025-12-11T04:17:00 | -17.0810 | -34.9529 | 558.0 | 11.85 | -29.36 | 1 | 19.8 | 19.8 | -78.5 | 13 | 59.1 |
| 2025-12-11T04:17:00 | -17.0810 | -34.9529 | 566.0 | -4.39 | -20.26 | 1 | 17.5 | 18.0 | -78.9 | 9 | 40.9 |
| 2025-12-11T04:17:00 | -17.0810 | -34.9529 | 574.0 | 3.75 | -21.90 | 1 | 17.2 | 18.1 | -78.3 | 9 | 40.9 |
| 2025-12-11T04:17:00 | -17.0810 | -34.9529 | 582.0 | -12.12 | 3.72 | 4 | 16.6 | 14.8 | -79.6 | 4 | 18.2 |
| 2025-12-11T04:17:00 | -17.0810 | -34.9529 | 590.0 | 2.45 | -31.97 | 1 | 17.0 | 16.1 | -78.4 | 6 | 27.3 |
| 2025-12-11T04:17:00 | -17.0810 | -34.9529 | 606.0 | 16.78 | -103.56 | 4 | 16.2 | 12.4 | -79.5 | 2 | 9.1 |
| 2025-12-11T04:17:00 | -17.0810 | -34.9529 | 662.0 | -5.73 | -99.27 | 4 | 17.7 | 18.2 | -72.9 | 1 | 4.5 |
| 2025-12-11T04:17:00 | -17.0810 | -34.9529 | 718.0 | 73.35 | -0.20 | 4 | 17.9 | 20.2 | -68.6 | 1 | 4.5 |
| 2025-12-11T04:17:00 | -17.0810 | -34.9529 | 734.0 | 1.02 | -64.40 | 4 | 17.0 | 16.2 | -69.7 | 1 | 4.5 |
| 2025-12-11T04:17:00 | -17.0810 | -34.9529 | 742.0 | 20.01 | -73.36 | 4 | 18.2 | 18.5 | -68.1 | 1 | 4.5 |
| 2025-12-11T04:17:00 | -17.0810 | -34.9529 | 750.0 | 43.95 | -60.86 | 4 | 17.8 | 15.0 | -69.5 | 2 | 9.1 |
| 2025-12-11T04:18:00 | -17.0779 | -34.9512 | 22.0 | 16.26 | -17.84 | 1 | 147.6 | 147.6 | -84.9 | 22 | 95.6 |
| 2025-12-11T04:18:00 | -17.0779 | -34.9512 | 30.0 | -0.63 | -29.77 | 1 | 146.5 | 146.5 | -81.0 | 23 | 100.0 |
| 2025-12-11T04:18:00 | -17.0779 | -34.9512 | 38.0 | 6.23 | -16.43 | 1 | 140.6 | 140.6 | -80.4 | 20 | 87.0 |
| 2025-12-11T04:18:00 | -17.0779 | -34.9512 | 46.0 | 6.41 | -22.76 | 1 | 125.6 | 125.2 | -84.4 | 22 | 95.6 |
| 2025-12-11T04:18:00 | -17.0779 | -34.9512 | 54.0 | 5.80 | -24.66 | 1 | 114.3 | 113.9 | -87.2 | 21 | 91.3 |
| 2025-12-11T04:18:00 | -17.0779 | -34.9512 | 62.0 | -1.45 | -42.48 | 1 | 107.8 | 107.8 | -88.0 | 22 | 95.6 |
| 2025-12-11T04:18:00 | -17.0779 | -34.9512 | 70.0 | -1.14 | -20.61 | 1 | 104.8 | 104.4 | -87.8 | 22 | 95.6 |
| 2025-12-11T04:18:00 | -17.0779 | -34.9512 | 78.0 | 3.63 | -12.63 | 1 | 107.0 | 106.4 | -85.4 | 21 | 91.3 |
| 2025-12-11T04:18:00 | -17.0779 | -34.9512 | 86.0 | -5.68 | -20.62 | 1 | 98.9 | 98.9 | -87.2 | 22 | 95.6 |
| 2025-12-11T04:18:00 | -17.0779 | -34.9512 | 94.0 | -0.20 | -25.07 | 1 | 90.1 | 90.1 | -89.7 | 23 | 100.0 |
| 2025-12-11T04:18:00 | -17.0779 | -34.9512 | 102.0 | 7.27 | -26.28 | 1 | 88.8 | 88.8 | -89.0 | 21 | 91.3 |
| 2025-12-11T04:18:00 | -17.0779 | -34.9512 | 110.0 | 11.04 | -12.29 | 1 | 85.7 | 85.7 | -89.1 | 23 | 100.0 |
| 2025-12-11T04:18:00 | -17.0779 | -34.9512 | 118.0 | 18.39 | -25.76 | 1 | 85.3 | 85.3 | -88.2 | 22 | 95.6 |
| 2025-12-11T04:18:00 | -17.0779 | -34.9512 | 126.0 | 2.18 | -16.78 | 1 | 82.8 | 82.8 | -88.2 | 23 | 100.0 |
| 2025-12-11T04:18:00 | -17.0779 | -34.9512 | 134.0 | 7.73 | -16.32 | 1 | 83.1 | 83.1 | -87.0 | 22 | 95.6 |
| 2025-12-11T04:18:00 | -17.0779 | -34.9512 | 142.0 | 3.16 | -19.77 | 1 | 80.8 | 80.8 | -87.0 | 23 | 100.0 |
| 2025-12-11T04:18:00 | -17.0779 | -34.9512 | 150.0 | 11.27 | -23.00 | 1 | 79.1 | 78.5 | -87.0 | 19 | 82.6 |
| 2025-12-11T04:18:00 | -17.0779 | -34.9512 | 158.0 | 4.58 | -10.60 | 1 | 75.9 | 75.3 | -87.5 | 22 | 95.6 |
| 2025-12-11T04:18:00 | -17.0779 | -34.9512 | 166.0 | 13.79 | -20.12 | 1 | 71.7 | 71.7 | -88.1 | 21 | 91.3 |
| 2025-12-11T04:18:00 | -17.0779 | -34.9512 | 174.0 | -9.28 | -33.32 | 1 | 67.0 | 67.0 | -89.2 | 22 | 95.6 |
| 2025-12-11T04:18:00 | -17.0779 | -34.9512 | 182.0 | -1.46 | -26.97 | 1 | 62.4 | 62.4 | -90.3 | 23 | 100.0 |
| 2025-12-11T04:18:00 | -17.0779 | -34.9512 | 190.0 | 2.60 | -29.16 | 1 | 58.7 | 58.7 | -91.0 | 21 | 91.3 |
| 2025-12-11T04:18:00 | -17.0779 | -34.9512 | 198.0 | 0.48 | -24.39 | 1 | 56.4 | 56.4 | -91.2 | 21 | 91.3 |
| 2025-12-11T04:18:00 | -17.0779 | -34.9512 | 206.0 | -2.28 | -30.62 | 1 | 51.5 | 51.5 | -92.4 | 22 | 95.6 |
| 2025-12-11T04:18:00 | -17.0779 | -34.9512 | 214.0 | -3.09 | -12.77 | 1 | 53.7 | 53.7 | -90.7 | 21 | 91.3 |
| 2025-12-11T04:18:00 | -17.0779 | -34.9512 | 222.0 | 8.11 | -24.52 | 1 | 57.4 | 57.4 | -88.3 | 23 | 100.0 |
| 2025-12-11T04:18:00 | -17.0779 | -34.9512 | 230.0 | 8.44 | -19.65 | 1 | 58.0 | 57.5 | -87.5 | 21 | 91.3 |
| 2025-12-11T04:18:00 | -17.0779 | -34.9512 | 238.0 | 1.23 | -23.88 | 1 | 55.3 | 55.3 | -87.6 | 23 | 100.0 |
| 2025-12-11T04:18:00 | -17.0779 | -34.9512 | 246.0 | -4.01 | -19.15 | 1 | 54.0 | 54.0 | -87.4 | 21 | 91.3 |
| 2025-12-11T04:18:00 | -17.0779 | -34.9512 | 254.0 | -6.72 | -16.08 | 1 | 53.8 | 52.9 | -87.1 | 18 | 78.3 |
| 2025-12-11T04:18:00 | -17.0779 | -34.9512 | 262.0 | 14.04 | -14.25 | 1 | 56.3 | 56.3 | -85.0 | 20 | 87.0 |
| 2025-12-11T04:18:00 | -17.0779 | -34.9512 | 270.0 | -5.21 | -25.02 | 1 | 57.5 | 57.5 | -83.7 | 23 | 100.0 |
| 2025-12-11T04:18:00 | -17.0779 | -34.9512 | 278.0 | -4.76 | -34.67 | 1 | 40.9 | 40.9 | -90.1 | 23 | 100.0 |
| 2025-12-11T04:18:00 | -17.0779 | -34.9512 | 286.0 | 4.19 | -13.83 | 1 | 33.9 | 34.0 | -92.4 | 22 | 95.6 |
| 2025-12-11T04:18:00 | -17.0779 | -34.9512 | 294.0 | -6.12 | -7.26 | 1 | 32.2 | 32.2 | -92.5 | 21 | 91.3 |
| 2025-12-11T04:18:00 | -17.0779 | -34.9512 | 302.0 | -2.83 | 2.39 | 1 | 25.5 | 25.5 | -94.8 | 19 | 82.6 |
| 2025-12-11T04:18:00 | -17.0779 | -34.9512 | 310.0 | -0.96 | -12.98 | 1 | 22.5 | 22.5 | -95.5 | 15 | 65.2 |
| 2025-12-11T04:18:00 | -17.0779 | -34.9512 | 318.0 | -1.26 | -38.85 | 1 | 21.6 | 21.6 | -95.3 | 14 | 60.9 |
| 2025-12-11T04:18:00 | -17.0779 | -34.9512 | 326.0 | 8.86 | -11.54 | 1 | 21.2 | 21.4 | -94.7 | 12 | 52.2 |
| 2025-12-11T04:18:00 | -17.0779 | -34.9512 | 334.0 | -2.17 | -29.08 | 1 | 20.8 | 20.2 | -94.6 | 14 | 60.9 |
| 2025-12-11T04:18:00 | -17.0779 | -34.9512 | 342.0 | -8.76 | -18.82 | 1 | 21.1 | 20.9 | -93.7 | 18 | 78.3 |
| 2025-12-11T04:18:00 | -17.0779 | -34.9512 | 350.0 | 4.63 | -32.06 | 1 | 21.0 | 21.1 | -92.9 | 13 | 56.5 |
| 2025-12-11T04:18:00 | -17.0779 | -34.9512 | 358.0 | -0.65 | -30.83 | 1 | 20.2 | 20.3 | -92.7 | 17 | 73.9 |
| 2025-12-11T04:18:00 | -17.0779 | -34.9512 | 366.0 | 1.56 | 6.16 | 1 | 20.1 | 18.2 | -93.0 | 9 | 39.1 |
| 2025-12-11T04:18:00 | -17.0779 | -34.9512 | 374.0 | -12.97 | -39.48 | 1 | 19.0 | 18.5 | -92.3 | 8 | 34.8 |
| 2025-12-11T04:18:00 | -17.0779 | -34.9512 | 382.0 | 3.65 | -63.14 | 1 | 17.7 | 16.1 | -92.9 | 6 | 26.1 |
| 2025-12-11T04:18:00 | -17.0779 | -34.9512 | 390.0 | 21.62 | -15.69 | 4 | 15.9 | 14.8 | -93.0 | 1 | 4.4 |
| 2025-12-11T04:18:00 | -17.0779 | -34.9512 | 398.0 | -21.27 | -41.89 | 4 | 14.6 | 11.5 | -94.3 | 1 | 4.4 |
| 2025-12-11T04:18:00 | -17.0779 | -34.9512 | 406.0 | 2.21 | -8.36 | 4 | 15.2 | 13.6 | -92.4 | 2 | 8.7 |
| 2025-12-11T04:18:00 | -17.0779 | -34.9512 | 438.0 | 9 | 19.6 | 15.0 | -89.3 | 0 | 0.0 | ||
| 2025-12-11T04:18:00 | -17.0779 | -34.9512 | 446.0 | 42.43 | 24.41 | 4 | 19.5 | 16.0 | -88.1 | 1 | 4.4 |
| 2025-12-11T04:18:00 | -17.0779 | -34.9512 | 454.0 | -42.35 | -17.74 | 4 | 19.6 | 13.3 | -89.1 | 2 | 8.7 |
| 2025-12-11T04:18:00 | -17.0779 | -34.9512 | 462.0 | 44.40 | -39.64 | 4 | 20.3 | 15.3 | -87.4 | 3 | 13.0 |
| 2025-12-11T04:18:00 | -17.0779 | -34.9512 | 470.0 | 35.60 | -30.40 | 4 | 21.0 | 16.1 | -86.4 | 4 | 17.4 |
| 2025-12-11T04:18:00 | -17.0779 | -34.9512 | 478.0 | 0.44 | -35.46 | 4 | 21.6 | 17.5 | -85.1 | 5 | 21.7 |
| 2025-12-11T04:18:00 | -17.0779 | -34.9512 | 486.0 | 1.41 | -43.49 | 1 | 20.9 | 19.0 | -83.8 | 7 | 30.4 |
| 2025-12-11T04:18:00 | -17.0779 | -34.9512 | 494.0 | 2.59 | -1.78 | 1 | 21.5 | 20.2 | -82.6 | 14 | 60.9 |
| 2025-12-11T04:18:00 | -17.0779 | -34.9512 | 502.0 | -10.91 | -6.74 | 1 | 22.1 | 20.6 | -81.8 | 15 | 65.2 |
| 2025-12-11T04:18:00 | -17.0779 | -34.9512 | 510.0 | 0.05 | -20.90 | 1 | 23.3 | 22.6 | -80.3 | 17 | 73.9 |
| 2025-12-11T04:18:00 | -17.0779 | -34.9512 | 518.0 | -2.86 | -40.99 | 1 | 24.3 | 23.4 | -79.4 | 17 | 73.9 |
| 2025-12-11T04:18:00 | -17.0779 | -34.9512 | 526.0 | 5.28 | -36.79 | 1 | 22.6 | 20.6 | -80.2 | 14 | 60.9 |
| 2025-12-11T04:18:00 | -17.0779 | -34.9512 | 534.0 | 11.57 | -15.87 | 1 | 23.6 | 21.8 | -79.1 | 13 | 56.5 |
| 2025-12-11T04:18:00 | -17.0779 | -34.9512 | 542.0 | 8.89 | -6.80 | 1 | 24.8 | 23.4 | -77.8 | 17 | 73.9 |
| 2025-12-11T04:18:00 | -17.0779 | -34.9512 | 550.0 | 2.10 | -10.06 | 1 | 24.2 | 23.0 | -77.5 | 12 | 52.2 |
| 2025-12-11T04:18:00 | -17.0779 | -34.9512 | 558.0 | 2.55 | -19.12 | 1 | 21.2 | 19.5 | -78.7 | 12 | 52.2 |
| 2025-12-11T04:18:00 | -17.0779 | -34.9512 | 566.0 | 31.23 | -37.57 | 1 | 19.3 | 16.5 | -79.7 | 7 | 30.4 |
| 2025-12-11T04:18:00 | -17.0779 | -34.9512 | 574.0 | 0.63 | -36.58 | 1 | 21.6 | 17.3 | -78.8 | 8 | 34.8 |
| 2025-12-11T04:18:00 | -17.0779 | -34.9512 | 582.0 | 3.68 | 9.65 | 4 | 21.1 | 17.1 | -78.4 | 4 | 17.4 |
| 2025-12-11T04:18:00 | -17.0779 | -34.9512 | 590.0 | -6.98 | 3.16 | 4 | 21.1 | 19.1 | -76.8 | 5 | 21.7 |
| 2025-12-11T04:18:00 | -17.0779 | -34.9512 | 598.0 | -30.24 | -3.32 | 4 | 20.9 | 16.2 | -77.8 | 1 | 4.4 |
| 2025-12-11T04:18:00 | -17.0779 | -34.9512 | 614.0 | 27.82 | 44.99 | 4 | 19.6 | 19.2 | -75.3 | 1 | 4.4 |
| 2025-12-11T04:18:00 | -17.0779 | -34.9512 | 630.0 | 100.13 | 37.50 | 4 | 18.2 | 23.0 | -72.5 | 1 | 4.4 |
| 2025-12-11T04:18:00 | -17.0779 | -34.9512 | 638.0 | 60.63 | 42.17 | 4 | 19.0 | 22.5 | -72.2 | 1 | 4.4 |
| 2025-12-11T04:18:00 | -17.0779 | -34.9512 | 646.0 | -20.27 | 1.01 | 4 | 20.4 | 13.0 | -76.7 | 1 | 4.4 |
| 2025-12-11T04:18:00 | -17.0779 | -34.9512 | 654.0 | 51.59 | 35.87 | 4 | 19.1 | 17.6 | -73.7 | 1 | 4.4 |
| 2025-12-11T04:18:00 | -17.0779 | -34.9512 | 670.0 | 66.49 | -9.25 | 4 | 16.8 | 17.8 | -72.6 | 1 | 4.4 |
| 2025-12-11T04:18:00 | -17.0779 | -34.9512 | 678.0 | 73.67 | 23.34 | 4 | 17.2 | 18.0 | -72.0 | 1 | 4.4 |
| 2025-12-11T04:19:00 | -17.0746 | -34.9495 | 22.0 | 3.22 | -19.30 | 1 | 149.6 | 149.1 | -84.3 | 21 | 91.3 |
| 2025-12-11T04:19:00 | -17.0746 | -34.9495 | 30.0 | -4.52 | -44.92 | 1 | 145.4 | 145.4 | -81.5 | 23 | 100.0 |
| 2025-12-11T04:19:00 | -17.0746 | -34.9495 | 38.0 | -6.73 | -21.22 | 1 | 136.4 | 136.4 | -82.2 | 21 | 91.3 |
| 2025-12-11T04:19:00 | -17.0746 | -34.9495 | 46.0 | 6.27 | -15.47 | 1 | 121.9 | 121.9 | -85.9 | 23 | 100.0 |
| 2025-12-11T04:19:00 | -17.0746 | -34.9495 | 54.0 | -3.03 | -23.04 | 1 | 111.1 | 111.2 | -88.3 | 22 | 95.6 |
| 2025-12-11T04:19:00 | -17.0746 | -34.9495 | 62.0 | 6.99 | -7.87 | 1 | 104.6 | 104.6 | -89.3 | 21 | 91.3 |
| 2025-12-11T04:19:00 | -17.0746 | -34.9495 | 70.0 | 10.46 | -16.39 | 1 | 100.8 | 100.8 | -89.3 | 22 | 95.6 |
| 2025-12-11T04:19:00 | -17.0746 | -34.9495 | 78.0 | -1.26 | -25.64 | 1 | 105.3 | 105.3 | -85.9 | 22 | 95.6 |
| 2025-12-11T04:19:00 | -17.0746 | -34.9495 | 86.0 | -0.68 | -27.89 | 1 | 97.0 | 97.0 | -88.0 | 23 | 100.0 |
| 2025-12-11T04:19:00 | -17.0746 | -34.9495 | 94.0 | -9.68 | -17.92 | 1 | 91.1 | 91.4 | -89.1 | 20 | 87.0 |
| 2025-12-11T04:19:00 | -17.0746 | -34.9495 | 102.0 | 6.09 | -16.80 | 1 | 89.0 | 89.0 | -88.9 | 22 | 95.6 |
| 2025-12-11T04:19:00 | -17.0746 | -34.9495 | 110.0 | 7.93 | -23.63 | 1 | 89.1 | 89.1 | -87.7 | 22 | 95.6 |
| 2025-12-11T04:19:00 | -17.0746 | -34.9495 | 118.0 | 6.79 | -18.48 | 1 | 86.1 | 85.1 | -88.3 | 21 | 91.3 |
| 2025-12-11T04:19:00 | -17.0746 | -34.9495 | 126.0 | -11.52 | -31.46 | 1 | 82.6 | 82.5 | -88.3 | 18 | 78.3 |
| 2025-12-11T04:19:00 | -17.0746 | -34.9495 | 134.0 | -1.07 | -16.87 | 1 | 83.6 | 82.7 | -87.2 | 19 | 82.6 |
| 2025-12-11T04:19:00 | -17.0746 | -34.9495 | 142.0 | -7.45 | -22.34 | 1 | 80.8 | 80.6 | -87.1 | 22 | 95.6 |
| 2025-12-11T04:19:00 | -17.0746 | -34.9495 | 150.0 | 7.00 | -31.90 | 1 | 79.0 | 78.5 | -87.1 | 22 | 95.6 |
| 2025-12-11T04:19:00 | -17.0746 | -34.9495 | 158.0 | -4.82 | -29.53 | 1 | 74.8 | 74.2 | -88.0 | 21 | 91.3 |
| 2025-12-11T04:19:00 | -17.0746 | -34.9495 | 166.0 | 5.62 | -22.88 | 1 | 74.3 | 74.3 | -87.0 | 20 | 87.0 |
| 2025-12-11T04:19:00 | -17.0746 | -34.9495 | 174.0 | -7.51 | -23.11 | 1 | 70.5 | 69.6 | -88.1 | 21 | 91.3 |
| 2025-12-11T04:19:00 | -17.0746 | -34.9495 | 182.0 | -8.28 | -35.60 | 1 | 61.4 | 60.7 | -91.0 | 20 | 87.0 |
| 2025-12-11T04:19:00 | -17.0746 | -34.9495 | 190.0 | -9.25 | -28.98 | 1 | 58.9 | 58.8 | -91.0 | 21 | 91.3 |
| 2025-12-11T04:19:00 | -17.0746 | -34.9495 | 198.0 | -9.62 | -43.21 | 1 | 57.1 | 56.5 | -91.1 | 19 | 82.6 |
| 2025-12-11T04:19:00 | -17.0746 | -34.9495 | 206.0 | -4.85 | -35.05 | 1 | 53.1 | 52.7 | -91.9 | 19 | 82.6 |
| 2025-12-11T04:19:00 | -17.0746 | -34.9495 | 214.0 | 17.55 | -0.87 | 1 | 57.8 | 57.1 | -89.2 | 20 | 87.0 |
| 2025-12-11T04:19:00 | -17.0746 | -34.9495 | 222.0 | -5.29 | -1.17 | 1 | 62.0 | 62.0 | -86.3 | 22 | 95.6 |
| 2025-12-11T04:19:00 | -17.0746 | -34.9495 | 230.0 | -19.44 | -5.08 | 1 | 63.2 | 62.1 | -85.5 | 20 | 87.0 |
| 2025-12-11T04:19:00 | -17.0746 | -34.9495 | 238.0 | -11.32 | -15.00 | 1 | 56.1 | 56.1 | -87.3 | 21 | 91.3 |
| 2025-12-11T04:19:00 | -17.0746 | -34.9495 | 246.0 | -3.57 | -18.59 | 1 | 51.9 | 50.9 | -88.7 | 20 | 87.0 |
| 2025-12-11T04:19:00 | -17.0746 | -34.9495 | 254.0 | 4.44 | -18.22 | 1 | 51.8 | 51.6 | -87.7 | 19 | 82.6 |
| 2025-12-11T04:19:00 | -17.0746 | -34.9495 | 262.0 | 4.18 | -23.47 | 1 | 67.2 | 62.9 | -82.1 | 11 | 47.8 |
| 2025-12-11T04:19:00 | -17.0746 | -34.9495 | 270.0 | -26.42 | -39.98 | 1 | 63.6 | 62.2 | -81.7 | 19 | 82.6 |
| 2025-12-11T04:19:00 | -17.0746 | -34.9495 | 278.0 | -17.32 | -36.32 | 1 | 42.4 | 42.4 | -89.5 | 22 | 95.6 |
| 2025-12-11T04:19:00 | -17.0746 | -34.9495 | 286.0 | -17.08 | -26.34 | 1 | 32.0 | 32.0 | -93.3 | 22 | 95.6 |
| 2025-12-11T04:19:00 | -17.0746 | -34.9495 | 294.0 | -8.05 | -20.62 | 1 | 31.3 | 31.3 | -92.9 | 20 | 87.0 |
| 2025-12-11T04:19:00 | -17.0746 | -34.9495 | 302.0 | 2.31 | -26.28 | 1 | 27.6 | 27.5 | -93.9 | 20 | 87.0 |
| 2025-12-11T04:19:00 | -17.0746 | -34.9495 | 310.0 | 12.95 | -16.91 | 1 | 24.6 | 24.4 | -94.7 | 16 | 69.6 |
| 2025-12-11T04:19:00 | -17.0746 | -34.9495 | 318.0 | -2.61 | -9.57 | 1 | 23.8 | 21.7 | -95.3 | 19 | 82.6 |
| 2025-12-11T04:19:00 | -17.0746 | -34.9495 | 326.0 | 9.28 | -28.92 | 1 | 22.5 | 21.7 | -94.6 | 14 | 60.9 |
| 2025-12-11T04:19:00 | -17.0746 | -34.9495 | 334.0 | 12.99 | -30.14 | 1 | 23.0 | 21.8 | -93.9 | 17 | 73.9 |
| 2025-12-11T04:19:00 | -17.0746 | -34.9495 | 342.0 | 6.92 | -15.19 | 1 | 23.1 | 21.5 | -93.4 | 15 | 65.2 |
| 2025-12-11T04:19:00 | -17.0746 | -34.9495 | 350.0 | -5.94 | -17.27 | 1 | 19.3 | 18.6 | -94.2 | 11 | 47.8 |
| 2025-12-11T04:19:00 | -17.0746 | -34.9495 | 358.0 | -1.43 | -30.73 | 1 | 19.3 | 19.0 | -93.3 | 13 | 56.5 |
| 2025-12-11T04:19:00 | -17.0746 | -34.9495 | 366.0 | -11.31 | 1.54 | 1 | 19.1 | 19.5 | -92.4 | 11 | 47.8 |
| 2025-12-11T04:19:00 | -17.0746 | -34.9495 | 374.0 | -3.62 | -32.78 | 1 | 18.4 | 18.5 | -92.3 | 9 | 39.1 |
| 2025-12-11T04:19:00 | -17.0746 | -34.9495 | 382.0 | 10.14 | -29.47 | 4 | 18.2 | 18.4 | -91.7 | 3 | 13.0 |
| 2025-12-11T04:19:00 | -17.0746 | -34.9495 | 406.0 | 9 | 16.8 | 16.0 | -91.1 | 0 | 0.0 | ||
| 2025-12-11T04:19:00 | -17.0746 | -34.9495 | 414.0 | -9.48 | -29.89 | 4 | 15.4 | 16.2 | -90.4 | 2 | 8.7 |
| 2025-12-11T04:19:00 | -17.0746 | -34.9495 | 422.0 | 32.74 | -16.55 | 4 | 14.8 | 15.6 | -90.1 | 2 | 8.7 |
| 2025-12-11T04:19:00 | -17.0746 | -34.9495 | 438.0 | 70.00 | -54.38 | 4 | 15.9 | 14.5 | -89.6 | 1 | 4.4 |
| 2025-12-11T04:19:00 | -17.0746 | -34.9495 | 446.0 | 45.18 | -42.72 | 4 | 16.9 | 15.2 | -88.6 | 1 | 4.4 |
| 2025-12-11T04:19:00 | -17.0746 | -34.9495 | 454.0 | -40.48 | -13.61 | 4 | 17.6 | 16.5 | -87.3 | 1 | 4.4 |
| 2025-12-11T04:19:00 | -17.0746 | -34.9495 | 462.0 | 17.52 | -29.45 | 1 | 17.9 | 16.9 | -86.5 | 6 | 26.1 |
| 2025-12-11T04:19:00 | -17.0746 | -34.9495 | 470.0 | 21.61 | -46.94 | 1 | 18.3 | 16.6 | -86.1 | 6 | 26.1 |
| 2025-12-11T04:19:00 | -17.0746 | -34.9495 | 478.0 | -0.84 | -27.08 | 4 | 18.9 | 17.9 | -84.9 | 4 | 17.4 |
| 2025-12-11T04:19:00 | -17.0746 | -34.9495 | 486.0 | 5.22 | -5.32 | 4 | 19.2 | 16.8 | -84.9 | 4 | 17.4 |
| 2025-12-11T04:19:00 | -17.0746 | -34.9495 | 494.0 | -5.32 | -0.30 | 1 | 21.1 | 18.5 | -83.4 | 13 | 56.5 |
| 2025-12-11T04:19:00 | -17.0746 | -34.9495 | 502.0 | 13.89 | -8.85 | 1 | 23.0 | 21.3 | -81.5 | 14 | 60.9 |
| 2025-12-11T04:19:00 | -17.0746 | -34.9495 | 510.0 | 8.09 | -3.77 | 1 | 23.0 | 22.2 | -80.5 | 14 | 60.9 |
| 2025-12-11T04:19:00 | -17.0746 | -34.9495 | 518.0 | 2.63 | -18.33 | 1 | 24.0 | 22.0 | -80.1 | 14 | 60.9 |
| 2025-12-11T04:19:00 | -17.0746 | -34.9495 | 526.0 | 7.51 | -18.40 | 1 | 22.1 | 21.1 | -80.0 | 13 | 56.5 |
| 2025-12-11T04:19:00 | -17.0746 | -34.9495 | 534.0 | 15.18 | -31.29 | 1 | 21.9 | 20.6 | -79.7 | 15 | 65.2 |
| 2025-12-11T04:19:00 | -17.0746 | -34.9495 | 542.0 | 7.16 | -10.27 | 1 | 23.8 | 21.6 | -78.7 | 15 | 65.2 |
| 2025-12-11T04:19:00 | -17.0746 | -34.9495 | 550.0 | -2.00 | -14.48 | 1 | 23.4 | 21.6 | -78.2 | 18 | 78.3 |
| 2025-12-11T04:19:00 | -17.0746 | -34.9495 | 558.0 | 0.59 | -19.56 | 1 | 21.8 | 18.7 | -79.1 | 15 | 65.2 |
| 2025-12-11T04:19:00 | -17.0746 | -34.9495 | 566.0 | 11.00 | -34.66 | 1 | 19.9 | 18.6 | -78.6 | 11 | 47.8 |
| 2025-12-11T04:19:00 | -17.0746 | -34.9495 | 574.0 | -9.51 | -35.51 | 1 | 19.9 | 17.5 | -78.6 | 8 | 34.8 |
| 2025-12-11T04:19:00 | -17.0746 | -34.9495 | 582.0 | 17.02 | -36.02 | 4 | 18.9 | 16.5 | -78.6 | 5 | 21.7 |
| 2025-12-11T04:19:00 | -17.0746 | -34.9495 | 590.0 | -14.15 | -34.61 | 1 | 17.0 | 15.5 | -78.7 | 6 | 26.1 |
| 2025-12-11T04:19:00 | -17.0746 | -34.9495 | 598.0 | 42.43 | 9.03 | 4 | 16.1 | 15.1 | -78.4 | 4 | 17.4 |
| 2025-12-11T04:19:00 | -17.0746 | -34.9495 | 606.0 | 10.74 | -48.50 | 4 | 17.1 | 17.1 | -76.9 | 3 | 13.0 |
| 2025-12-11T04:19:00 | -17.0746 | -34.9495 | 614.0 | 47.19 | -17.96 | 4 | 17.5 | 17.8 | -76.0 | 2 | 8.7 |
| 2025-12-11T04:19:00 | -17.0746 | -34.9495 | 622.0 | 58.29 | 43.63 | 4 | 17.5 | 16.4 | -76.2 | 2 | 8.7 |
| 2025-12-11T04:19:00 | -17.0746 | -34.9495 | 630.0 | 46.45 | 87.48 | 4 | 18.2 | 16.4 | -75.8 | 1 | 4.4 |
| 2025-12-11T04:19:00 | -17.0746 | -34.9495 | 638.0 | 11.95 | -57.19 | 4 | 18.8 | 15.0 | -76.0 | 4 | 17.4 |
| 2025-12-11T04:19:00 | -17.0746 | -34.9495 | 654.0 | 14.92 | 26.31 | 4 | 18.0 | 15.0 | -75.1 | 1 | 4.4 |
| 2025-12-11T04:19:00 | -17.0746 | -34.9495 | 670.0 | 34.34 | 4.96 | 4 | 16.2 | 12.8 | -75.4 | 1 | 4.4 |
| 2025-12-11T04:19:00 | -17.0746 | -34.9495 | 678.0 | -23.69 | -6.33 | 4 | 16.4 | 16.0 | -73.1 | 2 | 8.7 |
| 2025-12-11T04:19:00 | -17.0746 | -34.9495 | 686.0 | 75.68 | -43.71 | 4 | 17.6 | 13.2 | -74.2 | 1 | 4.4 |
| 2025-12-11T04:19:00 | -17.0746 | -34.9495 | 694.0 | 21.85 | -73.59 | 4 | 17.1 | 20.0 | -70.1 | 1 | 4.4 |
| 2025-12-11T04:19:00 | -17.0746 | -34.9495 | 702.0 | 35.10 | -64.25 | 4 | 17.0 | 15.0 | -72.2 | 1 | 4.4 |
| 2025-12-11T04:19:00 | -17.0746 | -34.9495 | 710.0 | -39.13 | -10.88 | 4 | 16.7 | 14.5 | -72.1 | 2 | 8.7 |
| 2025-12-11T04:19:00 | -17.0746 | -34.9495 | 758.0 | 29.22 | -61.52 | 4 | 16.1 | 14.8 | -69.2 | 1 | 4.4 |
| 2025-12-11T04:20:00 | -17.0715 | -34.9478 | 22.0 | 17.44 | -32.38 | 1 | 148.2 | 148.2 | -84.7 | 21 | 95.5 |
| 2025-12-11T04:20:00 | -17.0715 | -34.9478 | 30.0 | 0.34 | -31.21 | 1 | 145.4 | 145.4 | -81.5 | 19 | 86.4 |
| 2025-12-11T04:20:00 | -17.0715 | -34.9478 | 38.0 | 13.49 | -37.30 | 1 | 137.1 | 137.1 | -81.9 | 20 | 90.9 |
| 2025-12-11T04:20:00 | -17.0715 | -34.9478 | 46.0 | 14.17 | -34.34 | 1 | 121.4 | 121.4 | -86.1 | 21 | 95.5 |
| 2025-12-11T04:20:00 | -17.0715 | -34.9478 | 54.0 | 10.85 | -23.30 | 1 | 112.3 | 112.7 | -87.7 | 21 | 95.5 |
| 2025-12-11T04:20:00 | -17.0715 | -34.9478 | 62.0 | 14.20 | -15.11 | 1 | 105.2 | 105.3 | -89.0 | 21 | 95.5 |
| 2025-12-11T04:20:00 | -17.0715 | -34.9478 | 70.0 | -15.03 | -26.85 | 1 | 106.0 | 105.4 | -87.3 | 21 | 95.5 |
| 2025-12-11T04:20:00 | -17.0715 | -34.9478 | 78.0 | 7.90 | -23.63 | 1 | 104.5 | 104.5 | -86.2 | 20 | 90.9 |
| 2025-12-11T04:20:00 | -17.0715 | -34.9478 | 86.0 | 8.19 | -23.21 | 1 | 97.9 | 97.9 | -87.6 | 22 | 100.0 |
| 2025-12-11T04:20:00 | -17.0715 | -34.9478 | 94.0 | 7.36 | -7.43 | 1 | 92.3 | 91.6 | -89.0 | 19 | 86.4 |
| 2025-12-11T04:20:00 | -17.0715 | -34.9478 | 102.0 | -1.64 | -6.48 | 1 | 93.8 | 93.3 | -87.1 | 19 | 86.4 |
| 2025-12-11T04:20:00 | -17.0715 | -34.9478 | 110.0 | 8.62 | -20.73 | 1 | 93.8 | 92.4 | -86.3 | 18 | 81.8 |
| 2025-12-11T04:20:00 | -17.0715 | -34.9478 | 118.0 | 12.23 | -12.09 | 1 | 87.4 | 87.4 | -87.3 | 22 | 100.0 |
| 2025-12-11T04:20:00 | -17.0715 | -34.9478 | 126.0 | -0.93 | -18.31 | 1 | 82.9 | 82.9 | -88.2 | 20 | 90.9 |
| 2025-12-11T04:20:00 | -17.0715 | -34.9478 | 134.0 | 12.15 | -27.38 | 1 | 81.8 | 80.7 | -88.1 | 20 | 90.9 |
| 2025-12-11T04:20:00 | -17.0715 | -34.9478 | 142.0 | -12.10 | -17.28 | 1 | 79.8 | 79.8 | -87.5 | 21 | 95.5 |
| 2025-12-11T04:20:00 | -17.0715 | -34.9478 | 150.0 | 2.80 | -4.83 | 1 | 77.0 | 76.4 | -87.9 | 19 | 86.4 |
| 2025-12-11T04:20:00 | -17.0715 | -34.9478 | 158.0 | -5.33 | -25.48 | 1 | 74.3 | 74.3 | -87.9 | 17 | 77.3 |
| 2025-12-11T04:20:00 | -17.0715 | -34.9478 | 166.0 | 10.15 | -33.96 | 1 | 75.8 | 75.5 | -86.5 | 21 | 95.5 |
| 2025-12-11T04:20:00 | -17.0715 | -34.9478 | 174.0 | -7.65 | -23.74 | 1 | 69.7 | 68.8 | -88.4 | 20 | 90.9 |
| 2025-12-11T04:20:00 | -17.0715 | -34.9478 | 182.0 | -11.32 | -21.73 | 1 | 63.5 | 63.5 | -89.8 | 22 | 100.0 |
| 2025-12-11T04:20:00 | -17.0715 | -34.9478 | 190.0 | -6.72 | -34.34 | 1 | 58.8 | 58.8 | -91.0 | 21 | 95.5 |
| 2025-12-11T04:20:00 | -17.0715 | -34.9478 | 198.0 | -15.81 | -20.65 | 1 | 60.8 | 60.8 | -89.3 | 21 | 95.5 |
| 2025-12-11T04:20:00 | -17.0715 | -34.9478 | 206.0 | -0.20 | -22.22 | 1 | 55.0 | 55.0 | -90.9 | 22 | 100.0 |
| 2025-12-11T04:20:00 | -17.0715 | -34.9478 | 214.0 | -15.81 | 3.59 | 1 | 58.9 | 58.9 | -88.5 | 21 | 95.5 |
| 2025-12-11T04:20:00 | -17.0715 | -34.9478 | 222.0 | -5.00 | -24.43 | 1 | 65.7 | 64.9 | -85.1 | 20 | 90.9 |
| 2025-12-11T04:20:00 | -17.0715 | -34.9478 | 230.0 | -5.44 | -21.30 | 1 | 63.6 | 63.2 | -85.1 | 20 | 90.9 |
| 2025-12-11T04:20:00 | -17.0715 | -34.9478 | 238.0 | -2.23 | -14.51 | 1 | 53.7 | 53.2 | -88.6 | 21 | 95.5 |
| 2025-12-11T04:20:00 | -17.0715 | -34.9478 | 246.0 | 6.64 | -5.87 | 1 | 48.9 | 48.9 | -89.6 | 22 | 100.0 |
| 2025-12-11T04:20:00 | -17.0715 | -34.9478 | 254.0 | -10.30 | 4.15 | 1 | 50.7 | 50.4 | -88.2 | 21 | 95.5 |
| 2025-12-11T04:20:00 | -17.0715 | -34.9478 | 262.0 | 2.38 | -10.05 | 1 | 65.4 | 62.0 | -82.5 | 14 | 63.6 |
| 2025-12-11T04:20:00 | -17.0715 | -34.9478 | 270.0 | -0.30 | -24.49 | 1 | 63.4 | 62.8 | -81.5 | 20 | 90.9 |
| 2025-12-11T04:20:00 | -17.0715 | -34.9478 | 278.0 | 4.63 | -35.81 | 1 | 43.7 | 43.7 | -88.9 | 21 | 95.5 |
| 2025-12-11T04:20:00 | -17.0715 | -34.9478 | 286.0 | 8.23 | -25.93 | 1 | 32.5 | 32.5 | -93.1 | 18 | 81.8 |
| 2025-12-11T04:20:00 | -17.0715 | -34.9478 | 294.0 | -9.10 | -7.32 | 1 | 29.1 | 29.1 | -93.9 | 22 | 100.0 |
| 2025-12-11T04:20:00 | -17.0715 | -34.9478 | 302.0 | -12.05 | -18.32 | 1 | 25.6 | 25.6 | -94.8 | 22 | 100.0 |
| 2025-12-11T04:20:00 | -17.0715 | -34.9478 | 310.0 | -6.04 | -24.08 | 1 | 24.2 | 23.8 | -95.0 | 16 | 72.7 |
| 2025-12-11T04:20:00 | -17.0715 | -34.9478 | 318.0 | 4.77 | -13.68 | 1 | 22.2 | 21.4 | -95.4 | 14 | 63.6 |
| 2025-12-11T04:20:00 | -17.0715 | -34.9478 | 326.0 | 0.43 | -20.20 | 1 | 20.7 | 20.8 | -95.0 | 12 | 54.5 |
| 2025-12-11T04:20:00 | -17.0715 | -34.9478 | 334.0 | 5.07 | -25.45 | 1 | 20.9 | 20.8 | -94.4 | 13 | 59.1 |
| 2025-12-11T04:20:00 | -17.0715 | -34.9478 | 342.0 | -1.86 | -21.18 | 1 | 20.4 | 20.2 | -94.0 | 13 | 59.1 |
| 2025-12-11T04:20:00 | -17.0715 | -34.9478 | 350.0 | 8.85 | -46.84 | 1 | 19.0 | 19.2 | -93.8 | 9 | 40.9 |
| 2025-12-11T04:20:00 | -17.0715 | -34.9478 | 358.0 | -3.11 | -25.62 | 1 | 18.2 | 18.1 | -93.8 | 12 | 54.5 |
| 2025-12-11T04:20:00 | -17.0715 | -34.9478 | 366.0 | -6.18 | -43.18 | 1 | 17.6 | 17.3 | -93.5 | 12 | 54.5 |
| 2025-12-11T04:20:00 | -17.0715 | -34.9478 | 374.0 | -10.99 | -40.97 | 1 | 17.6 | 16.5 | -93.4 | 6 | 27.3 |
| 2025-12-11T04:20:00 | -17.0715 | -34.9478 | 382.0 | 4.99 | -36.27 | 1 | 17.7 | 17.0 | -92.4 | 6 | 27.3 |
| 2025-12-11T04:20:00 | -17.0715 | -34.9478 | 390.0 | -16.08 | -30.85 | 4 | 17.4 | 17.6 | -91.5 | 2 | 9.1 |
| 2025-12-11T04:20:00 | -17.0715 | -34.9478 | 406.0 | -11.40 | -19.49 | 4 | 16.5 | 16.5 | -90.9 | 1 | 4.5 |
| 2025-12-11T04:20:00 | -17.0715 | -34.9478 | 422.0 | -9.63 | -27.79 | 4 | 15.2 | 15.5 | -90.2 | 1 | 4.5 |
| 2025-12-11T04:20:00 | -17.0715 | -34.9478 | 446.0 | 44.95 | -62.68 | 4 | 16.9 | 11.2 | -90.9 | 1 | 4.5 |
| 2025-12-11T04:20:00 | -17.0715 | -34.9478 | 454.0 | -16.28 | -16.58 | 4 | 18.8 | 15.4 | -87.9 | 1 | 4.5 |
| 2025-12-11T04:20:00 | -17.0715 | -34.9478 | 462.0 | 51.27 | -30.58 | 4 | 19.7 | 16.9 | -86.5 | 4 | 18.2 |
| 2025-12-11T04:20:00 | -17.0715 | -34.9478 | 470.0 | 16.43 | -6.82 | 4 | 21.8 | 17.0 | -85.9 | 5 | 22.7 |
| 2025-12-11T04:20:00 | -17.0715 | -34.9478 | 478.0 | -2.58 | -33.36 | 4 | 23.6 | 20.6 | -83.5 | 3 | 13.6 |
| 2025-12-11T04:20:00 | -17.0715 | -34.9478 | 486.0 | 14.13 | -18.15 | 1 | 24.3 | 18.3 | -84.1 | 6 | 27.3 |
| 2025-12-11T04:20:00 | -17.0715 | -34.9478 | 494.0 | -10.19 | -1.87 | 1 | 24.4 | 19.1 | -83.2 | 9 | 40.9 |
| 2025-12-11T04:20:00 | -17.0715 | -34.9478 | 502.0 | -10.65 | -13.34 | 1 | 26.7 | 20.8 | -81.8 | 11 | 50.0 |
| 2025-12-11T04:20:00 | -17.0715 | -34.9478 | 510.0 | -17.07 | -18.34 | 1 | 27.5 | 23.3 | -80.0 | 12 | 54.5 |
| 2025-12-11T04:20:00 | -17.0715 | -34.9478 | 518.0 | 7.51 | -16.53 | 1 | 26.7 | 24.2 | -79.1 | 9 | 40.9 |
| 2025-12-11T04:20:00 | -17.0715 | -34.9478 | 526.0 | -1.17 | 1.93 | 1 | 24.1 | 21.7 | -79.7 | 11 | 50.0 |
| 2025-12-11T04:20:00 | -17.0715 | -34.9478 | 534.0 | 8.53 | -24.49 | 1 | 22.6 | 21.5 | -79.3 | 13 | 59.1 |
| 2025-12-11T04:20:00 | -17.0715 | -34.9478 | 542.0 | 7.19 | -27.61 | 1 | 21.5 | 21.1 | -78.9 | 19 | 86.4 |
| 2025-12-11T04:20:00 | -17.0715 | -34.9478 | 550.0 | 4.93 | -12.93 | 1 | 21.7 | 21.6 | -78.1 | 15 | 68.2 |
| 2025-12-11T04:20:00 | -17.0715 | -34.9478 | 558.0 | 11.21 | -29.53 | 1 | 19.6 | 20.0 | -78.5 | 15 | 68.2 |
| 2025-12-11T04:20:00 | -17.0715 | -34.9478 | 566.0 | -1.64 | -34.70 | 1 | 18.9 | 17.6 | -79.1 | 9 | 40.9 |
| 2025-12-11T04:20:00 | -17.0715 | -34.9478 | 574.0 | 6.57 | -26.82 | 1 | 20.9 | 18.5 | -78.1 | 9 | 40.9 |
| 2025-12-11T04:20:00 | -17.0715 | -34.9478 | 582.0 | -6.38 | -21.14 | 1 | 20.6 | 19.2 | -77.3 | 6 | 27.3 |
| 2025-12-11T04:20:00 | -17.0715 | -34.9478 | 590.0 | -15.61 | -37.15 | 1 | 18.2 | 15.8 | -78.6 | 8 | 36.4 |
| 2025-12-11T04:20:00 | -17.0715 | -34.9478 | 598.0 | 42.00 | -4.11 | 4 | 17.2 | 15.9 | -78.0 | 2 | 9.1 |
| 2025-12-11T04:20:00 | -17.0715 | -34.9478 | 606.0 | 56.75 | -26.67 | 4 | 17.0 | 15.6 | -77.6 | 2 | 9.1 |
| 2025-12-11T04:20:00 | -17.0715 | -34.9478 | 614.0 | 23.74 | -56.79 | 4 | 16.6 | 13.9 | -78.1 | 2 | 9.1 |
| 2025-12-11T04:20:00 | -17.0715 | -34.9478 | 630.0 | -13.26 | -26.05 | 4 | 18.9 | 16.8 | -75.6 | 1 | 4.5 |
| 2025-12-11T04:21:00 | -17.0684 | -34.9460 | 22.0 | -4.17 | -5.00 | 1 | 147.1 | 147.4 | -85.0 | 21 | 91.3 |
| 2025-12-11T04:21:00 | -17.0684 | -34.9460 | 30.0 | -4.86 | -37.35 | 1 | 145.7 | 145.7 | -81.4 | 23 | 100.0 |
| 2025-12-11T04:21:00 | -17.0684 | -34.9460 | 38.0 | 5.98 | -40.41 | 1 | 137.0 | 137.0 | -81.9 | 22 | 95.6 |
| 2025-12-11T04:21:00 | -17.0684 | -34.9460 | 46.0 | 6.90 | -24.26 | 1 | 120.8 | 120.8 | -86.3 | 22 | 95.6 |
| 2025-12-11T04:21:00 | -17.0684 | -34.9460 | 54.0 | -0.63 | -23.44 | 1 | 113.4 | 112.9 | -87.6 | 22 | 95.6 |
| 2025-12-11T04:21:00 | -17.0684 | -34.9460 | 62.0 | -6.99 | -19.21 | 1 | 105.5 | 105.5 | -88.9 | 23 | 100.0 |
| 2025-12-11T04:21:00 | -17.0684 | -34.9460 | 70.0 | 9.50 | -22.31 | 1 | 107.1 | 106.0 | -87.1 | 21 | 91.3 |
| 2025-12-11T04:21:00 | -17.0684 | -34.9460 | 78.0 | 6.71 | -31.26 | 1 | 104.4 | 104.4 | -86.3 | 22 | 95.6 |
| 2025-12-11T04:21:00 | -17.0684 | -34.9460 | 86.0 | -4.68 | -31.89 | 1 | 97.4 | 97.4 | -87.9 | 22 | 95.6 |
| 2025-12-11T04:21:00 | -17.0684 | -34.9460 | 94.0 | -17.46 | -30.24 | 1 | 96.8 | 96.3 | -87.0 | 22 | 95.6 |
| 2025-12-11T04:21:00 | -17.0684 | -34.9460 | 102.0 | 7.43 | -26.34 | 1 | 94.5 | 93.0 | -87.2 | 19 | 82.6 |
| 2025-12-11T04:21:00 | -17.0684 | -34.9460 | 110.0 | 11.99 | -35.75 | 1 | 88.9 | 88.0 | -88.2 | 18 | 78.3 |
| 2025-12-11T04:21:00 | -17.0684 | -34.9460 | 118.0 | 1.09 | -34.33 | 1 | 85.9 | 85.6 | -88.1 | 21 | 91.3 |
| 2025-12-11T04:21:00 | -17.0684 | -34.9460 | 126.0 | 17.85 | -6.60 | 1 | 82.1 | 82.0 | -88.5 | 20 | 87.0 |
| 2025-12-11T04:21:00 | -17.0684 | -34.9460 | 134.0 | -2.16 | -23.90 | 1 | 80.1 | 80.1 | -88.3 | 22 | 95.6 |
| 2025-12-11T04:21:00 | -17.0684 | -34.9460 | 142.0 | 11.91 | -19.80 | 1 | 78.9 | 78.5 | -88.0 | 20 | 87.0 |
| 2025-12-11T04:21:00 | -17.0684 | -34.9460 | 150.0 | 17.54 | -9.36 | 1 | 77.5 | 77.5 | -87.5 | 20 | 87.0 |
| 2025-12-11T04:21:00 | -17.0684 | -34.9460 | 158.0 | 17.02 | -25.88 | 1 | 73.5 | 73.5 | -88.2 | 22 | 95.6 |
| 2025-12-11T04:21:00 | -17.0684 | -34.9460 | 166.0 | 3.99 | -18.88 | 1 | 74.8 | 74.3 | -87.0 | 21 | 91.3 |
| 2025-12-11T04:21:00 | -17.0684 | -34.9460 | 174.0 | -5.47 | -41.70 | 1 | 69.6 | 69.0 | -88.4 | 18 | 78.3 |
| 2025-12-11T04:21:00 | -17.0684 | -34.9460 | 182.0 | -13.78 | -34.12 | 1 | 62.0 | 61.8 | -90.6 | 21 | 91.3 |
| 2025-12-11T04:21:00 | -17.0684 | -34.9460 | 190.0 | -3.64 | -30.23 | 1 | 59.4 | 59.4 | -90.7 | 21 | 91.3 |
| 2025-12-11T04:21:00 | -17.0684 | -34.9460 | 198.0 | 19.83 | -24.32 | 1 | 60.8 | 60.8 | -89.3 | 21 | 91.3 |
| 2025-12-11T04:21:00 | -17.0684 | -34.9460 | 206.0 | -4.05 | -31.69 | 1 | 55.2 | 55.2 | -90.9 | 21 | 91.3 |
| 2025-12-11T04:21:00 | -17.0684 | -34.9460 | 214.0 | 13.63 | -6.56 | 1 | 59.2 | 58.7 | -88.5 | 22 | 95.6 |
| 2025-12-11T04:21:00 | -17.0684 | -34.9460 | 222.0 | 5.77 | -2.94 | 1 | 70.5 | 68.9 | -83.4 | 18 | 78.3 |
| 2025-12-11T04:21:00 | -17.0684 | -34.9460 | 230.0 | 0.35 | -12.48 | 1 | 64.5 | 64.0 | -84.7 | 22 | 95.6 |
| 2025-12-11T04:21:00 | -17.0684 | -34.9460 | 238.0 | -8.36 | -5.17 | 1 | 55.4 | 55.4 | -87.6 | 22 | 95.6 |
| 2025-12-11T04:21:00 | -17.0684 | -34.9460 | 246.0 | -10.60 | -3.70 | 1 | 48.6 | 48.6 | -89.8 | 21 | 91.3 |
| 2025-12-11T04:21:00 | -17.0684 | -34.9460 | 254.0 | 1.21 | -13.29 | 1 | 50.5 | 50.8 | -88.1 | 22 | 95.6 |
| 2025-12-11T04:21:00 | -17.0684 | -34.9460 | 262.0 | 1.83 | 2.06 | 1 | 63.4 | 61.1 | -82.9 | 15 | 65.2 |
| 2025-12-11T04:21:00 | -17.0684 | -34.9460 | 270.0 | -16.87 | -1.73 | 1 | 67.7 | 63.1 | -81.3 | 9 | 39.1 |
| 2025-12-11T04:21:00 | -17.0684 | -34.9460 | 278.0 | -19.17 | -19.50 | 1 | 55.2 | 50.5 | -86.0 | 10 | 43.5 |
| 2025-12-11T04:21:00 | -17.0684 | -34.9460 | 286.0 | -6.13 | -35.76 | 1 | 36.8 | 36.2 | -91.4 | 21 | 91.3 |
| 2025-12-11T04:21:00 | -17.0684 | -34.9460 | 294.0 | 1.43 | -28.39 | 1 | 30.1 | 29.0 | -93.9 | 20 | 87.0 |
| 2025-12-11T04:21:00 | -17.0684 | -34.9460 | 302.0 | -9.61 | -12.85 | 1 | 28.9 | 27.3 | -94.0 | 22 | 95.6 |
| 2025-12-11T04:21:00 | -17.0684 | -34.9460 | 310.0 | 7.57 | -20.67 | 1 | 25.9 | 23.9 | -94.9 | 19 | 82.6 |
| 2025-12-11T04:21:00 | -17.0684 | -34.9460 | 318.0 | 11.22 | -24.10 | 1 | 22.9 | 21.1 | -95.6 | 16 | 69.6 |
| 2025-12-11T04:21:00 | -17.0684 | -34.9460 | 326.0 | -1.95 | -11.54 | 1 | 22.9 | 20.1 | -95.4 | 9 | 39.1 |
| 2025-12-11T04:21:00 | -17.0684 | -34.9460 | 334.0 | 3.99 | -30.49 | 1 | 22.6 | 20.9 | -94.3 | 12 | 52.2 |
| 2025-12-11T04:21:00 | -17.0684 | -34.9460 | 342.0 | 3.63 | -6.26 | 1 | 21.9 | 20.3 | -93.9 | 13 | 56.5 |
| 2025-12-11T04:21:00 | -17.0684 | -34.9460 | 350.0 | -4.28 | -15.99 | 1 | 20.9 | 18.6 | -94.2 | 11 | 47.8 |
| 2025-12-11T04:21:00 | -17.0684 | -34.9460 | 358.0 | -6.43 | -22.16 | 1 | 19.6 | 17.6 | -94.0 | 9 | 39.1 |
| 2025-12-11T04:21:00 | -17.0684 | -34.9460 | 366.0 | 0.60 | -42.29 | 1 | 18.7 | 16.4 | -94.0 | 10 | 43.5 |
| 2025-12-11T04:21:00 | -17.0684 | -34.9460 | 374.0 | 16.24 | -41.41 | 4 | 20.1 | 15.5 | -93.8 | 5 | 21.7 |
| 2025-12-11T04:21:00 | -17.0684 | -34.9460 | 382.0 | 10.06 | -33.96 | 1 | 18.4 | 16.9 | -92.5 | 8 | 34.8 |
| 2025-12-11T04:21:00 | -17.0684 | -34.9460 | 390.0 | -6.69 | -22.22 | 4 | 17.6 | 15.6 | -92.6 | 3 | 13.0 |
| 2025-12-11T04:21:00 | -17.0684 | -34.9460 | 398.0 | 35.25 | 31.87 | 4 | 18.0 | 19.2 | -90.0 | 1 | 4.4 |
| 2025-12-11T04:21:00 | -17.0684 | -34.9460 | 414.0 | 29.49 | -13.36 | 4 | 17.2 | 18.4 | -89.3 | 2 | 8.7 |
| 2025-12-11T04:21:00 | -17.0684 | -34.9460 | 430.0 | 18.33 | -11.44 | 4 | 17.6 | 16.9 | -88.9 | 2 | 8.7 |
| 2025-12-11T04:21:00 | -17.0684 | -34.9460 | 438.0 | 5.19 | -48.80 | 4 | 17.7 | 17.1 | -88.1 | 2 | 8.7 |
| 2025-12-11T04:21:00 | -17.0684 | -34.9460 | 446.0 | -1.30 | -51.31 | 4 | 18.2 | 12.5 | -90.1 | 2 | 8.7 |
| 2025-12-11T04:21:00 | -17.0684 | -34.9460 | 454.0 | 21.89 | -32.26 | 4 | 19.5 | 15.3 | -88.0 | 3 | 13.0 |
| 2025-12-11T04:21:00 | -17.0684 | -34.9460 | 462.0 | 16.20 | -39.29 | 1 | 20.0 | 16.0 | -87.0 | 7 | 30.4 |
| 2025-12-11T04:21:00 | -17.0684 | -34.9460 | 470.0 | 8.23 | -45.98 | 1 | 20.0 | 14.8 | -87.1 | 7 | 30.4 |
| 2025-12-11T04:21:00 | -17.0684 | -34.9460 | 478.0 | 3.79 | -9.85 | 4 | 19.8 | 16.5 | -85.6 | 4 | 17.4 |
| 2025-12-11T04:21:00 | -17.0684 | -34.9460 | 486.0 | 25.43 | -31.10 | 4 | 21.0 | 16.5 | -85.0 | 4 | 17.4 |
| 2025-12-11T04:21:00 | -17.0684 | -34.9460 | 494.0 | 14.64 | -24.30 | 1 | 20.9 | 16.8 | -84.4 | 7 | 30.4 |
| 2025-12-11T04:21:00 | -17.0684 | -34.9460 | 502.0 | 8.44 | -4.04 | 1 | 24.6 | 21.3 | -81.5 | 9 | 39.1 |
| 2025-12-11T04:21:00 | -17.0684 | -34.9460 | 510.0 | 9.45 | -34.72 | 1 | 25.4 | 21.2 | -81.0 | 12 | 52.2 |
| 2025-12-11T04:21:00 | -17.0684 | -34.9460 | 518.0 | -9.01 | -13.02 | 1 | 26.6 | 24.1 | -79.1 | 15 | 65.2 |
| 2025-12-11T04:21:00 | -17.0684 | -34.9460 | 526.0 | 4.55 | -30.09 | 1 | 24.3 | 21.6 | -79.8 | 16 | 69.6 |
| 2025-12-11T04:21:00 | -17.0684 | -34.9460 | 534.0 | -7.70 | -12.37 | 1 | 23.6 | 21.0 | -79.5 | 17 | 73.9 |
| 2025-12-11T04:21:00 | -17.0684 | -34.9460 | 542.0 | -3.49 | -13.14 | 1 | 23.9 | 21.3 | -78.9 | 15 | 65.2 |
| 2025-12-11T04:21:00 | -17.0684 | -34.9460 | 550.0 | 2.36 | -32.01 | 1 | 24.1 | 22.1 | -77.9 | 14 | 60.9 |
| 2025-12-11T04:21:00 | -17.0684 | -34.9460 | 558.0 | -0.30 | -24.64 | 1 | 21.1 | 18.7 | -79.1 | 13 | 56.5 |
| 2025-12-11T04:21:00 | -17.0684 | -34.9460 | 566.0 | -20.14 | -27.30 | 1 | 19.9 | 17.2 | -79.3 | 6 | 26.1 |
| 2025-12-11T04:21:00 | -17.0684 | -34.9460 | 574.0 | -6.00 | -37.04 | 1 | 19.4 | 17.7 | -78.5 | 8 | 34.8 |
| 2025-12-11T04:21:00 | -17.0684 | -34.9460 | 582.0 | 7.37 | -30.91 | 1 | 19.0 | 16.8 | -78.5 | 6 | 26.1 |
| 2025-12-11T04:21:00 | -17.0684 | -34.9460 | 590.0 | 17.68 | -28.23 | 4 | 16.2 | 15.5 | -78.7 | 5 | 21.7 |
| 2025-12-11T04:21:00 | -17.0684 | -34.9460 | 598.0 | 14.82 | -60.27 | 4 | 15.2 | 14.8 | -78.6 | 3 | 13.0 |
| 2025-12-11T04:21:00 | -17.0684 | -34.9460 | 622.0 | 9 | 14.8 | 12.0 | -78.7 | 0 | 0.0 | ||
| 2025-12-11T04:22:00 | -17.0651 | -34.9443 | 22.0 | 11.63 | -27.28 | 1 | 147.6 | 148.0 | -84.7 | 21 | 91.3 |
| 2025-12-11T04:22:00 | -17.0651 | -34.9443 | 30.0 | 2.80 | -41.20 | 1 | 141.2 | 141.2 | -83.3 | 22 | 95.6 |
| 2025-12-11T04:22:00 | -17.0651 | -34.9443 | 38.0 | -3.06 | -28.22 | 1 | 133.9 | 134.2 | -83.1 | 20 | 87.0 |
| 2025-12-11T04:22:00 | -17.0651 | -34.9443 | 46.0 | 16.35 | -23.94 | 1 | 120.3 | 120.3 | -86.5 | 23 | 100.0 |
| 2025-12-11T04:22:00 | -17.0651 | -34.9443 | 54.0 | 2.59 | -21.73 | 1 | 110.3 | 110.3 | -88.7 | 21 | 91.3 |
| 2025-12-11T04:22:00 | -17.0651 | -34.9443 | 62.0 | 2.00 | -19.82 | 1 | 109.6 | 109.0 | -87.4 | 20 | 87.0 |
| 2025-12-11T04:22:00 | -17.0651 | -34.9443 | 70.0 | 0.07 | -26.78 | 1 | 108.6 | 107.7 | -86.4 | 21 | 91.3 |
| 2025-12-11T04:22:00 | -17.0651 | -34.9443 | 78.0 | -5.16 | -31.38 | 1 | 102.3 | 102.3 | -87.2 | 23 | 100.0 |
| 2025-12-11T04:22:00 | -17.0651 | -34.9443 | 86.0 | 3.30 | -28.68 | 1 | 99.5 | 98.7 | -87.3 | 20 | 87.0 |
| 2025-12-11T04:22:00 | -17.0651 | -34.9443 | 94.0 | 12.33 | -15.56 | 1 | 96.8 | 96.0 | -87.2 | 20 | 87.0 |
| 2025-12-11T04:22:00 | -17.0651 | -34.9443 | 102.0 | 5.35 | -14.45 | 1 | 95.1 | 94.7 | -86.5 | 21 | 91.3 |
| 2025-12-11T04:22:00 | -17.0651 | -34.9443 | 110.0 | 8.12 | -19.68 | 1 | 89.7 | 89.7 | -87.5 | 22 | 95.6 |
| 2025-12-11T04:22:00 | -17.0651 | -34.9443 | 118.0 | -4.86 | -32.01 | 1 | 86.1 | 86.1 | -87.9 | 23 | 100.0 |
| 2025-12-11T04:22:00 | -17.0651 | -34.9443 | 126.0 | -10.39 | -26.21 | 1 | 85.0 | 85.4 | -87.1 | 21 | 91.3 |
| 2025-12-11T04:22:00 | -17.0651 | -34.9443 | 134.0 | -3.05 | -32.04 | 1 | 78.4 | 77.9 | -89.3 | 21 | 91.3 |
| 2025-12-11T04:22:00 | -17.0651 | -34.9443 | 142.0 | 7.43 | -12.32 | 1 | 79.8 | 79.4 | -87.6 | 22 | 95.6 |
| 2025-12-11T04:22:00 | -17.0651 | -34.9443 | 150.0 | 13.44 | -22.30 | 1 | 77.4 | 77.4 | -87.5 | 21 | 91.3 |
| 2025-12-11T04:22:00 | -17.0651 | -34.9443 | 158.0 | 9.18 | -29.82 | 1 | 74.5 | 75.1 | -87.6 | 22 | 95.6 |
| 2025-12-11T04:22:00 | -17.0651 | -34.9443 | 166.0 | 7.15 | -28.52 | 1 | 74.0 | 73.5 | -87.3 | 20 | 87.0 |
| 2025-12-11T04:22:00 | -17.0651 | -34.9443 | 174.0 | -12.13 | -10.86 | 1 | 70.0 | 69.6 | -88.1 | 18 | 78.3 |
| 2025-12-11T04:22:00 | -17.0651 | -34.9443 | 182.0 | -1.17 | -3.21 | 1 | 62.1 | 61.0 | -90.9 | 21 | 91.3 |
| 2025-12-11T04:22:00 | -17.0651 | -34.9443 | 190.0 | -2.38 | -19.21 | 1 | 61.0 | 60.3 | -90.3 | 22 | 95.6 |
| 2025-12-11T04:22:00 | -17.0651 | -34.9443 | 198.0 | 2.36 | -36.22 | 1 | 61.4 | 61.0 | -89.2 | 21 | 91.3 |
| 2025-12-11T04:22:00 | -17.0651 | -34.9443 | 206.0 | 3.41 | -35.12 | 1 | 58.0 | 57.6 | -89.8 | 22 | 95.6 |
| 2025-12-11T04:22:00 | -17.0651 | -34.9443 | 214.0 | -2.47 | -16.08 | 1 | 59.1 | 58.4 | -88.7 | 20 | 87.0 |
| 2025-12-11T04:22:00 | -17.0651 | -34.9443 | 222.0 | 6.51 | -15.45 | 1 | 65.4 | 64.0 | -85.5 | 18 | 78.3 |
| 2025-12-11T04:22:00 | -17.0651 | -34.9443 | 230.0 | 11.93 | -2.04 | 1 | 64.9 | 63.4 | -84.9 | 17 | 73.9 |
| 2025-12-11T04:22:00 | -17.0651 | -34.9443 | 238.0 | 2.04 | -2.34 | 1 | 53.7 | 53.8 | -88.3 | 22 | 95.6 |
| 2025-12-11T04:22:00 | -17.0651 | -34.9443 | 246.0 | -1.41 | -7.85 | 1 | 47.7 | 47.4 | -90.3 | 20 | 87.0 |
| 2025-12-11T04:22:00 | -17.0651 | -34.9443 | 254.0 | -4.39 | -14.97 | 1 | 49.1 | 48.9 | -88.9 | 20 | 87.0 |
| 2025-12-11T04:22:00 | -17.0651 | -34.9443 | 262.0 | 13.42 | -7.62 | 1 | 56.4 | 56.6 | -84.9 | 22 | 95.6 |
| 2025-12-11T04:22:00 | -17.0651 | -34.9443 | 270.0 | 4.56 | -13.95 | 1 | 63.7 | 61.6 | -82.0 | 16 | 69.6 |
| 2025-12-11T04:22:00 | -17.0651 | -34.9443 | 278.0 | 0.21 | -14.64 | 1 | 57.6 | 52.9 | -85.0 | 6 | 26.1 |
| 2025-12-11T04:22:00 | -17.0651 | -34.9443 | 286.0 | -0.66 | -39.81 | 1 | 40.0 | 38.7 | -90.4 | 19 | 82.6 |
| 2025-12-11T04:22:00 | -17.0651 | -34.9443 | 294.0 | -10.41 | -11.65 | 1 | 30.3 | 30.5 | -93.3 | 21 | 91.3 |
| 2025-12-11T04:22:00 | -17.0651 | -34.9443 | 302.0 | -5.55 | -12.22 | 1 | 27.3 | 26.5 | -94.4 | 19 | 82.6 |
| 2025-12-11T04:22:00 | -17.0651 | -34.9443 | 310.0 | -9.17 | -17.32 | 1 | 24.7 | 24.4 | -94.7 | 19 | 82.6 |
| 2025-12-11T04:22:00 | -17.0651 | -34.9443 | 318.0 | 1.08 | -17.77 | 1 | 22.0 | 20.6 | -95.8 | 16 | 69.6 |
| 2025-12-11T04:22:00 | -17.0651 | -34.9443 | 326.0 | -6.35 | 1.48 | 1 | 20.1 | 20.2 | -95.3 | 15 | 65.2 |
| 2025-12-11T04:22:00 | -17.0651 | -34.9443 | 334.0 | -19.25 | -14.51 | 1 | 19.5 | 18.8 | -95.4 | 11 | 47.8 |
| 2025-12-11T04:22:00 | -17.0651 | -34.9443 | 342.0 | -4.96 | -31.87 | 1 | 16.9 | 16.5 | -95.9 | 15 | 65.2 |
| 2025-12-11T04:22:00 | -17.0651 | -34.9443 | 350.0 | 3.05 | -14.35 | 1 | 17.2 | 16.8 | -95.1 | 12 | 52.2 |
| 2025-12-11T04:22:00 | -17.0651 | -34.9443 | 358.0 | 16.61 | -21.44 | 1 | 17.2 | 16.4 | -94.6 | 12 | 52.2 |
| 2025-12-11T04:22:00 | -17.0651 | -34.9443 | 366.0 | -23.80 | -22.86 | 1 | 16.3 | 16.8 | -93.8 | 8 | 34.8 |
| 2025-12-11T04:22:00 | -17.0651 | -34.9443 | 374.0 | -5.30 | 6.93 | 4 | 16.2 | 13.5 | -95.0 | 5 | 21.7 |
| 2025-12-11T04:22:00 | -17.0651 | -34.9443 | 382.0 | 16.48 | -40.28 | 1 | 16.3 | 15.6 | -93.2 | 6 | 26.1 |
| 2025-12-11T04:22:00 | -17.0651 | -34.9443 | 390.0 | 17.27 | -68.98 | 4 | 16.1 | 13.7 | -93.6 | 2 | 8.7 |
| 2025-12-11T04:22:00 | -17.0651 | -34.9443 | 398.0 | -4.39 | -56.75 | 4 | 15.2 | 14.2 | -92.7 | 3 | 13.0 |
| 2025-12-11T04:22:00 | -17.0651 | -34.9443 | 414.0 | 0.33 | -36.61 | 4 | 14.0 | 15.2 | -90.9 | 1 | 4.4 |
| 2025-12-11T04:22:00 | -17.0651 | -34.9443 | 430.0 | -19.54 | -8.33 | 4 | 14.1 | 13.8 | -90.6 | 1 | 4.4 |
| 2025-12-11T04:22:00 | -17.0651 | -34.9443 | 438.0 | 3.35 | -25.48 | 4 | 15.1 | 14.2 | -89.7 | 2 | 8.7 |
| 2025-12-11T04:22:00 | -17.0651 | -34.9443 | 446.0 | -35.41 | -5.77 | 4 | 15.8 | 11.8 | -90.6 | 1 | 4.4 |
| 2025-12-11T04:22:00 | -17.0651 | -34.9443 | 454.0 | -13.75 | -1.93 | 4 | 16.8 | 15.1 | -88.1 | 4 | 17.4 |
| 2025-12-11T04:22:00 | -17.0651 | -34.9443 | 462.0 | 0.01 | -33.32 | 4 | 16.7 | 15.1 | -87.5 | 5 | 21.7 |
| 2025-12-11T04:22:00 | -17.0651 | -34.9443 | 470.0 | -1.81 | -30.04 | 4 | 18.5 | 15.9 | -86.5 | 4 | 17.4 |
| 2025-12-11T04:22:00 | -17.0651 | -34.9443 | 478.0 | 25.94 | -67.12 | 4 | 18.4 | 17.6 | -85.0 | 3 | 13.0 |
| 2025-12-11T04:22:00 | -17.0651 | -34.9443 | 486.0 | 20.14 | -26.86 | 1 | 19.3 | 17.5 | -84.5 | 8 | 34.8 |
| 2025-12-11T04:22:00 | -17.0651 | -34.9443 | 494.0 | 3.58 | -2.98 | 1 | 19.9 | 18.7 | -83.3 | 13 | 56.5 |
| 2025-12-11T04:22:00 | -17.0651 | -34.9443 | 502.0 | 7.56 | -14.42 | 1 | 23.2 | 21.3 | -81.5 | 18 | 78.3 |
| 2025-12-11T04:22:00 | -17.0651 | -34.9443 | 510.0 | 3.56 | -2.03 | 1 | 24.7 | 23.4 | -80.0 | 16 | 69.6 |
| 2025-12-11T04:22:00 | -17.0651 | -34.9443 | 518.0 | 0.64 | -22.79 | 1 | 23.4 | 22.4 | -79.9 | 18 | 78.3 |
| 2025-12-11T04:22:00 | -17.0651 | -34.9443 | 526.0 | 3.79 | -0.67 | 1 | 22.1 | 22.0 | -79.6 | 14 | 60.9 |
| 2025-12-11T04:22:00 | -17.0651 | -34.9443 | 534.0 | 4.30 | -8.19 | 1 | 21.6 | 20.9 | -79.6 | 17 | 73.9 |
| 2025-12-11T04:22:00 | -17.0651 | -34.9443 | 542.0 | 16.41 | -31.70 | 1 | 21.4 | 21.2 | -78.9 | 15 | 65.2 |
| 2025-12-11T04:22:00 | -17.0651 | -34.9443 | 550.0 | 4.30 | -2.51 | 1 | 20.4 | 19.8 | -79.0 | 12 | 52.2 |
| 2025-12-11T04:22:00 | -17.0651 | -34.9443 | 558.0 | 11.32 | -24.62 | 1 | 19.9 | 21.0 | -77.9 | 11 | 47.8 |
| 2025-12-11T04:22:00 | -17.0651 | -34.9443 | 566.0 | -6.88 | -38.86 | 1 | 18.6 | 18.6 | -78.6 | 11 | 47.8 |
| 2025-12-11T04:22:00 | -17.0651 | -34.9443 | 574.0 | -9.51 | -12.45 | 1 | 18.3 | 16.1 | -79.4 | 8 | 34.8 |
| 2025-12-11T04:22:00 | -17.0651 | -34.9443 | 582.0 | 8.33 | -33.74 | 1 | 18.2 | 18.2 | -77.8 | 11 | 47.8 |
| 2025-12-11T04:22:00 | -17.0651 | -34.9443 | 590.0 | 20.42 | -72.16 | 1 | 17.3 | 17.9 | -77.4 | 6 | 26.1 |
| 2025-12-11T04:22:00 | -17.0651 | -34.9443 | 606.0 | 9 | 15.8 | 13.8 | -78.7 | 0 | 0.0 | ||
| 2025-12-11T04:22:00 | -17.0651 | -34.9443 | 622.0 | 31.62 | -24.64 | 4 | 16.9 | 16.8 | -76.1 | 2 | 8.7 |
| 2025-12-11T04:22:00 | -17.0651 | -34.9443 | 718.0 | 81.72 | -22.31 | 4 | 17.1 | 18.8 | -69.3 | 1 | 4.4 |
| 2025-12-11T04:22:00 | -17.0651 | -34.9443 | 726.0 | 13.16 | 4.12 | 4 | 16.9 | 19.1 | -68.7 | 2 | 8.7 |
| 2025-12-11T04:22:00 | -17.0651 | -34.9443 | 766.0 | -22.36 | -57.42 | 4 | 15.1 | 16.2 | -67.9 | 1 | 4.4 |
| 2025-12-11T04:22:00 | -17.0651 | -34.9443 | 774.0 | 34.63 | -35.85 | 4 | 15.0 | 15.8 | -67.8 | 1 | 4.4 |
| 2025-12-11T04:23:00 | -17.0620 | -34.9426 | 22.0 | -4.29 | -18.22 | 1 | 144.6 | 144.6 | -86.2 | 21 | 95.5 |
| 2025-12-11T04:23:00 | -17.0620 | -34.9426 | 30.0 | -4.90 | -31.27 | 1 | 141.9 | 141.9 | -83.0 | 22 | 100.0 |
| 2025-12-11T04:23:00 | -17.0620 | -34.9426 | 38.0 | -2.09 | -34.57 | 1 | 130.3 | 130.3 | -84.8 | 20 | 90.9 |
| 2025-12-11T04:23:00 | -17.0620 | -34.9426 | 46.0 | -2.67 | -15.05 | 1 | 117.4 | 117.4 | -87.8 | 20 | 90.9 |
| 2025-12-11T04:23:00 | -17.0620 | -34.9426 | 54.0 | 8.01 | -17.91 | 1 | 111.3 | 111.3 | -88.3 | 21 | 95.5 |
| 2025-12-11T04:23:00 | -17.0620 | -34.9426 | 62.0 | -1.31 | -33.00 | 1 | 111.8 | 110.3 | -86.9 | 16 | 72.7 |
| 2025-12-11T04:23:00 | -17.0620 | -34.9426 | 70.0 | -9.76 | -29.43 | 1 | 105.5 | 105.0 | -87.5 | 20 | 90.9 |
| 2025-12-11T04:23:00 | -17.0620 | -34.9426 | 78.0 | 2.12 | -23.72 | 1 | 100.8 | 100.8 | -87.8 | 22 | 100.0 |
| 2025-12-11T04:23:00 | -17.0620 | -34.9426 | 86.0 | -0.86 | -12.70 | 1 | 99.4 | 99.4 | -87.0 | 22 | 100.0 |
| 2025-12-11T04:23:00 | -17.0620 | -34.9426 | 94.0 | -8.48 | -27.77 | 1 | 98.3 | 97.9 | -86.4 | 21 | 95.5 |
| 2025-12-11T04:23:00 | -17.0620 | -34.9426 | 102.0 | 3.03 | -28.32 | 1 | 94.2 | 94.2 | -86.7 | 21 | 95.5 |
| 2025-12-11T04:23:00 | -17.0620 | -34.9426 | 110.0 | -2.42 | -34.75 | 1 | 88.3 | 88.3 | -88.0 | 21 | 95.5 |
| 2025-12-11T04:23:00 | -17.0620 | -34.9426 | 118.0 | 13.87 | -16.24 | 1 | 85.8 | 86.5 | -87.7 | 18 | 81.8 |
| 2025-12-11T04:23:00 | -17.0620 | -34.9426 | 126.0 | 7.93 | -15.43 | 1 | 81.7 | 81.7 | -88.7 | 22 | 100.0 |
| 2025-12-11T04:23:00 | -17.0620 | -34.9426 | 134.0 | 7.48 | -22.10 | 1 | 82.2 | 82.2 | -87.5 | 22 | 100.0 |
| 2025-12-11T04:23:00 | -17.0620 | -34.9426 | 142.0 | 14.31 | -21.37 | 1 | 79.3 | 79.3 | -87.7 | 20 | 90.9 |
| 2025-12-11T04:23:00 | -17.0620 | -34.9426 | 150.0 | 9.53 | -29.08 | 1 | 77.9 | 77.9 | -87.3 | 22 | 100.0 |
| 2025-12-11T04:23:00 | -17.0620 | -34.9426 | 158.0 | -8.34 | -31.68 | 1 | 75.3 | 75.3 | -87.5 | 21 | 95.5 |
| 2025-12-11T04:23:00 | -17.0620 | -34.9426 | 166.0 | 0.21 | -26.88 | 1 | 72.6 | 72.6 | -87.7 | 21 | 95.5 |
| 2025-12-11T04:23:00 | -17.0620 | -34.9426 | 174.0 | -3.86 | -35.13 | 1 | 69.5 | 69.5 | -88.1 | 21 | 95.5 |
| 2025-12-11T04:23:00 | -17.0620 | -34.9426 | 182.0 | -20.56 | -29.95 | 1 | 64.4 | 64.1 | -89.6 | 19 | 86.4 |
| 2025-12-11T04:23:00 | -17.0620 | -34.9426 | 190.0 | -3.84 | -13.24 | 1 | 58.0 | 58.0 | -91.3 | 21 | 95.5 |
| 2025-12-11T04:23:00 | -17.0620 | -34.9426 | 198.0 | -9.69 | -12.34 | 1 | 61.5 | 61.0 | -89.2 | 21 | 95.5 |
| 2025-12-11T04:23:00 | -17.0620 | -34.9426 | 206.0 | -1.68 | -2.86 | 1 | 61.4 | 60.0 | -88.8 | 19 | 86.4 |
| 2025-12-11T04:23:00 | -17.0620 | -34.9426 | 214.0 | 3.77 | -9.32 | 1 | 62.8 | 60.8 | -87.7 | 16 | 72.7 |
| 2025-12-11T04:23:00 | -17.0620 | -34.9426 | 222.0 | 4.15 | -12.63 | 1 | 67.3 | 66.9 | -84.3 | 20 | 90.9 |
| 2025-12-11T04:23:00 | -17.0620 | -34.9426 | 230.0 | -2.49 | -12.13 | 1 | 64.8 | 64.5 | -84.5 | 18 | 81.8 |
| 2025-12-11T04:23:00 | -17.0620 | -34.9426 | 238.0 | -7.53 | -12.36 | 1 | 54.4 | 54.4 | -88.0 | 21 | 95.5 |
| 2025-12-11T04:23:00 | -17.0620 | -34.9426 | 246.0 | -16.50 | -19.39 | 1 | 51.1 | 50.9 | -88.8 | 18 | 81.8 |
| 2025-12-11T04:23:00 | -17.0620 | -34.9426 | 254.0 | 2.34 | -11.49 | 1 | 49.8 | 49.8 | -88.5 | 21 | 95.5 |
| 2025-12-11T04:23:00 | -17.0620 | -34.9426 | 262.0 | 5.43 | -7.10 | 1 | 58.1 | 58.1 | -84.2 | 21 | 95.5 |
| 2025-12-11T04:23:00 | -17.0620 | -34.9426 | 270.0 | -1.71 | -12.98 | 1 | 64.6 | 63.6 | -81.1 | 18 | 81.8 |
| 2025-12-11T04:23:00 | -17.0620 | -34.9426 | 278.0 | 9.32 | -15.58 | 1 | 53.9 | 52.9 | -85.0 | 17 | 77.3 |
| 2025-12-11T04:23:00 | -17.0620 | -34.9426 | 286.0 | -25.84 | -19.23 | 1 | 40.3 | 39.7 | -89.9 | 21 | 95.5 |
| 2025-12-11T04:23:00 | -17.0620 | -34.9426 | 294.0 | -17.54 | -18.65 | 1 | 30.3 | 29.8 | -93.6 | 19 | 86.4 |
| 2025-12-11T04:23:00 | -17.0620 | -34.9426 | 302.0 | -12.51 | -20.68 | 1 | 29.0 | 28.5 | -93.5 | 17 | 77.3 |
| 2025-12-11T04:23:00 | -17.0620 | -34.9426 | 310.0 | -10.83 | -4.86 | 1 | 26.8 | 25.8 | -94.0 | 19 | 86.4 |
| 2025-12-11T04:23:00 | -17.0620 | -34.9426 | 318.0 | -17.55 | -21.10 | 1 | 22.8 | 21.6 | -95.3 | 19 | 86.4 |
| 2025-12-11T04:23:00 | -17.0620 | -34.9426 | 326.0 | 10.61 | -16.42 | 1 | 21.2 | 20.3 | -95.3 | 15 | 68.2 |
| 2025-12-11T04:23:00 | -17.0620 | -34.9426 | 334.0 | -22.13 | -2.49 | 1 | 20.2 | 19.3 | -95.1 | 15 | 68.2 |
| 2025-12-11T04:23:00 | -17.0620 | -34.9426 | 342.0 | -10.55 | -15.37 | 1 | 19.0 | 18.2 | -95.0 | 16 | 72.7 |
| 2025-12-11T04:23:00 | -17.0620 | -34.9426 | 350.0 | -8.95 | -21.78 | 1 | 19.4 | 18.5 | -94.2 | 14 | 63.6 |
| 2025-12-11T04:23:00 | -17.0620 | -34.9426 | 358.0 | -13.10 | -16.02 | 1 | 20.5 | 20.8 | -92.4 | 10 | 45.5 |
| 2025-12-11T04:23:00 | -17.0620 | -34.9426 | 366.0 | -30.54 | 0.11 | 1 | 20.7 | 18.1 | -93.1 | 6 | 27.3 |
| 2025-12-11T04:23:00 | -17.0620 | -34.9426 | 374.0 | 5.51 | -25.68 | 1 | 19.1 | 15.0 | -94.2 | 8 | 36.4 |
| 2025-12-11T04:23:00 | -17.0620 | -34.9426 | 382.0 | -2.00 | -24.19 | 1 | 19.0 | 17.2 | -92.3 | 6 | 27.3 |
| 2025-12-11T04:23:00 | -17.0620 | -34.9426 | 390.0 | -4.85 | -3.64 | 4 | 18.0 | 14.8 | -93.0 | 3 | 13.6 |
| 2025-12-11T04:23:00 | -17.0620 | -34.9426 | 398.0 | -8.17 | 24.53 | 4 | 17.5 | 15.0 | -92.3 | 1 | 4.5 |
| 2025-12-11T04:23:00 | -17.0620 | -34.9426 | 422.0 | 4.50 | 4.46 | 4 | 17.4 | 17.8 | -89.0 | 3 | 13.6 |
| 2025-12-11T04:23:00 | -17.0620 | -34.9426 | 430.0 | 38.04 | 15.88 | 4 | 17.0 | 19.5 | -87.5 | 1 | 4.5 |
| 2025-12-11T04:23:00 | -17.0620 | -34.9426 | 438.0 | 5.77 | -13.78 | 4 | 16.7 | 18.8 | -87.3 | 2 | 9.1 |
| 2025-12-11T04:23:00 | -17.0620 | -34.9426 | 446.0 | 23.73 | -12.73 | 4 | 16.4 | 20.2 | -86.0 | 2 | 9.1 |
| 2025-12-11T04:23:00 | -17.0620 | -34.9426 | 454.0 | 4.76 | 4.61 | 4 | 16.7 | 16.0 | -87.6 | 2 | 9.1 |
| 2025-12-11T04:23:00 | -17.0620 | -34.9426 | 462.0 | 7.15 | -15.03 | 4 | 17.2 | 16.4 | -86.8 | 5 | 22.7 |
| 2025-12-11T04:23:00 | -17.0620 | -34.9426 | 470.0 | 3.27 | -41.61 | 1 | 16.8 | 16.3 | -86.3 | 6 | 27.3 |
| 2025-12-11T04:23:00 | -17.0620 | -34.9426 | 478.0 | 29.23 | -42.50 | 1 | 16.7 | 16.5 | -85.6 | 6 | 27.3 |
| 2025-12-11T04:23:00 | -17.0620 | -34.9426 | 486.0 | 28.04 | 3.53 | 4 | 17.1 | 15.6 | -85.5 | 4 | 18.2 |
| 2025-12-11T04:23:00 | -17.0620 | -34.9426 | 494.0 | -18.30 | -14.86 | 1 | 18.6 | 18.2 | -83.6 | 8 | 36.4 |
| 2025-12-11T04:23:00 | -17.0620 | -34.9426 | 502.0 | 12.87 | -7.86 | 1 | 21.5 | 20.6 | -81.8 | 11 | 50.0 |
| 2025-12-11T04:23:00 | -17.0620 | -34.9426 | 510.0 | 0.35 | 6.48 | 1 | 22.1 | 22.2 | -80.6 | 18 | 81.8 |
| 2025-12-11T04:23:00 | -17.0620 | -34.9426 | 518.0 | -4.79 | -5.28 | 1 | 21.9 | 22.0 | -80.1 | 16 | 72.7 |
| 2025-12-11T04:23:00 | -17.0620 | -34.9426 | 526.0 | -5.78 | -12.02 | 1 | 22.3 | 22.4 | -79.4 | 15 | 68.2 |
| 2025-12-11T04:23:00 | -17.0620 | -34.9426 | 534.0 | 10.31 | -32.48 | 1 | 21.0 | 19.1 | -80.4 | 16 | 72.7 |
| 2025-12-11T04:23:00 | -17.0620 | -34.9426 | 542.0 | -8.00 | -0.13 | 1 | 21.4 | 19.2 | -79.9 | 11 | 50.0 |
| 2025-12-11T04:23:00 | -17.0620 | -34.9426 | 550.0 | 15.01 | -12.87 | 1 | 19.6 | 19.2 | -79.4 | 10 | 45.5 |
| 2025-12-11T04:23:00 | -17.0620 | -34.9426 | 558.0 | -9.18 | -20.47 | 1 | 19.0 | 19.5 | -78.7 | 15 | 68.2 |
| 2025-12-11T04:23:00 | -17.0620 | -34.9426 | 566.0 | 6.69 | -20.32 | 1 | 17.6 | 17.4 | -79.2 | 8 | 36.4 |
| 2025-12-11T04:23:00 | -17.0620 | -34.9426 | 574.0 | -6.03 | -26.91 | 1 | 18.3 | 17.4 | -78.7 | 13 | 59.1 |
| 2025-12-11T04:23:00 | -17.0620 | -34.9426 | 582.0 | 0.41 | -27.45 | 1 | 17.9 | 16.3 | -78.8 | 10 | 45.5 |
| 2025-12-11T04:23:00 | -17.0620 | -34.9426 | 590.0 | 16.28 | -34.73 | 1 | 18.0 | 16.2 | -78.3 | 7 | 31.8 |
| 2025-12-11T04:23:00 | -17.0620 | -34.9426 | 598.0 | 48.55 | -47.52 | 4 | 17.2 | 13.8 | -79.2 | 2 | 9.1 |
| 2025-12-11T04:23:00 | -17.0620 | -34.9426 | 606.0 | -54.47 | -32.31 | 4 | 16.3 | 17.5 | -76.7 | 1 | 4.5 |
| 2025-12-11T04:23:00 | -17.0620 | -34.9426 | 614.0 | 30.90 | -21.00 | 4 | 15.4 | 12.5 | -78.9 | 1 | 4.5 |
| 2025-12-11T04:23:00 | -17.0620 | -34.9426 | 638.0 | 9 | 13.8 | 11.5 | -78.1 | 0 | 0.0 | ||
| 2025-12-11T04:23:00 | -17.0620 | -34.9426 | 678.0 | 17.89 | -86.16 | 4 | 13.9 | 12.6 | -75.0 | 1 | 4.5 |
| 2025-12-11T04:23:00 | -17.0620 | -34.9426 | 694.0 | 48.58 | -72.55 | 4 | 13.7 | 13.8 | -73.4 | 1 | 4.5 |
| 2025-12-11T04:23:00 | -17.0620 | -34.9426 | 702.0 | 42.78 | -32.89 | 4 | 14.2 | 18.0 | -70.6 | 1 | 4.5 |
| 2025-12-11T04:23:00 | -17.0620 | -34.9426 | 782.0 | 37.41 | 16.52 | 4 | 14.8 | 23.5 | -63.4 | 1 | 4.5 |
| 2025-12-11T04:23:00 | -17.0620 | -34.9426 | 790.0 | 80.25 | 17.83 | 4 | 14.1 | 23.5 | -63.0 | 1 | 4.5 |
| 2025-12-11T04:23:00 | -17.0620 | -34.9426 | 798.0 | 9 | 14.9 | 20.5 | -64.0 | 0 | 0.0 | ||
| 2025-12-11T04:24:00 | -17.0588 | -34.9410 | 22.0 | 4.86 | -31.30 | 1 | 146.4 | 146.5 | -85.4 | 20 | 87.0 |
| 2025-12-11T04:24:00 | -17.0588 | -34.9410 | 30.0 | -2.74 | -27.81 | 1 | 143.8 | 143.8 | -82.2 | 22 | 95.6 |
| 2025-12-11T04:24:00 | -17.0588 | -34.9410 | 38.0 | 1.12 | -12.49 | 1 | 132.1 | 132.1 | -84.0 | 23 | 100.0 |
| 2025-12-11T04:24:00 | -17.0588 | -34.9410 | 46.0 | 4.63 | -20.20 | 1 | 117.8 | 117.7 | -87.6 | 21 | 91.3 |
| 2025-12-11T04:24:00 | -17.0588 | -34.9410 | 54.0 | 16.10 | -18.49 | 1 | 111.3 | 111.3 | -88.3 | 23 | 100.0 |
| 2025-12-11T04:24:00 | -17.0588 | -34.9410 | 62.0 | 13.93 | -20.92 | 1 | 107.9 | 107.9 | -87.9 | 19 | 82.6 |
| 2025-12-11T04:24:00 | -17.0588 | -34.9410 | 70.0 | 8.44 | -25.73 | 1 | 107.0 | 107.0 | -86.6 | 21 | 91.3 |
| 2025-12-11T04:24:00 | -17.0588 | -34.9410 | 78.0 | 13.43 | -11.10 | 1 | 100.4 | 100.4 | -88.0 | 23 | 100.0 |
| 2025-12-11T04:24:00 | -17.0588 | -34.9410 | 86.0 | -3.65 | -15.42 | 1 | 99.1 | 98.5 | -87.4 | 22 | 95.6 |
| 2025-12-11T04:24:00 | -17.0588 | -34.9410 | 94.0 | 11.82 | -33.45 | 1 | 96.2 | 96.2 | -87.1 | 22 | 95.6 |
| 2025-12-11T04:24:00 | -17.0588 | -34.9410 | 102.0 | 13.45 | -35.42 | 1 | 91.9 | 91.9 | -87.7 | 23 | 100.0 |
| 2025-12-11T04:24:00 | -17.0588 | -34.9410 | 110.0 | 4.69 | -36.63 | 1 | 87.7 | 87.7 | -88.3 | 22 | 95.6 |
| 2025-12-11T04:24:00 | -17.0588 | -34.9410 | 118.0 | 2.36 | -14.08 | 1 | 86.8 | 86.8 | -87.6 | 21 | 91.3 |
| 2025-12-11T04:24:00 | -17.0588 | -34.9410 | 126.0 | 9.23 | -29.36 | 1 | 85.3 | 84.8 | -87.3 | 22 | 95.6 |
| 2025-12-11T04:24:00 | -17.0588 | -34.9410 | 134.0 | 0.07 | -29.82 | 1 | 80.9 | 80.8 | -88.0 | 20 | 87.0 |
| 2025-12-11T04:24:00 | -17.0588 | -34.9410 | 142.0 | 11.10 | -24.50 | 1 | 80.0 | 80.0 | -87.4 | 23 | 100.0 |
| 2025-12-11T04:24:00 | -17.0588 | -34.9410 | 150.0 | -4.03 | -18.39 | 1 | 78.2 | 78.2 | -87.2 | 20 | 87.0 |
| 2025-12-11T04:24:00 | -17.0588 | -34.9410 | 158.0 | 10.14 | -25.16 | 1 | 76.0 | 76.0 | -87.2 | 23 | 100.0 |
| 2025-12-11T04:24:00 | -17.0588 | -34.9410 | 166.0 | -5.36 | -13.23 | 1 | 74.0 | 73.8 | -87.2 | 21 | 91.3 |
| 2025-12-11T04:24:00 | -17.0588 | -34.9410 | 174.0 | -26.75 | -33.48 | 1 | 69.9 | 69.8 | -88.0 | 21 | 91.3 |
| 2025-12-11T04:24:00 | -17.0588 | -34.9410 | 182.0 | -4.05 | -23.48 | 1 | 66.2 | 65.7 | -88.9 | 22 | 95.6 |
| 2025-12-11T04:24:00 | -17.0588 | -34.9410 | 190.0 | -2.02 | -34.42 | 1 | 59.9 | 59.9 | -90.5 | 22 | 95.6 |
| 2025-12-11T04:24:00 | -17.0588 | -34.9410 | 198.0 | -0.66 | -22.56 | 1 | 58.5 | 58.5 | -90.3 | 20 | 87.0 |
| 2025-12-11T04:24:00 | -17.0588 | -34.9410 | 206.0 | 10.59 | -15.78 | 1 | 59.9 | 58.6 | -89.4 | 18 | 78.3 |
| 2025-12-11T04:24:00 | -17.0588 | -34.9410 | 214.0 | 10.95 | -0.37 | 1 | 61.9 | 60.3 | -87.9 | 19 | 82.6 |
| 2025-12-11T04:24:00 | -17.0588 | -34.9410 | 222.0 | 8.45 | -8.67 | 1 | 68.1 | 67.4 | -84.1 | 21 | 91.3 |
| 2025-12-11T04:24:00 | -17.0588 | -34.9410 | 230.0 | 11.76 | -24.43 | 1 | 65.8 | 65.8 | -84.0 | 22 | 95.6 |
| 2025-12-11T04:24:00 | -17.0588 | -34.9410 | 238.0 | 10.83 | -8.06 | 1 | 54.9 | 54.9 | -87.8 | 22 | 95.6 |
| 2025-12-11T04:24:00 | -17.0588 | -34.9410 | 246.0 | 2.08 | -15.94 | 1 | 49.5 | 49.0 | -89.6 | 20 | 87.0 |
| 2025-12-11T04:24:00 | -17.0588 | -34.9410 | 254.0 | 14.84 | 8.84 | 1 | 53.1 | 52.5 | -87.3 | 21 | 91.3 |
| 2025-12-11T04:24:00 | -17.0588 | -34.9410 | 262.0 | -0.45 | 2.72 | 1 | 60.9 | 59.1 | -83.8 | 19 | 82.6 |
| 2025-12-11T04:24:00 | -17.0588 | -34.9410 | 270.0 | 2.14 | -12.55 | 1 | 58.7 | 58.7 | -83.2 | 21 | 91.3 |
| 2025-12-11T04:24:00 | -17.0588 | -34.9410 | 278.0 | 14.79 | -9.34 | 1 | 53.3 | 51.4 | -85.6 | 17 | 73.9 |
| 2025-12-11T04:24:00 | -17.0588 | -34.9410 | 286.0 | -4.52 | -19.89 | 1 | 45.1 | 42.3 | -88.8 | 13 | 56.5 |
| 2025-12-11T04:24:00 | -17.0588 | -34.9410 | 294.0 | -15.72 | -25.59 | 1 | 31.9 | 31.2 | -93.0 | 19 | 82.6 |
| 2025-12-11T04:24:00 | -17.0588 | -34.9410 | 302.0 | -3.72 | -9.30 | 1 | 28.5 | 27.6 | -93.9 | 18 | 78.3 |
| 2025-12-11T04:24:00 | -17.0588 | -34.9410 | 310.0 | -3.38 | -15.60 | 1 | 24.6 | 23.9 | -94.9 | 18 | 78.3 |
| 2025-12-11T04:24:00 | -17.0588 | -34.9410 | 318.0 | 4.76 | -32.98 | 1 | 22.1 | 22.1 | -95.1 | 15 | 65.2 |
| 2025-12-11T04:24:00 | -17.0588 | -34.9410 | 326.0 | -13.15 | -17.12 | 1 | 19.4 | 19.8 | -95.5 | 11 | 47.8 |
| 2025-12-11T04:24:00 | -17.0588 | -34.9410 | 334.0 | -21.70 | -8.28 | 1 | 21.2 | 20.6 | -94.5 | 16 | 69.6 |
| 2025-12-11T04:24:00 | -17.0588 | -34.9410 | 342.0 | -19.37 | -26.93 | 1 | 19.9 | 20.3 | -94.0 | 12 | 52.2 |
| 2025-12-11T04:24:00 | -17.0588 | -34.9410 | 350.0 | -5.72 | -29.15 | 1 | 19.8 | 20.3 | -93.3 | 9 | 39.1 |
| 2025-12-11T04:24:00 | -17.0588 | -34.9410 | 358.0 | -10.25 | -25.34 | 4 | 18.2 | 17.0 | -94.4 | 4 | 17.4 |
| 2025-12-11T04:24:00 | -17.0588 | -34.9410 | 366.0 | 13.68 | -16.18 | 1 | 17.4 | 17.9 | -93.2 | 7 | 30.4 |
| 2025-12-11T04:24:00 | -17.0588 | -34.9410 | 374.0 | 1.18 | -37.94 | 1 | 15.5 | 16.0 | -93.6 | 6 | 26.1 |
| 2025-12-11T04:24:00 | -17.0588 | -34.9410 | 382.0 | 11.79 | -39.66 | 4 | 15.7 | 16.7 | -92.6 | 5 | 21.7 |
| 2025-12-11T04:24:00 | -17.0588 | -34.9410 | 390.0 | 25.70 | -27.87 | 1 | 16.0 | 15.3 | -92.7 | 6 | 26.1 |
| 2025-12-11T04:24:00 | -17.0588 | -34.9410 | 398.0 | 12.27 | -26.84 | 4 | 16.8 | 15.0 | -92.3 | 2 | 8.7 |
| 2025-12-11T04:24:00 | -17.0588 | -34.9410 | 438.0 | 21.18 | -71.59 | 4 | 18.1 | 11.9 | -91.1 | 2 | 8.7 |
| 2025-12-11T04:24:00 | -17.0588 | -34.9410 | 454.0 | -2.89 | -20.20 | 4 | 17.1 | 14.4 | -88.4 | 3 | 13.0 |
| 2025-12-11T04:24:00 | -17.0588 | -34.9410 | 462.0 | 23.29 | -59.60 | 4 | 17.5 | 19.8 | -85.1 | 2 | 8.7 |
| 2025-12-11T04:24:00 | -17.0588 | -34.9410 | 470.0 | -1.57 | -33.97 | 4 | 16.6 | 16.9 | -86.0 | 4 | 17.4 |
| 2025-12-11T04:24:00 | -17.0588 | -34.9410 | 478.0 | 11.69 | -51.74 | 1 | 15.6 | 16.2 | -85.8 | 6 | 26.1 |
| 2025-12-11T04:24:00 | -17.0588 | -34.9410 | 486.0 | 36.65 | -12.71 | 4 | 15.8 | 15.2 | -85.7 | 5 | 21.7 |
| 2025-12-11T04:24:00 | -17.0588 | -34.9410 | 494.0 | 5.65 | -24.00 | 1 | 17.5 | 17.3 | -84.1 | 10 | 43.5 |
| 2025-12-11T04:24:00 | -17.0588 | -34.9410 | 502.0 | 1.65 | -5.30 | 1 | 20.1 | 19.9 | -82.2 | 12 | 52.2 |
| 2025-12-11T04:24:00 | -17.0588 | -34.9410 | 510.0 | -4.68 | -13.34 | 1 | 22.0 | 21.7 | -80.8 | 17 | 73.9 |
| 2025-12-11T04:24:00 | -17.0588 | -34.9410 | 518.0 | -3.61 | -4.93 | 1 | 22.4 | 21.3 | -80.4 | 15 | 65.2 |
| 2025-12-11T04:24:00 | -17.0588 | -34.9410 | 526.0 | 0.76 | -24.10 | 1 | 22.1 | 21.6 | -79.8 | 16 | 69.6 |
| 2025-12-11T04:24:00 | -17.0588 | -34.9410 | 534.0 | 28.85 | -20.76 | 1 | 20.3 | 19.2 | -80.4 | 13 | 56.5 |
| 2025-12-11T04:24:00 | -17.0588 | -34.9410 | 542.0 | 16.21 | -20.29 | 1 | 20.4 | 20.2 | -79.4 | 12 | 52.2 |
| 2025-12-11T04:24:00 | -17.0588 | -34.9410 | 550.0 | 7.09 | -28.49 | 1 | 20.5 | 19.5 | -79.2 | 14 | 60.9 |
| 2025-12-11T04:24:00 | -17.0588 | -34.9410 | 558.0 | -2.57 | -23.23 | 1 | 19.3 | 18.4 | -79.3 | 19 | 82.6 |
| 2025-12-11T04:24:00 | -17.0588 | -34.9410 | 566.0 | 3.57 | -24.23 | 1 | 19.4 | 17.2 | -79.3 | 12 | 52.2 |
| 2025-12-11T04:24:00 | -17.0588 | -34.9410 | 574.0 | 4.42 | -45.19 | 1 | 19.9 | 17.7 | -78.6 | 13 | 56.5 |
| 2025-12-11T04:24:00 | -17.0588 | -34.9410 | 582.0 | -3.78 | -57.57 | 1 | 19.9 | 17.0 | -78.4 | 8 | 34.8 |
| 2025-12-11T04:24:00 | -17.0588 | -34.9410 | 590.0 | 45.76 | -49.60 | 1 | 18.0 | 15.3 | -78.8 | 6 | 26.1 |
| 2025-12-11T04:25:00 | -17.0556 | -34.9392 | 22.0 | 9.11 | -39.46 | 1 | 147.4 | 147.4 | -85.0 | 21 | 91.3 |
| 2025-12-11T04:25:00 | -17.0556 | -34.9392 | 30.0 | 8.39 | -23.46 | 1 | 140.4 | 140.4 | -83.6 | 22 | 95.6 |
| 2025-12-11T04:25:00 | -17.0556 | -34.9392 | 38.0 | 11.90 | -37.36 | 1 | 133.9 | 133.7 | -83.4 | 22 | 95.6 |
| 2025-12-11T04:25:00 | -17.0556 | -34.9392 | 46.0 | 2.85 | -17.41 | 1 | 120.6 | 120.1 | -86.6 | 20 | 87.0 |
| 2025-12-11T04:25:00 | -17.0556 | -34.9392 | 54.0 | 10.17 | -26.61 | 1 | 113.1 | 112.3 | -87.9 | 21 | 91.3 |
| 2025-12-11T04:25:00 | -17.0556 | -34.9392 | 62.0 | 2.04 | -27.50 | 1 | 109.3 | 109.6 | -87.2 | 20 | 87.0 |
| 2025-12-11T04:25:00 | -17.0556 | -34.9392 | 70.0 | -6.28 | -37.84 | 1 | 110.2 | 110.3 | -85.2 | 22 | 95.6 |
| 2025-12-11T04:25:00 | -17.0556 | -34.9392 | 78.0 | -3.47 | -24.62 | 1 | 99.8 | 99.8 | -88.2 | 21 | 91.3 |
| 2025-12-11T04:25:00 | -17.0556 | -34.9392 | 86.0 | 16.39 | -18.43 | 1 | 99.9 | 99.3 | -87.0 | 22 | 95.6 |
| 2025-12-11T04:25:00 | -17.0556 | -34.9392 | 94.0 | -4.38 | -22.50 | 1 | 97.9 | 97.5 | -86.5 | 22 | 95.6 |
| 2025-12-11T04:25:00 | -17.0556 | -34.9392 | 102.0 | 11.57 | -34.05 | 1 | 91.2 | 91.2 | -88.0 | 23 | 100.0 |
| 2025-12-11T04:25:00 | -17.0556 | -34.9392 | 110.0 | 10.09 | -21.69 | 1 | 86.2 | 86.2 | -88.9 | 22 | 95.6 |
| 2025-12-11T04:25:00 | -17.0556 | -34.9392 | 118.0 | 17.54 | -35.15 | 1 | 83.4 | 83.4 | -89.0 | 20 | 87.0 |
| 2025-12-11T04:25:00 | -17.0556 | -34.9392 | 126.0 | 17.77 | -33.58 | 1 | 83.8 | 83.8 | -87.8 | 21 | 91.3 |
| 2025-12-11T04:25:00 | -17.0556 | -34.9392 | 134.0 | 3.50 | -34.61 | 1 | 81.4 | 81.0 | -87.9 | 22 | 95.6 |
| 2025-12-11T04:25:00 | -17.0556 | -34.9392 | 142.0 | 8.50 | -29.98 | 1 | 79.3 | 78.7 | -88.0 | 20 | 87.0 |
| 2025-12-11T04:25:00 | -17.0556 | -34.9392 | 150.0 | 10.37 | -30.29 | 1 | 77.1 | 76.2 | -88.0 | 20 | 87.0 |
| 2025-12-11T04:25:00 | -17.0556 | -34.9392 | 158.0 | 0.05 | -21.19 | 1 | 75.5 | 75.2 | -87.5 | 20 | 87.0 |
| 2025-12-11T04:25:00 | -17.0556 | -34.9392 | 166.0 | 5.94 | -20.11 | 1 | 71.5 | 71.5 | -88.2 | 23 | 100.0 |
| 2025-12-11T04:25:00 | -17.0556 | -34.9392 | 174.0 | -6.29 | -15.09 | 1 | 68.4 | 68.4 | -88.6 | 22 | 95.6 |
| 2025-12-11T04:25:00 | -17.0556 | -34.9392 | 182.0 | -7.85 | -18.79 | 1 | 64.8 | 64.4 | -89.5 | 21 | 91.3 |
| 2025-12-11T04:25:00 | -17.0556 | -34.9392 | 190.0 | -6.70 | -31.52 | 1 | 59.1 | 58.5 | -91.1 | 22 | 95.6 |
| 2025-12-11T04:25:00 | -17.0556 | -34.9392 | 198.0 | -13.98 | -25.46 | 1 | 59.6 | 59.4 | -89.9 | 21 | 91.3 |
| 2025-12-11T04:25:00 | -17.0556 | -34.9392 | 206.0 | -7.60 | -17.13 | 1 | 56.3 | 55.9 | -90.5 | 19 | 82.6 |
| 2025-12-11T04:25:00 | -17.0556 | -34.9392 | 214.0 | 21.37 | -4.32 | 1 | 58.6 | 58.4 | -88.7 | 21 | 91.3 |
| 2025-12-11T04:25:00 | -17.0556 | -34.9392 | 222.0 | 12.86 | -12.66 | 1 | 68.4 | 67.0 | -84.2 | 20 | 87.0 |
| 2025-12-11T04:25:00 | -17.0556 | -34.9392 | 230.0 | -2.91 | -19.81 | 1 | 62.5 | 61.8 | -85.7 | 20 | 87.0 |
| 2025-12-11T04:25:00 | -17.0556 | -34.9392 | 238.0 | -3.94 | -15.50 | 1 | 56.7 | 56.2 | -87.2 | 22 | 95.6 |
| 2025-12-11T04:25:00 | -17.0556 | -34.9392 | 246.0 | -6.79 | -4.13 | 1 | 52.0 | 51.6 | -88.5 | 21 | 91.3 |
| 2025-12-11T04:25:00 | -17.0556 | -34.9392 | 254.0 | -1.58 | 2.92 | 1 | 51.0 | 50.0 | -88.4 | 17 | 73.9 |
| 2025-12-11T04:25:00 | -17.0556 | -34.9392 | 262.0 | -9.55 | -12.34 | 1 | 57.6 | 56.5 | -84.9 | 20 | 87.0 |
| 2025-12-11T04:25:00 | -17.0556 | -34.9392 | 270.0 | 0.77 | -13.49 | 1 | 56.3 | 56.3 | -84.2 | 22 | 95.6 |
| 2025-12-11T04:25:00 | -17.0556 | -34.9392 | 278.0 | 5.49 | -12.60 | 1 | 48.6 | 48.0 | -87.0 | 18 | 78.3 |
| 2025-12-11T04:25:00 | -17.0556 | -34.9392 | 286.0 | -4.13 | -15.56 | 1 | 40.5 | 39.2 | -90.1 | 20 | 87.0 |
| 2025-12-11T04:25:00 | -17.0556 | -34.9392 | 294.0 | -4.44 | -7.29 | 1 | 31.5 | 30.5 | -93.3 | 20 | 87.0 |
| 2025-12-11T04:25:00 | -17.0556 | -34.9392 | 302.0 | -9.57 | -9.97 | 1 | 29.5 | 28.1 | -93.6 | 18 | 78.3 |
| 2025-12-11T04:25:00 | -17.0556 | -34.9392 | 310.0 | -6.68 | -22.71 | 1 | 26.7 | 24.7 | -94.5 | 19 | 82.6 |
| 2025-12-11T04:25:00 | -17.0556 | -34.9392 | 318.0 | -3.27 | -21.58 | 1 | 24.6 | 23.0 | -94.6 | 17 | 73.9 |
| 2025-12-11T04:25:00 | -17.0556 | -34.9392 | 326.0 | -1.00 | -14.61 | 1 | 22.6 | 21.2 | -94.8 | 19 | 82.6 |
| 2025-12-11T04:25:00 | -17.0556 | -34.9392 | 334.0 | 22.26 | -14.28 | 1 | 20.4 | 18.2 | -95.7 | 14 | 60.9 |
| 2025-12-11T04:25:00 | -17.0556 | -34.9392 | 342.0 | -8.57 | -8.14 | 1 | 19.4 | 16.7 | -95.8 | 8 | 34.8 |
| 2025-12-11T04:25:00 | -17.0556 | -34.9392 | 350.0 | 8.47 | -19.27 | 1 | 21.8 | 18.3 | -94.3 | 12 | 52.2 |
| 2025-12-11T04:25:00 | -17.0556 | -34.9392 | 358.0 | 2.76 | -11.61 | 1 | 18.7 | 16.9 | -94.4 | 6 | 26.1 |
| 2025-12-11T04:25:00 | -17.0556 | -34.9392 | 366.0 | -44.16 | -23.80 | 4 | 18.3 | 20.6 | -91.9 | 2 | 8.7 |
| 2025-12-11T04:25:00 | -17.0556 | -34.9392 | 374.0 | 4.16 | -36.77 | 4 | 16.9 | 17.6 | -92.8 | 5 | 21.7 |
| 2025-12-11T04:25:00 | -17.0556 | -34.9392 | 382.0 | -14.87 | -23.46 | 4 | 17.5 | 16.9 | -92.5 | 3 | 13.0 |
| 2025-12-11T04:25:00 | -17.0556 | -34.9392 | 390.0 | 19.17 | -31.18 | 4 | 17.5 | 13.7 | -93.6 | 3 | 13.0 |
| 2025-12-11T04:25:00 | -17.0556 | -34.9392 | 398.0 | 12.45 | -82.60 | 4 | 15.7 | 15.2 | -92.2 | 2 | 8.7 |
| 2025-12-11T04:25:00 | -17.0556 | -34.9392 | 406.0 | 9 | 15.6 | 13.5 | -92.5 | 0 | 0.0 | ||
| 2025-12-11T04:25:00 | -17.0556 | -34.9392 | 430.0 | 9 | 15.7 | 14.0 | -90.4 | 0 | 0.0 | ||
| 2025-12-11T04:25:00 | -17.0556 | -34.9392 | 446.0 | 35.25 | -29.32 | 4 | 15.9 | 19.5 | -86.4 | 1 | 4.4 |
| 2025-12-11T04:25:00 | -17.0556 | -34.9392 | 454.0 | 2.72 | -56.81 | 4 | 16.1 | 16.0 | -87.6 | 4 | 17.4 |
| 2025-12-11T04:25:00 | -17.0556 | -34.9392 | 462.0 | -6.46 | -18.29 | 1 | 16.6 | 16.0 | -87.0 | 7 | 30.4 |
| 2025-12-11T04:25:00 | -17.0556 | -34.9392 | 470.0 | 20.73 | -58.67 | 1 | 17.4 | 15.1 | -86.9 | 6 | 26.1 |
| 2025-12-11T04:25:00 | -17.0556 | -34.9392 | 478.0 | 13.20 | -19.67 | 4 | 17.6 | 17.9 | -84.9 | 5 | 21.7 |
| 2025-12-11T04:25:00 | -17.0556 | -34.9392 | 486.0 | 0.87 | -3.52 | 1 | 19.0 | 17.3 | -84.6 | 8 | 34.8 |
| 2025-12-11T04:25:00 | -17.0556 | -34.9392 | 494.0 | 14.20 | -33.12 | 1 | 19.8 | 18.2 | -83.6 | 11 | 47.8 |
| 2025-12-11T04:25:00 | -17.0556 | -34.9392 | 502.0 | 23.32 | -19.21 | 1 | 21.8 | 21.2 | -81.6 | 18 | 78.3 |
| 2025-12-11T04:25:00 | -17.0556 | -34.9392 | 510.0 | 4.30 | 3.77 | 1 | 21.4 | 21.5 | -80.9 | 14 | 60.9 |
| 2025-12-11T04:25:00 | -17.0556 | -34.9392 | 518.0 | -0.07 | -8.56 | 1 | 21.1 | 21.0 | -80.6 | 18 | 78.3 |
| 2025-12-11T04:25:00 | -17.0556 | -34.9392 | 526.0 | -20.28 | -24.80 | 1 | 21.1 | 21.0 | -80.1 | 14 | 60.9 |
| 2025-12-11T04:25:00 | -17.0556 | -34.9392 | 534.0 | -5.44 | -4.05 | 1 | 21.4 | 21.3 | -79.4 | 16 | 69.6 |
| 2025-12-11T04:25:00 | -17.0556 | -34.9392 | 542.0 | -1.76 | -16.08 | 1 | 21.7 | 21.8 | -78.6 | 14 | 60.9 |
| 2025-12-11T04:25:00 | -17.0556 | -34.9392 | 550.0 | 2.66 | -27.39 | 1 | 21.7 | 20.9 | -78.5 | 14 | 60.9 |
| 2025-12-11T04:25:00 | -17.0556 | -34.9392 | 558.0 | -15.67 | -28.95 | 1 | 20.1 | 19.8 | -78.5 | 12 | 52.2 |
| 2025-12-11T04:25:00 | -17.0556 | -34.9392 | 566.0 | -9.39 | -2.12 | 1 | 18.6 | 17.4 | -79.3 | 11 | 47.8 |
| 2025-12-11T04:25:00 | -17.0556 | -34.9392 | 574.0 | 12.88 | -33.86 | 1 | 18.1 | 16.4 | -79.2 | 11 | 47.8 |
| 2025-12-11T04:25:00 | -17.0556 | -34.9392 | 582.0 | -9.97 | -51.01 | 1 | 17.5 | 17.6 | -78.1 | 6 | 26.1 |
| 2025-12-11T04:25:00 | -17.0556 | -34.9392 | 590.0 | 2.80 | -57.09 | 4 | 16.5 | 16.4 | -78.2 | 5 | 21.7 |
| 2025-12-11T04:25:00 | -17.0556 | -34.9392 | 638.0 | 6.88 | -65.83 | 4 | 15.6 | 20.8 | -73.1 | 1 | 4.4 |
| 2025-12-11T04:25:00 | -17.0556 | -34.9392 | 646.0 | 59.34 | -8.12 | 4 | 15.2 | 13.5 | -76.4 | 1 | 4.4 |
| 2025-12-11T04:25:00 | -17.0556 | -34.9392 | 662.0 | -52.44 | -34.91 | 4 | 16.0 | 12.5 | -76.0 | 1 | 4.4 |
| 2025-12-11T04:25:00 | -17.0556 | -34.9392 | 678.0 | 44.38 | -56.54 | 4 | 17.3 | 13.2 | -74.6 | 1 | 4.4 |
| 2025-12-11T04:25:00 | -17.0556 | -34.9392 | 718.0 | 48.80 | 17.96 | 4 | 16.8 | 18.5 | -69.5 | 1 | 4.4 |
| 2025-12-11T04:25:00 | -17.0556 | -34.9392 | 734.0 | 9 | 16.8 | 18.8 | -68.4 | 0 | 0.0 | ||
| 2025-12-11T04:25:00 | -17.0556 | -34.9392 | 782.0 | -79.83 | -65.48 | 4 | 16.2 | 15.5 | -67.4 | 1 | 4.4 |
| 2025-12-11T04:25:00 | -17.0556 | -34.9392 | 790.0 | 59.65 | 8.33 | 4 | 16.1 | 16.8 | -66.3 | 1 | 4.4 |
| 2025-12-11T04:26:00 | -17.0524 | -34.9375 | 22.0 | 0.12 | -18.05 | 1 | 146.9 | 146.9 | -85.2 | 21 | 95.5 |
| 2025-12-11T04:26:00 | -17.0524 | -34.9375 | 30.0 | 4.68 | -21.99 | 1 | 144.4 | 144.4 | -81.9 | 22 | 100.0 |
| 2025-12-11T04:26:00 | -17.0524 | -34.9375 | 38.0 | -10.37 | -31.42 | 1 | 137.0 | 136.9 | -82.0 | 20 | 90.9 |
| 2025-12-11T04:26:00 | -17.0524 | -34.9375 | 46.0 | -5.18 | -23.36 | 1 | 120.2 | 120.0 | -86.7 | 20 | 90.9 |
| 2025-12-11T04:26:00 | -17.0524 | -34.9375 | 54.0 | 21.14 | -15.00 | 1 | 111.2 | 111.2 | -88.3 | 20 | 90.9 |
| 2025-12-11T04:26:00 | -17.0524 | -34.9375 | 62.0 | 9.34 | -26.18 | 1 | 111.9 | 111.9 | -86.2 | 21 | 95.5 |
| 2025-12-11T04:26:00 | -17.0524 | -34.9375 | 70.0 | 6.13 | -16.75 | 1 | 110.6 | 110.4 | -85.2 | 21 | 95.5 |
| 2025-12-11T04:26:00 | -17.0524 | -34.9375 | 78.0 | 6.76 | -41.39 | 1 | 99.0 | 99.0 | -88.6 | 19 | 86.4 |
| 2025-12-11T04:26:00 | -17.0524 | -34.9375 | 86.0 | 13.17 | -28.05 | 1 | 100.1 | 99.5 | -87.0 | 19 | 86.4 |
| 2025-12-11T04:26:00 | -17.0524 | -34.9375 | 94.0 | 4.90 | -34.94 | 1 | 97.2 | 97.2 | -86.6 | 22 | 100.0 |
| 2025-12-11T04:26:00 | -17.0524 | -34.9375 | 102.0 | 7.34 | -22.53 | 1 | 92.2 | 92.2 | -87.6 | 20 | 90.9 |
| 2025-12-11T04:26:00 | -17.0524 | -34.9375 | 110.0 | 2.96 | -33.33 | 1 | 89.2 | 89.2 | -87.6 | 21 | 95.5 |
| 2025-12-11T04:26:00 | -17.0524 | -34.9375 | 118.0 | 9.61 | -22.01 | 1 | 88.0 | 87.7 | -87.2 | 20 | 90.9 |
| 2025-12-11T04:26:00 | -17.0524 | -34.9375 | 126.0 | 0.89 | -32.93 | 1 | 84.1 | 83.4 | -88.0 | 20 | 90.9 |
| 2025-12-11T04:26:00 | -17.0524 | -34.9375 | 134.0 | -0.22 | -25.90 | 1 | 80.2 | 79.2 | -88.7 | 19 | 86.4 |
| 2025-12-11T04:26:00 | -17.0524 | -34.9375 | 142.0 | 7.47 | -25.86 | 1 | 78.4 | 78.1 | -88.2 | 18 | 81.8 |
| 2025-12-11T04:26:00 | -17.0524 | -34.9375 | 150.0 | 7.20 | -29.00 | 1 | 77.9 | 77.9 | -87.3 | 20 | 90.9 |
| 2025-12-11T04:26:00 | -17.0524 | -34.9375 | 158.0 | -5.04 | -34.57 | 1 | 75.8 | 75.8 | -87.3 | 20 | 90.9 |
| 2025-12-11T04:26:00 | -17.0524 | -34.9375 | 166.0 | 14.51 | -15.80 | 1 | 72.4 | 72.5 | -87.8 | 20 | 90.9 |
| 2025-12-11T04:26:00 | -17.0524 | -34.9375 | 174.0 | 7.23 | -17.90 | 1 | 70.4 | 70.4 | -87.8 | 20 | 90.9 |
| 2025-12-11T04:26:00 | -17.0524 | -34.9375 | 182.0 | -1.14 | -17.18 | 1 | 64.0 | 64.0 | -89.6 | 21 | 95.5 |
| 2025-12-11T04:26:00 | -17.0524 | -34.9375 | 190.0 | -6.54 | -31.54 | 1 | 59.7 | 59.7 | -90.6 | 20 | 90.9 |
| 2025-12-11T04:26:00 | -17.0524 | -34.9375 | 198.0 | 3.58 | -15.96 | 1 | 57.9 | 57.9 | -90.5 | 21 | 95.5 |
| 2025-12-11T04:26:00 | -17.0524 | -34.9375 | 206.0 | 2.58 | -27.39 | 1 | 57.7 | 57.2 | -90.0 | 18 | 81.8 |
| 2025-12-11T04:26:00 | -17.0524 | -34.9375 | 214.0 | 0.01 | -10.27 | 1 | 58.1 | 57.8 | -89.0 | 20 | 90.9 |
| 2025-12-11T04:26:00 | -17.0524 | -34.9375 | 222.0 | 15.62 | 10.90 | 1 | 68.8 | 67.8 | -83.9 | 18 | 81.8 |
| 2025-12-11T04:26:00 | -17.0524 | -34.9375 | 230.0 | 13.59 | -8.92 | 1 | 67.5 | 66.0 | -83.9 | 16 | 72.7 |
| 2025-12-11T04:26:00 | -17.0524 | -34.9375 | 238.0 | 18.13 | -13.96 | 1 | 61.8 | 59.5 | -85.9 | 14 | 63.6 |
| 2025-12-11T04:26:00 | -17.0524 | -34.9375 | 246.0 | 0.02 | -30.92 | 1 | 51.5 | 52.1 | -88.3 | 21 | 95.5 |
| 2025-12-11T04:26:00 | -17.0524 | -34.9375 | 254.0 | -1.24 | -17.06 | 1 | 47.1 | 47.1 | -89.6 | 21 | 95.5 |
| 2025-12-11T04:26:00 | -17.0524 | -34.9375 | 262.0 | 10.39 | -6.24 | 1 | 47.9 | 47.4 | -88.8 | 21 | 95.5 |
| 2025-12-11T04:26:00 | -17.0524 | -34.9375 | 270.0 | 9.41 | -18.67 | 1 | 49.7 | 49.2 | -87.3 | 20 | 90.9 |
| 2025-12-11T04:26:00 | -17.0524 | -34.9375 | 278.0 | -4.42 | -22.70 | 1 | 42.5 | 42.5 | -89.4 | 22 | 100.0 |
| 2025-12-11T04:26:00 | -17.0524 | -34.9375 | 286.0 | 2.75 | -14.37 | 1 | 36.0 | 36.0 | -91.5 | 22 | 100.0 |
| 2025-12-11T04:26:00 | -17.0524 | -34.9375 | 294.0 | -12.15 | -8.91 | 1 | 31.5 | 31.2 | -92.9 | 20 | 90.9 |
| 2025-12-11T04:26:00 | -17.0524 | -34.9375 | 302.0 | -1.21 | -21.01 | 1 | 28.2 | 28.1 | -93.7 | 21 | 95.5 |
| 2025-12-11T04:26:00 | -17.0524 | -34.9375 | 310.0 | -8.17 | -16.82 | 1 | 25.1 | 24.6 | -94.6 | 17 | 77.3 |
| 2025-12-11T04:26:00 | -17.0524 | -34.9375 | 318.0 | -3.68 | -40.11 | 1 | 22.3 | 22.2 | -95.0 | 19 | 86.4 |
| 2025-12-11T04:26:00 | -17.0524 | -34.9375 | 326.0 | -0.54 | -30.10 | 1 | 20.6 | 20.0 | -95.4 | 17 | 77.3 |
| 2025-12-11T04:26:00 | -17.0524 | -34.9375 | 334.0 | -11.80 | -28.99 | 1 | 20.2 | 19.6 | -94.9 | 14 | 63.6 |
| 2025-12-11T04:26:00 | -17.0524 | -34.9375 | 342.0 | -11.61 | -40.60 | 1 | 18.1 | 18.2 | -95.0 | 14 | 63.6 |
| 2025-12-11T04:26:00 | -17.0524 | -34.9375 | 350.0 | -5.00 | -43.88 | 1 | 16.8 | 17.1 | -94.9 | 10 | 45.5 |
| 2025-12-11T04:26:00 | -17.0524 | -34.9375 | 358.0 | -41.96 | -39.76 | 4 | 16.6 | 16.1 | -94.8 | 4 | 18.2 |
| 2025-12-11T04:26:00 | -17.0524 | -34.9375 | 366.0 | -21.65 | -36.73 | 4 | 16.8 | 19.2 | -92.6 | 4 | 18.2 |
| 2025-12-11T04:26:00 | -17.0524 | -34.9375 | 374.0 | 15.44 | -35.53 | 1 | 16.7 | 15.7 | -93.8 | 6 | 27.3 |
| 2025-12-11T04:26:00 | -17.0524 | -34.9375 | 382.0 | -12.70 | -24.89 | 4 | 16.9 | 14.9 | -93.6 | 2 | 9.1 |
| 2025-12-11T04:26:00 | -17.0524 | -34.9375 | 390.0 | 5.79 | -34.31 | 1 | 17.6 | 15.4 | -92.7 | 7 | 31.8 |
| 2025-12-11T04:26:00 | -17.0524 | -34.9375 | 398.0 | 17.10 | -72.61 | 4 | 16.8 | 13.8 | -92.9 | 4 | 18.2 |
| 2025-12-11T04:26:00 | -17.0524 | -34.9375 | 406.0 | 12.93 | -31.20 | 4 | 16.4 | 12.5 | -93.1 | 1 | 4.5 |
| 2025-12-11T04:26:00 | -17.0524 | -34.9375 | 414.0 | -8.57 | -108.38 | 4 | 17.6 | 13.0 | -92.2 | 1 | 4.5 |
| 2025-12-11T04:26:00 | -17.0524 | -34.9375 | 422.0 | -17.22 | -69.24 | 4 | 16.1 | 11.5 | -92.5 | 1 | 4.5 |
| 2025-12-11T04:26:00 | -17.0524 | -34.9375 | 430.0 | 32.39 | -76.98 | 4 | 18.5 | 12.8 | -91.2 | 1 | 4.5 |
| 2025-12-11T04:26:00 | -17.0524 | -34.9375 | 438.0 | 44.45 | -16.42 | 4 | 19.3 | 13.8 | -89.9 | 2 | 9.1 |
| 2025-12-11T04:26:00 | -17.0524 | -34.9375 | 446.0 | 0.84 | 24.44 | 4 | 18.9 | 15.4 | -88.5 | 2 | 9.1 |
| 2025-12-11T04:26:00 | -17.0524 | -34.9375 | 462.0 | 17.25 | -9.55 | 4 | 19.2 | 13.9 | -88.1 | 4 | 18.2 |
| 2025-12-11T04:26:00 | -17.0524 | -34.9375 | 470.0 | -16.77 | -68.10 | 4 | 19.9 | 15.0 | -87.0 | 2 | 9.1 |
| 2025-12-11T04:26:00 | -17.0524 | -34.9375 | 478.0 | -31.87 | -41.79 | 4 | 22.1 | 17.0 | -85.3 | 3 | 13.6 |
| 2025-12-11T04:26:00 | -17.0524 | -34.9375 | 486.0 | 8.20 | -43.87 | 1 | 22.4 | 18.0 | -84.2 | 8 | 36.4 |
| 2025-12-11T04:26:00 | -17.0524 | -34.9375 | 494.0 | 3.20 | -25.19 | 1 | 24.8 | 19.4 | -83.0 | 12 | 54.5 |
| 2025-12-11T04:26:00 | -17.0524 | -34.9375 | 502.0 | 12.96 | -17.00 | 1 | 26.4 | 20.1 | -82.1 | 10 | 45.5 |
| 2025-12-11T04:26:00 | -17.0524 | -34.9375 | 510.0 | -7.79 | -21.43 | 1 | 26.6 | 21.4 | -80.9 | 12 | 54.5 |
| 2025-12-11T04:26:00 | -17.0524 | -34.9375 | 518.0 | -1.46 | -14.47 | 1 | 26.8 | 20.9 | -80.6 | 12 | 54.5 |
| 2025-12-11T04:26:00 | -17.0524 | -34.9375 | 526.0 | -3.72 | -36.56 | 1 | 25.0 | 20.8 | -80.1 | 13 | 59.1 |
| 2025-12-11T04:26:00 | -17.0524 | -34.9375 | 534.0 | -0.15 | -10.41 | 1 | 24.7 | 21.7 | -79.2 | 11 | 50.0 |
| 2025-12-11T04:26:00 | -17.0524 | -34.9375 | 542.0 | 3.03 | -0.03 | 1 | 25.5 | 21.1 | -78.9 | 14 | 63.6 |
| 2025-12-11T04:26:00 | -17.0524 | -34.9375 | 550.0 | -15.16 | -9.99 | 1 | 25.8 | 21.8 | -78.1 | 11 | 50.0 |
| 2025-12-11T04:26:00 | -17.0524 | -34.9375 | 558.0 | -3.25 | -45.89 | 1 | 24.3 | 20.8 | -78.0 | 11 | 50.0 |
| 2025-12-11T04:26:00 | -17.0524 | -34.9375 | 566.0 | 1.57 | -29.41 | 1 | 22.2 | 18.5 | -78.7 | 12 | 54.5 |
| 2025-12-11T04:26:00 | -17.0524 | -34.9375 | 574.0 | 2.48 | -14.84 | 1 | 21.3 | 18.1 | -78.3 | 9 | 40.9 |
| 2025-12-11T04:26:00 | -17.0524 | -34.9375 | 582.0 | 70.71 | -7.33 | 4 | 22.2 | 15.0 | -79.5 | 1 | 4.5 |
| 2025-12-11T04:26:00 | -17.0524 | -34.9375 | 590.0 | 3.39 | -31.20 | 4 | 20.6 | 13.9 | -79.6 | 3 | 13.6 |
| 2025-12-11T04:26:00 | -17.0524 | -34.9375 | 598.0 | -6.85 | 16.26 | 4 | 19.5 | 14.0 | -79.0 | 1 | 4.5 |
| 2025-12-11T04:26:00 | -17.0524 | -34.9375 | 606.0 | 78.31 | -91.34 | 4 | 18.8 | 16.8 | -77.0 | 1 | 4.5 |
| 2025-12-11T04:26:00 | -17.0524 | -34.9375 | 614.0 | 62.08 | -36.88 | 4 | 19.1 | 16.8 | -76.6 | 1 | 4.5 |
| 2025-12-11T04:26:00 | -17.0524 | -34.9375 | 622.0 | 12.29 | -36.98 | 4 | 18.4 | 11.2 | -79.2 | 1 | 4.5 |
| 2025-12-11T04:26:00 | -17.0524 | -34.9375 | 638.0 | -39.73 | -88.70 | 4 | 17.2 | 10.2 | -78.9 | 1 | 4.5 |
| 2025-12-11T04:26:00 | -17.0524 | -34.9375 | 654.0 | 9 | 16.4 | 16.2 | -74.4 | 0 | 0.0 | ||
| 2025-12-11T04:26:00 | -17.0524 | -34.9375 | 686.0 | 58.44 | 4.63 | 4 | 15.9 | 13.2 | -74.2 | 1 | 4.5 |
| 2025-12-11T04:27:00 | -17.0493 | -34.9358 | 22.0 | 3.56 | -17.80 | 1 | 147.3 | 147.3 | -85.1 | 20 | 87.0 |
| 2025-12-11T04:27:00 | -17.0493 | -34.9358 | 30.0 | 6.71 | -19.72 | 1 | 144.1 | 144.1 | -82.0 | 23 | 100.0 |
| 2025-12-11T04:27:00 | -17.0493 | -34.9358 | 38.0 | 11.41 | -40.72 | 1 | 133.8 | 132.7 | -83.8 | 18 | 78.3 |
| 2025-12-11T04:27:00 | -17.0493 | -34.9358 | 46.0 | 9.20 | -21.05 | 1 | 121.0 | 121.2 | -86.1 | 20 | 87.0 |
| 2025-12-11T04:27:00 | -17.0493 | -34.9358 | 54.0 | 5.47 | -25.21 | 1 | 111.6 | 111.7 | -88.1 | 21 | 91.3 |
| 2025-12-11T04:27:00 | -17.0493 | -34.9358 | 62.0 | 7.27 | -16.43 | 1 | 112.7 | 112.5 | -86.0 | 21 | 91.3 |
| 2025-12-11T04:27:00 | -17.0493 | -34.9358 | 70.0 | 0.57 | -19.32 | 1 | 108.1 | 108.1 | -86.2 | 21 | 91.3 |
| 2025-12-11T04:27:00 | -17.0493 | -34.9358 | 78.0 | -1.98 | -19.42 | 1 | 102.5 | 102.5 | -87.1 | 23 | 100.0 |
| 2025-12-11T04:27:00 | -17.0493 | -34.9358 | 86.0 | 14.12 | -12.04 | 1 | 97.9 | 98.0 | -87.6 | 20 | 87.0 |
| 2025-12-11T04:27:00 | -17.0493 | -34.9358 | 94.0 | -0.59 | -21.29 | 1 | 97.4 | 96.5 | -86.9 | 21 | 91.3 |
| 2025-12-11T04:27:00 | -17.0493 | -34.9358 | 102.0 | 2.41 | -35.99 | 1 | 90.9 | 90.9 | -88.1 | 23 | 100.0 |
| 2025-12-11T04:27:00 | -17.0493 | -34.9358 | 110.0 | 13.24 | -27.29 | 1 | 90.4 | 90.4 | -87.1 | 23 | 100.0 |
| 2025-12-11T04:27:00 | -17.0493 | -34.9358 | 118.0 | 11.93 | -18.27 | 1 | 88.9 | 88.9 | -86.7 | 23 | 100.0 |
| 2025-12-11T04:27:00 | -17.0493 | -34.9358 | 126.0 | 8.16 | -29.79 | 1 | 85.0 | 85.0 | -87.3 | 21 | 91.3 |
| 2025-12-11T04:27:00 | -17.0493 | -34.9358 | 134.0 | 16.04 | -43.73 | 1 | 82.5 | 82.3 | -87.4 | 22 | 95.6 |
| 2025-12-11T04:27:00 | -17.0493 | -34.9358 | 142.0 | 11.46 | -34.30 | 1 | 80.9 | 80.3 | -87.2 | 21 | 91.3 |
| 2025-12-11T04:27:00 | -17.0493 | -34.9358 | 150.0 | 8.16 | -40.72 | 1 | 77.4 | 76.8 | -87.8 | 21 | 91.3 |
| 2025-12-11T04:27:00 | -17.0493 | -34.9358 | 158.0 | 13.48 | -32.72 | 1 | 75.0 | 75.0 | -87.6 | 23 | 100.0 |
| 2025-12-11T04:27:00 | -17.0493 | -34.9358 | 166.0 | 3.43 | -15.79 | 1 | 72.8 | 72.8 | -87.6 | 23 | 100.0 |
| 2025-12-11T04:27:00 | -17.0493 | -34.9358 | 174.0 | -2.28 | -16.05 | 1 | 66.3 | 66.3 | -89.5 | 22 | 95.6 |
| 2025-12-11T04:27:00 | -17.0493 | -34.9358 | 182.0 | -7.27 | -30.44 | 1 | 66.1 | 65.6 | -88.9 | 20 | 87.0 |
| 2025-12-11T04:27:00 | -17.0493 | -34.9358 | 190.0 | -1.15 | -29.26 | 1 | 60.0 | 59.6 | -90.6 | 22 | 95.6 |
| 2025-12-11T04:27:00 | -17.0493 | -34.9358 | 198.0 | -8.29 | -35.94 | 1 | 60.7 | 59.6 | -89.8 | 21 | 91.3 |
| 2025-12-11T04:27:00 | -17.0493 | -34.9358 | 206.0 | -13.93 | -27.59 | 1 | 59.9 | 59.4 | -89.1 | 21 | 91.3 |
| 2025-12-11T04:27:00 | -17.0493 | -34.9358 | 214.0 | 13.79 | -11.66 | 1 | 57.5 | 55.9 | -89.7 | 19 | 82.6 |
| 2025-12-11T04:27:00 | -17.0493 | -34.9358 | 222.0 | 3.38 | -1.74 | 1 | 62.1 | 61.5 | -86.5 | 20 | 87.0 |
| 2025-12-11T04:27:00 | -17.0493 | -34.9358 | 230.0 | 2.89 | -19.27 | 1 | 64.9 | 63.0 | -85.1 | 19 | 82.6 |
| 2025-12-11T04:27:00 | -17.0493 | -34.9358 | 238.0 | 0.26 | -18.49 | 1 | 56.7 | 56.4 | -87.2 | 22 | 95.6 |
| 2025-12-11T04:27:00 | -17.0493 | -34.9358 | 246.0 | -3.76 | -18.60 | 1 | 49.1 | 49.1 | -89.5 | 23 | 100.0 |
| 2025-12-11T04:27:00 | -17.0493 | -34.9358 | 254.0 | 1.16 | -18.14 | 1 | 44.3 | 44.3 | -90.8 | 23 | 100.0 |
| 2025-12-11T04:27:00 | -17.0493 | -34.9358 | 262.0 | -3.70 | -17.53 | 1 | 46.2 | 46.2 | -89.3 | 23 | 100.0 |
| 2025-12-11T04:27:00 | -17.0493 | -34.9358 | 270.0 | -14.37 | -16.79 | 1 | 45.3 | 45.3 | -89.0 | 22 | 95.6 |
| 2025-12-11T04:27:00 | -17.0493 | -34.9358 | 278.0 | -11.27 | -23.98 | 1 | 40.1 | 40.1 | -90.5 | 22 | 95.6 |
| 2025-12-11T04:27:00 | -17.0493 | -34.9358 | 286.0 | -14.53 | -7.85 | 1 | 34.0 | 34.0 | -92.4 | 21 | 91.3 |
| 2025-12-11T04:27:00 | -17.0493 | -34.9358 | 294.0 | -3.23 | -3.48 | 1 | 31.3 | 30.7 | -93.2 | 21 | 91.3 |
| 2025-12-11T04:27:00 | -17.0493 | -34.9358 | 302.0 | -6.93 | -11.66 | 1 | 28.0 | 26.9 | -94.2 | 19 | 82.6 |
| 2025-12-11T04:27:00 | -17.0493 | -34.9358 | 310.0 | -14.43 | -13.12 | 1 | 26.0 | 24.2 | -94.8 | 19 | 82.6 |
| 2025-12-11T04:27:00 | -17.0493 | -34.9358 | 318.0 | -11.54 | -19.64 | 1 | 24.4 | 22.3 | -95.0 | 18 | 78.3 |
| 2025-12-11T04:27:00 | -17.0493 | -34.9358 | 326.0 | -1.87 | -27.81 | 1 | 22.9 | 23.1 | -93.9 | 10 | 43.5 |
| 2025-12-11T04:27:00 | -17.0493 | -34.9358 | 334.0 | -8.68 | 1.08 | 1 | 21.8 | 20.6 | -94.5 | 10 | 43.5 |
| 2025-12-11T04:27:00 | -17.0493 | -34.9358 | 342.0 | -13.45 | -8.74 | 1 | 21.6 | 19.9 | -94.2 | 8 | 34.8 |
| 2025-12-11T04:27:00 | -17.0493 | -34.9358 | 350.0 | 7.69 | -26.95 | 1 | 20.6 | 18.6 | -94.1 | 9 | 39.1 |
| 2025-12-11T04:27:00 | -17.0493 | -34.9358 | 358.0 | 8.33 | -51.19 | 4 | 19.6 | 16.2 | -94.7 | 5 | 21.7 |
| 2025-12-11T04:27:00 | -17.0493 | -34.9358 | 366.0 | -25.43 | -2.90 | 4 | 18.5 | 19.0 | -92.7 | 3 | 13.0 |
| 2025-12-11T04:27:00 | -17.0493 | -34.9358 | 374.0 | -15.69 | -46.51 | 4 | 18.3 | 16.4 | -93.4 | 5 | 21.7 |
| 2025-12-11T04:27:00 | -17.0493 | -34.9358 | 382.0 | 2.99 | -37.92 | 1 | 17.6 | 15.6 | -93.2 | 7 | 30.4 |
| 2025-12-11T04:27:00 | -17.0493 | -34.9358 | 390.0 | 23.35 | -22.20 | 4 | 19.0 | 15.6 | -92.6 | 5 | 21.7 |
| 2025-12-11T04:27:00 | -17.0493 | -34.9358 | 398.0 | 11.49 | -40.54 | 4 | 19.3 | 15.0 | -92.3 | 5 | 21.7 |
| 2025-12-11T04:27:00 | -17.0493 | -34.9358 | 406.0 | -7.23 | -56.54 | 4 | 18.3 | 11.2 | -93.9 | 1 | 4.4 |
| 2025-12-11T04:27:00 | -17.0493 | -34.9358 | 430.0 | 24.93 | 2.87 | 4 | 21.8 | 17.2 | -88.7 | 1 | 4.4 |
| 2025-12-11T04:27:00 | -17.0493 | -34.9358 | 438.0 | 6.73 | -45.70 | 4 | 22.0 | 18.6 | -87.4 | 2 | 8.7 |
| 2025-12-11T04:27:00 | -17.0493 | -34.9358 | 446.0 | 48.50 | -9.78 | 4 | 20.5 | 13.0 | -89.8 | 1 | 4.4 |
| 2025-12-11T04:27:00 | -17.0493 | -34.9358 | 454.0 | 46.08 | 0.95 | 4 | 20.7 | 26.0 | -82.7 | 1 | 4.4 |
| 2025-12-11T04:27:00 | -17.0493 | -34.9358 | 462.0 | 17.80 | 1.43 | 4 | 21.3 | 17.8 | -86.1 | 5 | 21.7 |
| 2025-12-11T04:27:00 | -17.0493 | -34.9358 | 470.0 | 12.12 | -24.65 | 1 | 20.8 | 17.8 | -85.5 | 6 | 26.1 |
| 2025-12-11T04:27:00 | -17.0493 | -34.9358 | 478.0 | 21.89 | -16.78 | 1 | 22.5 | 15.9 | -85.9 | 6 | 26.1 |
| 2025-12-11T04:27:00 | -17.0493 | -34.9358 | 486.0 | -1.35 | 1.85 | 1 | 22.5 | 18.9 | -83.8 | 11 | 47.8 |
| 2025-12-11T04:27:00 | -17.0493 | -34.9358 | 494.0 | -12.28 | -3.97 | 1 | 21.9 | 21.1 | -82.1 | 14 | 60.9 |
| 2025-12-11T04:27:00 | -17.0493 | -34.9358 | 502.0 | 8.71 | -16.83 | 1 | 22.5 | 21.9 | -81.2 | 15 | 65.2 |
| 2025-12-11T04:27:00 | -17.0493 | -34.9358 | 510.0 | -5.87 | -17.50 | 1 | 22.6 | 22.5 | -80.4 | 19 | 82.6 |
| 2025-12-11T04:27:00 | -17.0493 | -34.9358 | 518.0 | -2.21 | -11.21 | 1 | 21.7 | 21.4 | -80.4 | 15 | 65.2 |
| 2025-12-11T04:27:00 | -17.0493 | -34.9358 | 526.0 | 16.93 | -12.54 | 1 | 22.4 | 21.7 | -79.7 | 13 | 56.5 |
| 2025-12-11T04:27:00 | -17.0493 | -34.9358 | 534.0 | 1.31 | -6.13 | 1 | 22.7 | 20.9 | -79.5 | 13 | 56.5 |
| 2025-12-11T04:27:00 | -17.0493 | -34.9358 | 542.0 | 7.07 | -7.73 | 1 | 23.0 | 22.0 | -78.5 | 15 | 65.2 |
| 2025-12-11T04:27:00 | -17.0493 | -34.9358 | 550.0 | 0.11 | -9.48 | 1 | 22.1 | 22.1 | -77.9 | 14 | 60.9 |
| 2025-12-11T04:27:00 | -17.0493 | -34.9358 | 558.0 | -4.24 | -15.63 | 1 | 20.1 | 18.8 | -79.0 | 14 | 60.9 |
| 2025-12-11T04:27:00 | -17.0493 | -34.9358 | 566.0 | 6.40 | -18.73 | 1 | 19.9 | 19.9 | -78.0 | 11 | 47.8 |
| 2025-12-11T04:27:00 | -17.0493 | -34.9358 | 574.0 | 0.31 | -26.48 | 1 | 17.8 | 16.6 | -79.1 | 10 | 43.5 |
| 2025-12-11T04:27:00 | -17.0493 | -34.9358 | 582.0 | -3.89 | -20.81 | 4 | 16.9 | 17.1 | -78.4 | 3 | 13.0 |
| 2025-12-11T04:27:00 | -17.0493 | -34.9358 | 590.0 | -11.07 | -29.58 | 4 | 16.8 | 17.0 | -77.9 | 3 | 13.0 |
| 2025-12-11T04:27:00 | -17.0493 | -34.9358 | 598.0 | 38.09 | -15.36 | 4 | 16.8 | 15.5 | -78.2 | 2 | 8.7 |
| 2025-12-11T04:27:00 | -17.0493 | -34.9358 | 614.0 | 23.24 | -57.72 | 4 | 14.6 | 14.5 | -77.8 | 2 | 8.7 |
| 2025-12-11T04:27:00 | -17.0493 | -34.9358 | 630.0 | 33.84 | -59.08 | 4 | 14.5 | 14.1 | -77.0 | 2 | 8.7 |
| 2025-12-11T04:27:00 | -17.0493 | -34.9358 | 638.0 | 60.08 | -61.85 | 4 | 14.1 | 12.4 | -77.5 | 2 | 8.7 |
| 2025-12-11T04:27:00 | -17.0493 | -34.9358 | 646.0 | 9 | 14.7 | 13.5 | -76.4 | 0 | 0.0 | ||
| 2025-12-11T04:27:00 | -17.0493 | -34.9358 | 678.0 | 24.57 | -157.98 | 4 | 16.2 | 20.8 | -70.7 | 1 | 4.4 |
| 2025-12-11T04:28:00 | -17.0460 | -34.9340 | 22.0 | 4.06 | -30.85 | 1 | 147.4 | 147.4 | -85.0 | 21 | 91.3 |
| 2025-12-11T04:28:00 | -17.0460 | -34.9340 | 30.0 | 11.99 | -21.49 | 1 | 145.4 | 145.4 | -81.5 | 23 | 100.0 |
| 2025-12-11T04:28:00 | -17.0460 | -34.9340 | 38.0 | 11.12 | -17.15 | 1 | 136.0 | 136.0 | -82.4 | 22 | 95.6 |
| 2025-12-11T04:28:00 | -17.0460 | -34.9340 | 46.0 | -4.46 | -0.62 | 1 | 125.4 | 125.0 | -84.6 | 20 | 87.0 |
| 2025-12-11T04:28:00 | -17.0460 | -34.9340 | 54.0 | 8.89 | -25.95 | 1 | 116.0 | 115.2 | -86.6 | 20 | 87.0 |
| 2025-12-11T04:28:00 | -17.0460 | -34.9340 | 62.0 | -0.48 | -14.17 | 1 | 111.1 | 110.8 | -86.7 | 22 | 95.6 |
| 2025-12-11T04:28:00 | -17.0460 | -34.9340 | 70.0 | 3.99 | -28.92 | 1 | 108.2 | 107.7 | -86.4 | 18 | 78.3 |
| 2025-12-11T04:28:00 | -17.0460 | -34.9340 | 78.0 | -5.07 | -18.32 | 1 | 103.3 | 103.3 | -86.7 | 22 | 95.6 |
| 2025-12-11T04:28:00 | -17.0460 | -34.9340 | 86.0 | 12.88 | -10.88 | 1 | 99.5 | 99.5 | -87.0 | 22 | 95.6 |
| 2025-12-11T04:28:00 | -17.0460 | -34.9340 | 94.0 | 2.40 | -16.32 | 1 | 96.1 | 96.1 | -87.1 | 22 | 95.6 |
| 2025-12-11T04:28:00 | -17.0460 | -34.9340 | 102.0 | -16.83 | -23.83 | 1 | 91.6 | 91.6 | -87.8 | 23 | 100.0 |
| 2025-12-11T04:28:00 | -17.0460 | -34.9340 | 110.0 | 16.14 | -31.77 | 1 | 89.6 | 89.8 | -87.4 | 22 | 95.6 |
| 2025-12-11T04:28:00 | -17.0460 | -34.9340 | 118.0 | 4.48 | -37.67 | 1 | 89.7 | 89.4 | -86.5 | 22 | 95.6 |
| 2025-12-11T04:28:00 | -17.0460 | -34.9340 | 126.0 | 9.33 | -33.44 | 1 | 85.6 | 85.1 | -87.2 | 22 | 95.6 |
| 2025-12-11T04:28:00 | -17.0460 | -34.9340 | 134.0 | 10.27 | -24.71 | 1 | 82.1 | 82.5 | -87.3 | 21 | 91.3 |
| 2025-12-11T04:28:00 | -17.0460 | -34.9340 | 142.0 | -1.73 | -31.10 | 1 | 80.1 | 79.6 | -87.6 | 21 | 91.3 |
| 2025-12-11T04:28:00 | -17.0460 | -34.9340 | 150.0 | 4.76 | -33.91 | 1 | 76.6 | 76.6 | -87.9 | 22 | 95.6 |
| 2025-12-11T04:28:00 | -17.0460 | -34.9340 | 158.0 | 2.51 | -26.66 | 1 | 74.7 | 74.1 | -88.0 | 20 | 87.0 |
| 2025-12-11T04:28:00 | -17.0460 | -34.9340 | 166.0 | -7.19 | -21.21 | 1 | 73.2 | 72.8 | -87.6 | 20 | 87.0 |
| 2025-12-11T04:28:00 | -17.0460 | -34.9340 | 174.0 | -6.17 | -29.38 | 1 | 69.8 | 69.2 | -88.3 | 21 | 91.3 |
| 2025-12-11T04:28:00 | -17.0460 | -34.9340 | 182.0 | -0.54 | -18.59 | 1 | 65.4 | 64.8 | -89.3 | 22 | 95.6 |
| 2025-12-11T04:28:00 | -17.0460 | -34.9340 | 190.0 | -11.91 | -14.86 | 1 | 57.5 | 57.4 | -91.6 | 21 | 91.3 |
| 2025-12-11T04:28:00 | -17.0460 | -34.9340 | 198.0 | 2.73 | -17.61 | 1 | 59.4 | 58.9 | -90.1 | 21 | 91.3 |
| 2025-12-11T04:28:00 | -17.0460 | -34.9340 | 206.0 | -8.06 | -20.97 | 1 | 56.6 | 56.6 | -90.2 | 22 | 95.6 |
| 2025-12-11T04:28:00 | -17.0460 | -34.9340 | 214.0 | 0.52 | -22.18 | 1 | 53.9 | 53.4 | -90.8 | 19 | 82.6 |
| 2025-12-11T04:28:00 | -17.0460 | -34.9340 | 222.0 | 12.43 | -13.31 | 1 | 56.8 | 56.6 | -88.7 | 21 | 91.3 |
| 2025-12-11T04:28:00 | -17.0460 | -34.9340 | 230.0 | 9.48 | -0.20 | 1 | 55.5 | 55.1 | -88.5 | 21 | 91.3 |
| 2025-12-11T04:28:00 | -17.0460 | -34.9340 | 238.0 | 4.79 | -10.22 | 1 | 54.1 | 53.8 | -88.3 | 22 | 95.6 |
| 2025-12-11T04:28:00 | -17.0460 | -34.9340 | 246.0 | -1.72 | -12.01 | 1 | 47.3 | 47.3 | -90.3 | 23 | 100.0 |
| 2025-12-11T04:28:00 | -17.0460 | -34.9340 | 254.0 | -4.19 | 0.85 | 1 | 43.8 | 43.8 | -91.1 | 23 | 100.0 |
| 2025-12-11T04:28:00 | -17.0460 | -34.9340 | 262.0 | -8.06 | 1.81 | 1 | 44.7 | 44.7 | -89.9 | 22 | 95.6 |
| 2025-12-11T04:28:00 | -17.0460 | -34.9340 | 270.0 | -7.19 | -15.42 | 1 | 48.1 | 48.1 | -87.8 | 22 | 95.6 |
| 2025-12-11T04:28:00 | -17.0460 | -34.9340 | 278.0 | -13.99 | -15.77 | 1 | 41.0 | 41.0 | -90.1 | 22 | 95.6 |
| 2025-12-11T04:28:00 | -17.0460 | -34.9340 | 286.0 | -11.84 | -28.89 | 1 | 34.4 | 34.4 | -92.2 | 23 | 100.0 |
| 2025-12-11T04:28:00 | -17.0460 | -34.9340 | 294.0 | -12.77 | -22.61 | 1 | 29.5 | 29.5 | -93.7 | 22 | 95.6 |
| 2025-12-11T04:28:00 | -17.0460 | -34.9340 | 302.0 | -13.54 | -20.70 | 1 | 26.3 | 25.9 | -94.7 | 21 | 91.3 |
| 2025-12-11T04:28:00 | -17.0460 | -34.9340 | 310.0 | 3.04 | -12.34 | 1 | 23.8 | 23.0 | -95.3 | 20 | 87.0 |
| 2025-12-11T04:28:00 | -17.0460 | -34.9340 | 318.0 | -1.87 | -22.37 | 1 | 23.7 | 21.9 | -95.2 | 20 | 87.0 |
| 2025-12-11T04:28:00 | -17.0460 | -34.9340 | 326.0 | -10.29 | -9.75 | 1 | 21.5 | 20.1 | -95.4 | 13 | 56.5 |
| 2025-12-11T04:28:00 | -17.0460 | -34.9340 | 334.0 | -8.45 | -42.97 | 1 | 19.9 | 18.2 | -95.7 | 10 | 43.5 |
| 2025-12-11T04:28:00 | -17.0460 | -34.9340 | 342.0 | -15.97 | -21.59 | 1 | 20.8 | 20.7 | -93.8 | 10 | 43.5 |
| 2025-12-11T04:28:00 | -17.0460 | -34.9340 | 350.0 | -14.15 | -18.70 | 1 | 18.9 | 17.9 | -94.5 | 9 | 39.1 |
| 2025-12-11T04:28:00 | -17.0460 | -34.9340 | 358.0 | 1.09 | -125.77 | 4 | 17.6 | 16.0 | -94.9 | 1 | 4.4 |
| 2025-12-11T04:28:00 | -17.0460 | -34.9340 | 366.0 | -29.03 | -13.91 | 4 | 17.1 | 15.6 | -94.5 | 2 | 8.7 |
| 2025-12-11T04:28:00 | -17.0460 | -34.9340 | 374.0 | 0.59 | -29.79 | 4 | 17.2 | 15.3 | -94.0 | 4 | 17.4 |
| 2025-12-11T04:28:00 | -17.0460 | -34.9340 | 382.0 | 10.42 | -37.75 | 1 | 17.8 | 17.2 | -92.3 | 9 | 39.1 |
| 2025-12-11T04:28:00 | -17.0460 | -34.9340 | 390.0 | -8.17 | -27.76 | 1 | 16.6 | 15.8 | -92.5 | 7 | 30.4 |
| 2025-12-11T04:28:00 | -17.0460 | -34.9340 | 398.0 | 82.98 | -22.82 | 4 | 15.8 | 15.2 | -92.1 | 1 | 4.4 |
| 2025-12-11T04:28:00 | -17.0460 | -34.9340 | 406.0 | 29.03 | -46.51 | 4 | 15.7 | 14.2 | -92.1 | 1 | 4.4 |
| 2025-12-11T04:28:00 | -17.0460 | -34.9340 | 446.0 | 26.12 | -37.92 | 4 | 21.3 | 16.1 | -88.1 | 4 | 17.4 |
| 2025-12-11T04:28:00 | -17.0460 | -34.9340 | 454.0 | 12.62 | -8.38 | 4 | 21.5 | 18.7 | -86.2 | 3 | 13.0 |
| 2025-12-11T04:28:00 | -17.0460 | -34.9340 | 462.0 | 3.80 | -11.33 | 4 | 20.8 | 16.1 | -87.0 | 4 | 17.4 |
| 2025-12-11T04:28:00 | -17.0460 | -34.9340 | 470.0 | 59.53 | -40.56 | 4 | 20.9 | 16.9 | -86.0 | 1 | 4.4 |
| 2025-12-11T04:28:00 | -17.0460 | -34.9340 | 478.0 | 15.17 | 5.26 | 1 | 20.9 | 16.7 | -85.5 | 7 | 30.4 |
| 2025-12-11T04:28:00 | -17.0460 | -34.9340 | 486.0 | 11.88 | -5.82 | 1 | 21.4 | 18.7 | -83.9 | 11 | 47.8 |
| 2025-12-11T04:28:00 | -17.0460 | -34.9340 | 494.0 | 4.33 | -20.06 | 1 | 23.4 | 20.9 | -82.3 | 13 | 56.5 |
| 2025-12-11T04:28:00 | -17.0460 | -34.9340 | 502.0 | -2.14 | -23.14 | 1 | 23.2 | 20.4 | -82.0 | 13 | 56.5 |
| 2025-12-11T04:28:00 | -17.0460 | -34.9340 | 510.0 | 2.53 | 7.45 | 1 | 24.1 | 21.4 | -80.9 | 14 | 60.9 |
| 2025-12-11T04:28:00 | -17.0460 | -34.9340 | 518.0 | -4.28 | -8.91 | 1 | 23.6 | 22.9 | -79.7 | 14 | 60.9 |
| 2025-12-11T04:28:00 | -17.0460 | -34.9340 | 526.0 | 5.04 | -1.37 | 1 | 22.9 | 21.2 | -80.0 | 17 | 73.9 |
| 2025-12-11T04:28:00 | -17.0460 | -34.9340 | 534.0 | -4.27 | -26.13 | 1 | 23.5 | 20.4 | -79.8 | 11 | 47.8 |
| 2025-12-11T04:28:00 | -17.0460 | -34.9340 | 542.0 | -7.86 | -9.36 | 1 | 23.5 | 21.4 | -78.8 | 15 | 65.2 |
| 2025-12-11T04:28:00 | -17.0460 | -34.9340 | 550.0 | -3.99 | -29.27 | 1 | 23.8 | 22.1 | -78.0 | 18 | 78.3 |
| 2025-12-11T04:28:00 | -17.0460 | -34.9340 | 558.0 | 10.69 | -17.89 | 1 | 22.0 | 18.6 | -79.1 | 13 | 56.5 |
| 2025-12-11T04:28:00 | -17.0460 | -34.9340 | 566.0 | 4.00 | -16.41 | 1 | 22.4 | 18.2 | -78.8 | 11 | 47.8 |
| 2025-12-11T04:28:00 | -17.0460 | -34.9340 | 574.0 | 9.08 | -15.27 | 4 | 20.7 | 17.1 | -78.9 | 4 | 17.4 |
| 2025-12-11T04:28:00 | -17.0460 | -34.9340 | 590.0 | 35.47 | -17.87 | 4 | 19.3 | 14.0 | -79.6 | 2 | 8.7 |
| 2025-12-11T04:28:00 | -17.0460 | -34.9340 | 598.0 | 23.72 | -34.40 | 4 | 19.3 | 13.6 | -79.3 | 2 | 8.7 |
| 2025-12-11T04:28:00 | -17.0460 | -34.9340 | 638.0 | 15.36 | -60.15 | 4 | 18.2 | 20.2 | -73.3 | 1 | 4.4 |
| 2025-12-11T04:28:00 | -17.0460 | -34.9340 | 646.0 | 43.76 | 15.10 | 4 | 19.2 | 19.2 | -73.3 | 1 | 4.4 |
| 2025-12-11T04:28:00 | -17.0460 | -34.9340 | 654.0 | 10.06 | -20.59 | 4 | 18.3 | 18.8 | -73.1 | 1 | 4.4 |
| 2025-12-11T04:28:00 | -17.0460 | -34.9340 | 662.0 | -15.90 | -76.29 | 4 | 18.8 | 17.1 | -73.5 | 1 | 4.4 |
| 2025-12-11T04:28:00 | -17.0460 | -34.9340 | 694.0 | -13.37 | -20.72 | 4 | 19.3 | 15.0 | -72.7 | 1 | 4.4 |
| 2025-12-11T04:28:00 | -17.0460 | -34.9340 | 734.0 | 28.45 | -21.69 | 4 | 18.4 | 23.5 | -66.1 | 1 | 4.4 |
| 2025-12-11T04:28:00 | -17.0460 | -34.9340 | 742.0 | 20.90 | 34.94 | 4 | 17.7 | 20.0 | -67.4 | 1 | 4.4 |
| 2025-12-11T04:28:00 | -17.0460 | -34.9340 | 750.0 | 49.70 | -2.37 | 4 | 17.9 | 19.2 | -67.3 | 1 | 4.4 |
| 2025-12-11T04:28:00 | -17.0460 | -34.9340 | 758.0 | 19.75 | 9.58 | 4 | 17.4 | 19.2 | -66.8 | 1 | 4.4 |
| 2025-12-11T04:28:00 | -17.0460 | -34.9340 | 782.0 | 18.89 | -71.22 | 4 | 17.1 | 16.0 | -67.2 | 1 | 4.4 |
| 2025-12-11T04:28:00 | -17.0460 | -34.9340 | 814.0 | 18.41 | -1.71 | 4 | 17.1 | 14.8 | -66.1 | 1 | 4.4 |
| 2025-12-11T04:29:00 | -17.0428 | -34.9324 | 22.0 | 24.99 | -13.60 | 1 | 147.8 | 147.8 | -84.9 | 22 | 100.0 |
| 2025-12-11T04:29:00 | -17.0428 | -34.9324 | 30.0 | -8.18 | -11.13 | 1 | 144.8 | 144.8 | -81.8 | 22 | 100.0 |
| 2025-12-11T04:29:00 | -17.0428 | -34.9324 | 38.0 | 1.73 | -31.10 | 1 | 142.6 | 142.2 | -79.7 | 20 | 90.9 |
| 2025-12-11T04:29:00 | -17.0428 | -34.9324 | 46.0 | 3.05 | -52.79 | 1 | 130.6 | 129.4 | -82.7 | 19 | 86.4 |
| 2025-12-11T04:29:00 | -17.0428 | -34.9324 | 54.0 | -9.06 | -36.18 | 1 | 121.6 | 120.2 | -84.5 | 17 | 77.3 |
| 2025-12-11T04:29:00 | -17.0428 | -34.9324 | 62.0 | -7.51 | -22.91 | 1 | 112.0 | 111.5 | -86.4 | 19 | 86.4 |
| 2025-12-11T04:29:00 | -17.0428 | -34.9324 | 70.0 | 5.99 | -31.84 | 1 | 108.5 | 108.6 | -86.0 | 20 | 90.9 |
| 2025-12-11T04:29:00 | -17.0428 | -34.9324 | 78.0 | -12.49 | -43.00 | 1 | 106.0 | 105.7 | -85.7 | 18 | 81.8 |
| 2025-12-11T04:29:00 | -17.0428 | -34.9324 | 86.0 | -2.03 | -36.76 | 1 | 100.9 | 100.5 | -86.5 | 20 | 90.9 |
| 2025-12-11T04:29:00 | -17.0428 | -34.9324 | 94.0 | -1.81 | -28.97 | 1 | 96.8 | 96.8 | -86.8 | 22 | 100.0 |
| 2025-12-11T04:29:00 | -17.0428 | -34.9324 | 102.0 | -0.40 | -23.17 | 1 | 92.7 | 92.7 | -87.3 | 21 | 95.5 |
| 2025-12-11T04:29:00 | -17.0428 | -34.9324 | 110.0 | -1.10 | -34.18 | 1 | 90.1 | 90.1 | -87.3 | 21 | 95.5 |
| 2025-12-11T04:29:00 | -17.0428 | -34.9324 | 118.0 | -9.88 | -38.71 | 1 | 88.6 | 88.6 | -86.8 | 22 | 100.0 |
| 2025-12-11T04:29:00 | -17.0428 | -34.9324 | 126.0 | 1.20 | -51.09 | 1 | 84.5 | 84.5 | -87.5 | 22 | 100.0 |
| 2025-12-11T04:29:00 | -17.0428 | -34.9324 | 134.0 | -1.08 | -37.30 | 1 | 80.1 | 80.4 | -88.2 | 17 | 77.3 |
| 2025-12-11T04:29:00 | -17.0428 | -34.9324 | 142.0 | 1.16 | -46.70 | 1 | 78.0 | 76.9 | -88.7 | 19 | 86.4 |
| 2025-12-11T04:29:00 | -17.0428 | -34.9324 | 150.0 | 3.40 | -38.78 | 1 | 75.7 | 75.3 | -88.4 | 19 | 86.4 |
| 2025-12-11T04:29:00 | -17.0428 | -34.9324 | 158.0 | -2.53 | -39.43 | 1 | 76.3 | 76.3 | -87.0 | 21 | 95.5 |
| 2025-12-11T04:29:00 | -17.0428 | -34.9324 | 166.0 | -14.14 | -44.26 | 1 | 71.6 | 71.6 | -88.2 | 21 | 95.5 |
| 2025-12-11T04:29:00 | -17.0428 | -34.9324 | 174.0 | -7.57 | -24.55 | 1 | 69.2 | 69.5 | -88.1 | 20 | 90.9 |
| 2025-12-11T04:29:00 | -17.0428 | -34.9324 | 182.0 | -13.94 | -37.24 | 1 | 63.7 | 63.0 | -90.0 | 20 | 90.9 |
| 2025-12-11T04:29:00 | -17.0428 | -34.9324 | 190.0 | -8.25 | -43.78 | 1 | 58.8 | 57.8 | -91.4 | 20 | 90.9 |
| 2025-12-11T04:29:00 | -17.0428 | -34.9324 | 198.0 | -6.38 | -25.49 | 1 | 55.4 | 55.4 | -91.6 | 22 | 100.0 |
| 2025-12-11T04:29:00 | -17.0428 | -34.9324 | 206.0 | -8.03 | -27.97 | 1 | 55.7 | 55.8 | -90.6 | 20 | 90.9 |
| 2025-12-11T04:29:00 | -17.0428 | -34.9324 | 214.0 | -1.04 | -28.97 | 1 | 53.4 | 53.4 | -90.8 | 21 | 95.5 |
| 2025-12-11T04:29:00 | -17.0428 | -34.9324 | 222.0 | 1.39 | -24.75 | 1 | 48.5 | 48.5 | -92.1 | 21 | 95.5 |
| 2025-12-11T04:29:00 | -17.0428 | -34.9324 | 230.0 | 1.01 | -32.89 | 1 | 48.4 | 48.4 | -91.4 | 18 | 81.8 |
| 2025-12-11T04:29:00 | -17.0428 | -34.9324 | 238.0 | 2.59 | -18.45 | 1 | 48.6 | 48.6 | -90.5 | 22 | 100.0 |
| 2025-12-11T04:29:00 | -17.0428 | -34.9324 | 246.0 | -5.94 | -27.89 | 1 | 47.3 | 47.7 | -90.1 | 20 | 90.9 |
| 2025-12-11T04:29:00 | -17.0428 | -34.9324 | 254.0 | -7.54 | -17.52 | 1 | 44.8 | 44.5 | -90.8 | 20 | 90.9 |
| 2025-12-11T04:29:00 | -17.0428 | -34.9324 | 262.0 | -15.86 | -2.30 | 1 | 43.7 | 43.3 | -90.5 | 20 | 90.9 |
| 2025-12-11T04:29:00 | -17.0428 | -34.9324 | 270.0 | -4.24 | -16.49 | 1 | 44.6 | 44.2 | -89.4 | 20 | 90.9 |
| 2025-12-11T04:29:00 | -17.0428 | -34.9324 | 278.0 | -10.98 | -32.95 | 1 | 40.5 | 40.1 | -90.4 | 20 | 90.9 |
Only the first 2000 rows were shown. To view the complete dataset, download it as tab-delimited text. You can still view the full matrix in your browser, but be aware that this may crash the browser due to the huge size.
